Time,TemperatureF,DewpointF,PressureIn,WindDirection,WindDirectionDegrees,WindSpeedMPH,WindSpeedGustMPH,Humidity,HourlyPrecipIn,Conditions,Clouds,dailyrainin,SoftwareType,DateUTC
2013-07-18 00:00:00,78.9,74.4,30.17,South,183,0.0,1.0,86,0.00,,---,0.00,VWS V14.01,2013-07-18 04:00:00,
2013-07-18 00:01:00,78.9,74.4,30.17,SE,125,1.0,3.0,86,0.00,,---,0.00,VWS V14.01,2013-07-18 04:01:00,
2013-07-18 00:02:00,78.9,74.4,30.16,SSE,157,0.0,1.0,86,0.00,,---,0.00,VWS V14.01,2013-07-18 04:02:00,
2013-07-18 00:03:00,78.9,74.4,30.17,South,184,1.0,4.0,86,0.00,,---,0.00,VWS V14.01,2013-07-18 04:03:00,
2013-07-18 00:04:00,78.9,74.4,30.17,SSE,155,3.0,3.0,86,0.00,,---,0.00,VWS V14.01,2013-07-18 04:04:00,
2013-07-18 00:05:00,79.0,74.5,30.17,SW,219,0.0,3.0,86,0.00,,---,0.00,VWS V14.01,2013-07-18 04:05:00,
2013-07-18 00:06:00,79.0,74.5,30.17,South,187,1.0,1.0,86,0.00,,---,0.00,VWS V14.01,2013-07-18 04:06:00,
2013-07-18 00:07:00,79.0,74.5,30.17,SSE,161,2.0,2.0,86,0.00,,---,0.00,VWS V14.01,2013-07-18 04:07:00,
2013-07-18 00:08:00,79.0,74.5,30.17,West,263,1.0,2.0,86,0.00,,---,0.00,VWS V14.01,2013-07-18 04:08:00,
2013-07-18 00:09:00,79.0,74.5,30.17,SW,227,0.0,1.0,86,0.00,,---,0.00,VWS V14.01,2013-07-18 04:09:00,
2013-07-18 00:10:00,79.0,74.5,30.17,SW,227,0.0,1.0,86,0.00,,---,0.00,VWS V14.01,2013-07-18 04:10:00,
2013-07-18 00:11:00,79.1,74.6,30.17,WSW,243,0.0,0.0,86,0.00,,---,0.00,VWS V14.01,2013-07-18 04:11:00,
2013-07-18 00:12:00,79.0,74.5,30.17,WSW,242,0.0,0.0,86,0.00,,---,0.00,VWS V14.01,2013-07-18 04:12:00,
2013-07-18 00:13:00,79.1,74.9,30.16,WSW,242,0.0,0.0,87,0.00,,---,0.00,VWS V14.01,2013-07-18 04:13:00,
2013-07-18 00:14:00,79.1,74.6,30.16,East,100,0.0,2.0,86,0.00,,---,0.00,VWS V14.01,2013-07-18 04:14:00,
2013-07-18 00:15:00,79.1,74.6,30.16,East,99,0.0,0.0,86,0.00,,---,0.00,VWS V14.01,2013-07-18 04:15:00,
2013-07-18 00:16:00,79.1,74.6,30.16,SE,138,0.0,0.0,86,0.00,,---,0.00,VWS V14.01,2013-07-18 04:16:00,
2013-07-18 00:17:00,79.0,74.5,30.16,SE,138,0.0,1.0,86,0.00,,---,0.00,VWS V14.01,2013-07-18 04:17:00,
2013-07-18 00:18:00,79.0,74.8,30.16,SE,139,0.0,0.0,87,0.00,,---,0.00,VWS V14.01,2013-07-18 04:18:00,
2013-07-18 00:19:00,79.1,74.6,30.16,SE,139,0.0,0.0,86,0.00,,---,0.00,VWS V14.01,2013-07-18 04:19:00,
2013-07-18 00:20:00,79.1,74.9,30.16,SE,142,0.0,0.0,87,0.00,,---,0.00,VWS V14.01,2013-07-18 04:20:00,
2013-07-18 00:21:00,79.0,74.8,30.16,West,273,0.0,0.0,87,0.00,,---,0.00,VWS V14.01,2013-07-18 04:21:00,
2013-07-18 00:22:00,79.0,74.8,30.16,WSW,252,2.0,2.0,87,0.00,,---,0.00,VWS V14.01,2013-07-18 04:22:00,
2013-07-18 00:23:00,79.0,74.8,30.16,WSW,244,1.0,3.0,87,0.00,,---,0.00,VWS V14.01,2013-07-18 04:23:00,
2013-07-18 00:24:00,79.0,74.8,30.16,West,260,1.0,1.0,87,0.00,,---,0.00,VWS V14.01,2013-07-18 04:24:00,
2013-07-18 00:25:00,78.9,74.7,30.16,WSW,258,0.0,1.0,87,0.00,,---,0.00,VWS V14.01,2013-07-18 04:25:00,
2013-07-18 00:26:00,78.9,74.7,30.16,WSW,258,1.0,1.0,87,0.00,,---,0.00,VWS V14.01,2013-07-18 04:26:00,
2013-07-18 00:27:00,78.9,74.7,30.16,West,259,0.0,1.0,87,0.00,,---,0.00,VWS V14.01,2013-07-18 04:27:00,
2013-07-18 00:28:00,78.9,74.7,30.16,SW,225,0.0,1.0,87,0.00,,---,0.00,VWS V14.01,2013-07-18 04:28:00,
2013-07-18 00:29:00,78.8,74.6,30.16,WSW,242,1.0,1.0,87,0.00,,---,0.00,VWS V14.01,2013-07-18 04:29:00,
2013-07-18 00:30:00,78.8,74.6,30.16,SW,227,0.0,1.0,87,0.00,,---,0.00,VWS V14.01,2013-07-18 04:30:00,
2013-07-18 00:31:00,78.8,74.6,30.15,WSW,257,1.0,1.0,87,0.00,,---,0.00,VWS V14.01,2013-07-18 04:31:00,
2013-07-18 00:32:00,78.8,74.6,30.15,SW,218,1.0,3.0,87,0.00,,---,0.00,VWS V14.01,2013-07-18 04:32:00,
2013-07-18 00:33:00,78.7,74.5,30.15,SSW,195,2.0,2.0,87,0.00,,---,0.00,VWS V14.01,2013-07-18 04:33:00,
2013-07-18 00:34:00,78.7,74.5,30.15,West,267,0.0,4.0,87,0.00,,---,0.00,VWS V14.01,2013-07-18 04:34:00,
2013-07-18 00:35:00,78.7,74.5,30.15,West,274,0.0,2.0,87,0.00,,---,0.00,VWS V14.01,2013-07-18 04:35:00,
2013-07-18 00:36:00,78.7,74.5,30.15,SSW,209,1.0,2.0,87,0.00,,---,0.00,VWS V14.01,2013-07-18 04:36:00,
2013-07-18 00:37:00,78.6,74.4,30.16,WSW,256,1.0,1.0,87,0.00,,---,0.00,VWS V14.01,2013-07-18 04:37:00,
2013-07-18 00:38:00,78.6,74.4,30.16,WSW,256,1.0,1.0,87,0.00,,---,0.00,VWS V14.01,2013-07-18 04:38:00,
2013-07-18 00:39:00,78.6,74.4,30.16,WSW,258,0.0,1.0,87,0.00,,---,0.00,VWS V14.01,2013-07-18 04:39:00,
2013-07-18 00:40:00,78.6,74.4,30.16,WSW,242,1.0,1.0,87,0.00,,---,0.00,VWS V14.01,2013-07-18 04:40:00,
2013-07-18 00:41:00,78.6,74.4,30.16,West,273,1.0,2.0,87,0.00,,---,0.00,VWS V14.01,2013-07-18 04:41:00,
2013-07-18 00:42:00,78.6,74.4,30.16,WSW,245,2.0,2.0,87,0.00,,---,0.00,VWS V14.01,2013-07-18 04:42:00,
2013-07-18 00:43:00,78.5,74.3,30.16,West,261,1.0,2.0,87,0.00,,---,0.00,VWS V14.01,2013-07-18 04:43:00,
2013-07-18 00:44:00,78.5,74.3,30.16,West,276,2.0,2.0,87,0.00,,---,0.00,VWS V14.01,2013-07-18 04:44:00,
2013-07-18 00:45:00,78.5,74.3,30.16,SW,225,2.0,2.0,87,0.00,,---,0.00,VWS V14.01,2013-07-18 04:45:00,
2013-07-18 00:46:00,78.4,74.2,30.16,SW,219,2.0,2.0,87,0.00,,---,0.00,VWS V14.01,2013-07-18 04:46:00,
2013-07-18 00:47:00,78.4,74.2,30.16,WSW,249,2.0,2.0,87,0.00,,---,0.00,VWS V14.01,2013-07-18 04:47:00,
2013-07-18 00:48:00,78.4,74.6,30.16,WSW,252,2.0,3.0,88,0.00,,---,0.00,VWS V14.01,2013-07-18 04:48:00,
2013-07-18 00:49:00,78.4,74.6,30.16,SW,217,2.0,3.0,88,0.00,,---,0.00,VWS V14.01,2013-07-18 04:49:00,
2013-07-18 00:50:00,78.3,74.5,30.16,SW,233,1.0,4.0,88,0.00,,---,0.00,VWS V14.01,2013-07-18 04:50:00,
2013-07-18 00:51:00,78.3,74.5,30.16,WSW,245,2.0,3.0,88,0.00,,---,0.00,VWS V14.01,2013-07-18 04:51:00,
2013-07-18 00:52:00,78.3,74.5,30.16,SSW,209,1.0,4.0,88,0.00,,---,0.00,VWS V14.01,2013-07-18 04:52:00,
2013-07-18 00:53:00,78.3,74.5,30.16,SW,233,2.0,3.0,88,0.00,,---,0.00,VWS V14.01,2013-07-18 04:53:00,
2013-07-18 00:54:00,78.3,74.5,30.16,SW,223,0.0,2.0,88,0.00,,---,0.00,VWS V14.01,2013-07-18 04:54:00,
2013-07-18 00:55:00,78.2,74.4,30.16,WSW,241,0.0,2.0,88,0.00,,---,0.00,VWS V14.01,2013-07-18 04:55:00,
2013-07-18 00:56:00,78.2,74.4,30.16,WSW,254,1.0,1.0,88,0.00,,---,0.00,VWS V14.01,2013-07-18 04:56:00,
2013-07-18 00:57:00,78.1,74.3,30.16,SSW,202,0.0,1.0,88,0.00,,---,0.00,VWS V14.01,2013-07-18 04:57:00,
2013-07-18 00:58:00,78.2,74.4,30.16,South,172,1.0,2.0,88,0.00,,---,0.00,VWS V14.01,2013-07-18 04:58:00,
2013-07-18 00:59:00,78.1,74.3,30.16,SW,224,1.0,3.0,88,0.00,,---,0.00,VWS V14.01,2013-07-18 04:59:00,
2013-07-18 01:00:00,78.1,74.3,30.16,SW,225,0.0,1.0,88,0.00,,---,0.00,VWS V14.01,2013-07-18 05:00:00,
2013-07-18 01:01:00,78.1,74.3,30.15,SW,224,0.0,0.0,88,0.00,,---,0.00,VWS V14.01,2013-07-18 05:01:00,
2013-07-18 01:02:00,78.1,74.3,30.16,SW,225,0.0,0.0,88,0.00,,---,0.00,VWS V14.01,2013-07-18 05:02:00,
2013-07-18 01:03:00,78.1,74.3,30.16,WSW,257,1.0,1.0,88,0.00,,---,0.00,VWS V14.01,2013-07-18 05:03:00,
2013-07-18 01:04:00,78.1,74.3,30.16,SW,221,2.0,2.0,88,0.00,,---,0.00,VWS V14.01,2013-07-18 05:04:00,
2013-07-18 01:05:00,78.0,74.2,30.16,SW,218,2.0,2.0,88,0.00,,---,0.00,VWS V14.01,2013-07-18 05:05:00,
2013-07-18 01:06:00,78.0,74.2,30.16,SW,233,1.0,2.0,88,0.00,,---,0.00,VWS V14.01,2013-07-18 05:06:00,
2013-07-18 01:07:00,78.0,74.2,30.15,SW,236,1.0,1.0,88,0.00,,---,0.00,VWS V14.01,2013-07-18 05:07:00,
2013-07-18 01:08:00,78.0,74.2,30.16,WSW,248,2.0,2.0,88,0.00,,---,0.00,VWS V14.01,2013-07-18 05:08:00,
2013-07-18 01:09:00,78.0,74.2,30.16,SW,226,1.0,2.0,88,0.00,,---,0.00,VWS V14.01,2013-07-18 05:09:00,
2013-07-18 01:10:00,77.9,74.1,30.16,SW,236,2.0,2.0,88,0.00,,---,0.00,VWS V14.01,2013-07-18 05:10:00,
2013-07-18 01:11:00,77.9,74.1,30.15,SW,233,1.0,2.0,88,0.00,,---,0.00,VWS V14.01,2013-07-18 05:11:00,
2013-07-18 01:12:00,77.9,74.1,30.15,West,269,1.0,3.0,88,0.00,,---,0.00,VWS V14.01,2013-07-18 05:12:00,
2013-07-18 01:13:00,77.9,74.1,30.15,SSW,206,2.0,3.0,88,0.00,,---,0.00,VWS V14.01,2013-07-18 05:13:00,
2013-07-18 01:14:00,77.9,74.1,30.15,SW,215,2.0,2.0,88,0.00,,---,0.00,VWS V14.01,2013-07-18 05:14:00,
2013-07-18 01:15:00,77.8,74.0,30.15,SW,229,1.0,5.0,88,0.00,,---,0.00,VWS V14.01,2013-07-18 05:15:00,
2013-07-18 01:16:00,77.8,74.0,30.15,SW,225,3.0,5.0,88,0.00,,---,0.00,VWS V14.01,2013-07-18 05:16:00,
2013-07-18 01:17:00,77.8,74.0,30.15,SW,218,0.0,3.0,88,0.00,,---,0.00,VWS V14.01,2013-07-18 05:17:00,
2013-07-18 01:18:00,77.8,74.0,30.15,South,178,1.0,3.0,88,0.00,,---,0.00,VWS V14.01,2013-07-18 05:18:00,
2013-07-18 01:19:00,77.8,74.0,30.15,SSW,210,1.0,1.0,88,0.00,,---,0.00,VWS V14.01,2013-07-18 05:19:00,
2013-07-18 01:20:00,77.7,73.9,30.16,SW,227,1.0,1.0,88,0.00,,---,0.00,VWS V14.01,2013-07-18 05:20:00,
2013-07-18 01:21:00,77.7,73.9,30.15,SW,227,0.0,1.0,88,0.00,,---,0.00,VWS V14.01,2013-07-18 05:21:00,
2013-07-18 01:22:00,77.7,73.9,30.15,WSW,242,1.0,2.0,88,0.00,,---,0.00,VWS V14.01,2013-07-18 05:22:00,
2013-07-18 01:23:00,77.7,73.9,30.15,West,260,2.0,2.0,88,0.00,,---,0.00,VWS V14.01,2013-07-18 05:23:00,
2013-07-18 01:24:00,77.7,73.9,30.15,SW,229,1.0,2.0,88,0.00,,---,0.00,VWS V14.01,2013-07-18 05:24:00,
2013-07-18 01:25:00,77.6,73.8,30.15,SSW,203,1.0,2.0,88,0.00,,---,0.00,VWS V14.01,2013-07-18 05:25:00,
2013-07-18 01:26:00,77.6,73.8,30.15,WSW,248,0.0,2.0,88,0.00,,---,0.00,VWS V14.01,2013-07-18 05:26:00,
2013-07-18 01:27:00,77.6,73.8,30.16,WSW,238,1.0,2.0,88,0.00,,---,0.00,VWS V14.01,2013-07-18 05:27:00,
2013-07-18 01:28:00,77.6,74.1,30.16,SW,226,1.0,2.0,89,0.00,,---,0.00,VWS V14.01,2013-07-18 05:28:00,
2013-07-18 01:29:00,77.5,74.0,30.16,West,260,2.0,2.0,89,0.00,,---,0.00,VWS V14.01,2013-07-18 05:29:00,
2013-07-18 01:30:00,77.5,74.0,30.16,SW,221,1.0,2.0,89,0.00,,---,0.00,VWS V14.01,2013-07-18 05:30:00,
2013-07-18 01:31:00,77.5,74.0,30.16,SSW,206,2.0,2.0,89,0.00,,---,0.00,VWS V14.01,2013-07-18 05:31:00,
2013-07-18 01:32:00,77.5,74.0,30.16,SSW,211,1.0,2.0,89,0.00,,---,0.00,VWS V14.01,2013-07-18 05:32:00,
2013-07-18 01:33:00,77.5,74.0,30.16,SW,232,0.0,2.0,89,0.00,,---,0.00,VWS V14.01,2013-07-18 05:33:00,
2013-07-18 01:34:00,77.5,74.0,30.16,SSW,206,1.0,1.0,89,0.00,,---,0.00,VWS V14.01,2013-07-18 05:34:00,
2013-07-18 01:35:00,77.5,74.0,30.16,WSW,245,0.0,2.0,89,0.00,,---,0.00,VWS V14.01,2013-07-18 05:35:00,
2013-07-18 01:36:00,77.4,73.9,30.16,WSW,245,0.0,0.0,89,0.00,,---,0.00,VWS V14.01,2013-07-18 05:36:00,
2013-07-18 01:37:00,77.4,73.9,30.16,WSW,245,0.0,0.0,89,0.00,,---,0.00,VWS V14.01,2013-07-18 05:37:00,
2013-07-18 01:38:00,77.4,73.9,30.16,SW,232,1.0,2.0,89,0.00,,---,0.00,VWS V14.01,2013-07-18 05:38:00,
2013-07-18 01:39:00,77.4,73.9,30.16,WSW,245,0.0,2.0,89,0.00,,---,0.00,VWS V14.01,2013-07-18 05:39:00,
2013-07-18 01:40:00,77.4,73.9,30.16,SW,224,2.0,3.0,89,0.00,,---,0.00,VWS V14.01,2013-07-18 05:40:00,
2013-07-18 01:41:00,77.4,73.9,30.16,WSW,245,1.0,2.0,89,0.00,,---,0.00,VWS V14.01,2013-07-18 05:41:00,
2013-07-18 01:42:00,77.4,73.9,30.15,SW,235,2.0,3.0,89,0.00,,---,0.00,VWS V14.01,2013-07-18 05:42:00,
2013-07-18 01:43:00,77.3,73.8,30.15,SW,225,1.0,2.0,89,0.00,,---,0.00,VWS V14.01,2013-07-18 05:43:00,
2013-07-18 01:44:00,77.3,73.8,30.15,WSW,244,1.0,1.0,89,0.00,,---,0.00,VWS V14.01,2013-07-18 05:44:00,
2013-07-18 01:45:00,77.3,73.8,30.15,SSW,210,1.0,1.0,89,0.00,,---,0.00,VWS V14.01,2013-07-18 05:45:00,
2013-07-18 01:46:00,77.3,73.8,30.15,SW,222,1.0,1.0,89,0.00,,---,0.00,VWS V14.01,2013-07-18 05:46:00,
2013-07-18 01:47:00,77.3,73.8,30.15,WSW,257,1.0,1.0,89,0.00,,---,0.00,VWS V14.01,2013-07-18 05:47:00,
2013-07-18 01:48:00,77.3,73.8,30.15,SW,217,1.0,2.0,89,0.00,,---,0.00,VWS V14.01,2013-07-18 05:48:00,
2013-07-18 01:49:00,77.3,73.8,30.15,SSW,206,2.0,3.0,89,0.00,,---,0.00,VWS V14.01,2013-07-18 05:49:00,
2013-07-18 01:50:00,77.2,74.0,30.16,WSW,252,2.0,2.0,90,0.00,,---,0.00,VWS V14.01,2013-07-18 05:50:00,
2013-07-18 01:51:00,77.2,74.0,30.16,SW,214,2.0,2.0,90,0.00,,---,0.00,VWS V14.01,2013-07-18 05:51:00,
2013-07-18 01:52:00,77.2,74.0,30.16,SW,225,2.0,2.0,90,0.00,,---,0.00,VWS V14.01,2013-07-18 05:52:00,
2013-07-18 01:53:00,77.2,74.0,30.16,SW,236,1.0,2.0,90,0.00,,---,0.00,VWS V14.01,2013-07-18 05:53:00,
2013-07-18 01:54:00,77.2,74.0,30.16,SSW,213,1.0,2.0,90,0.00,,---,0.00,VWS V14.01,2013-07-18 05:54:00,
2013-07-18 01:55:00,77.2,74.0,30.15,SW,226,1.0,2.0,90,0.00,,---,0.00,VWS V14.01,2013-07-18 05:55:00,
2013-07-18 01:56:00,77.2,74.0,30.15,WSW,242,1.0,2.0,90,0.00,,---,0.00,VWS V14.01,2013-07-18 05:56:00,
2013-07-18 01:57:00,77.2,74.0,30.16,WSW,244,0.0,1.0,90,0.00,,---,0.00,VWS V14.01,2013-07-18 05:57:00,
2013-07-18 01:58:00,77.2,74.0,30.16,SSW,196,1.0,1.0,90,0.00,,---,0.00,VWS V14.01,2013-07-18 05:58:00,
2013-07-18 01:59:00,77.2,74.0,30.16,WSW,245,2.0,2.0,90,0.00,,---,0.00,VWS V14.01,2013-07-18 05:59:00,
2013-07-18 02:00:00,77.1,73.9,30.16,SW,224,0.0,2.0,90,0.00,,---,0.00,VWS V14.01,2013-07-18 06:00:00,
2013-07-18 02:01:00,77.1,73.9,30.16,SW,225,1.0,2.0,90,0.00,,---,0.00,VWS V14.01,2013-07-18 06:01:00,
2013-07-18 02:02:00,77.1,73.9,30.16,WSW,241,2.0,2.0,90,0.00,,---,0.00,VWS V14.01,2013-07-18 06:02:00,
2013-07-18 02:03:00,77.2,74.0,30.16,WSW,248,1.0,2.0,90,0.00,,---,0.00,VWS V14.01,2013-07-18 06:03:00,
2013-07-18 02:04:00,77.1,73.9,30.16,SW,228,3.0,3.0,90,0.00,,---,0.00,VWS V14.01,2013-07-18 06:04:00,
2013-07-18 02:05:00,77.1,73.9,30.15,WSW,238,1.0,1.0,90,0.00,,---,0.00,VWS V14.01,2013-07-18 06:05:00,
2013-07-18 02:06:00,77.1,73.9,30.15,WSW,238,0.0,1.0,90,0.00,,---,0.00,VWS V14.01,2013-07-18 06:06:00,
2013-07-18 02:07:00,77.1,73.9,30.15,WSW,237,0.0,1.0,90,0.00,,---,0.00,VWS V14.01,2013-07-18 06:07:00,
2013-07-18 02:08:00,77.1,73.9,30.15,WSW,237,0.0,1.0,90,0.00,,---,0.00,VWS V14.01,2013-07-18 06:08:00,
2013-07-18 02:09:00,77.1,73.9,30.15,WSW,237,0.0,1.0,90,0.00,,---,0.00,VWS V14.01,2013-07-18 06:09:00,
2013-07-18 02:10:00,77.0,73.8,30.15,WSW,246,1.0,2.0,90,0.00,,---,0.00,VWS V14.01,2013-07-18 06:10:00,
2013-07-18 02:11:00,77.0,73.8,30.15,WSW,248,1.0,2.0,90,0.00,,---,0.00,VWS V14.01,2013-07-18 06:11:00,
2013-07-18 02:12:00,77.0,74.2,30.15,WSW,242,0.0,2.0,91,0.00,,---,0.00,VWS V14.01,2013-07-18 06:12:00,
2013-07-18 02:13:00,77.0,74.2,30.15,WSW,242,1.0,1.0,91,0.00,,---,0.00,VWS V14.01,2013-07-18 06:13:00,
2013-07-18 02:14:00,77.0,74.2,30.15,SW,214,1.0,1.0,91,0.00,,---,0.00,VWS V14.01,2013-07-18 06:14:00,
2013-07-18 02:15:00,77.0,74.2,30.15,SW,219,3.0,3.0,91,0.00,,---,0.00,VWS V14.01,2013-07-18 06:15:00,
2013-07-18 02:16:00,77.0,74.2,30.15,SSW,213,2.0,3.0,91,0.00,,---,0.00,VWS V14.01,2013-07-18 06:16:00,
2013-07-18 02:17:00,77.0,74.2,30.15,WSW,246,1.0,3.0,91,0.00,,---,0.00,VWS V14.01,2013-07-18 06:17:00,
2013-07-18 02:19:00,77.0,74.2,30.15,SW,233,0.0,2.0,91,0.00,,---,0.00,VWS V14.01,2013-07-18 06:19:00,
2013-07-18 02:20:00,76.9,74.1,30.15,WSW,242,1.0,2.0,91,0.00,,---,0.00,VWS V14.01,2013-07-18 06:20:00,
2013-07-18 02:22:00,77.0,74.2,30.15,WSW,253,0.0,2.0,91,0.00,,---,0.00,VWS V14.01,2013-07-18 06:22:00,
2013-07-18 02:24:00,76.9,74.1,30.15,WSW,253,1.0,1.0,91,0.00,,---,0.00,VWS V14.01,2013-07-18 06:24:00,
2013-07-18 02:25:00,76.9,74.1,30.15,WSW,253,1.0,1.0,91,0.00,,---,0.00,VWS V14.01,2013-07-18 06:25:00,
2013-07-18 02:27:00,76.9,74.1,30.15,WSW,253,0.0,1.0,91,0.00,,---,0.00,VWS V14.01,2013-07-18 06:27:00,
2013-07-18 02:28:00,76.9,74.1,30.15,West,271,1.0,1.0,91,0.00,,---,0.00,VWS V14.01,2013-07-18 06:28:00,
2013-07-18 02:29:00,76.9,74.1,30.15,West,271,1.0,2.0,91,0.00,,---,0.00,VWS V14.01,2013-07-18 06:29:00,
2013-07-18 02:30:00,76.9,74.1,30.15,West,271,0.0,1.0,91,0.00,,---,0.00,VWS V14.01,2013-07-18 06:30:00,
2013-07-18 02:31:00,76.9,74.1,30.15,West,271,0.0,1.0,91,0.00,,---,0.00,VWS V14.01,2013-07-18 06:31:00,
2013-07-18 02:32:00,76.9,74.1,30.15,West,271,1.0,1.0,91,0.00,,---,0.00,VWS V14.01,2013-07-18 06:32:00,
2013-07-18 02:33:00,76.9,74.1,30.15,West,271,1.0,1.0,91,0.00,,---,0.00,VWS V14.01,2013-07-18 06:33:00,
2013-07-18 02:34:00,76.9,74.4,30.15,West,271,1.0,1.0,92,0.00,,---,0.00,VWS V14.01,2013-07-18 06:34:00,
2013-07-18 02:35:00,76.9,74.4,30.15,West,278,2.0,2.0,92,0.00,,---,0.00,VWS V14.01,2013-07-18 06:35:00,
2013-07-18 02:36:00,76.8,74.3,30.15,West,278,3.0,3.0,92,0.00,,---,0.00,VWS V14.01,2013-07-18 06:36:00,
2013-07-18 02:37:00,76.8,74.3,30.15,West,274,1.0,3.0,92,0.00,,---,0.00,VWS V14.01,2013-07-18 06:37:00,
2013-07-18 02:38:00,76.8,74.3,30.15,West,279,2.0,2.0,92,0.00,,---,0.00,VWS V14.01,2013-07-18 06:38:00,
2013-07-18 02:39:00,76.8,74.3,30.15,West,260,1.0,2.0,92,0.00,,---,0.00,VWS V14.01,2013-07-18 06:39:00,
2013-07-18 02:40:00,76.8,74.3,30.15,West,260,1.0,1.0,92,0.00,,---,0.00,VWS V14.01,2013-07-18 06:40:00,
2013-07-18 02:41:00,76.8,74.3,30.15,West,265,1.0,1.0,92,0.00,,---,0.00,VWS V14.01,2013-07-18 06:41:00,
2013-07-18 02:42:00,76.9,74.4,30.15,West,272,2.0,3.0,92,0.00,,---,0.00,VWS V14.01,2013-07-18 06:42:00,
2013-07-18 02:43:00,76.9,74.4,30.15,West,278,2.0,2.0,92,0.00,,---,0.00,VWS V14.01,2013-07-18 06:43:00,
2013-07-18 02:44:00,76.9,74.4,30.15,West,279,1.0,2.0,92,0.00,,---,0.00,VWS V14.01,2013-07-18 06:44:00,
2013-07-18 02:45:00,76.9,74.4,30.15,West,275,1.0,2.0,92,0.00,,---,0.00,VWS V14.01,2013-07-18 06:45:00,
2013-07-18 02:46:00,76.9,74.4,30.15,West,274,1.0,2.0,92,0.00,,---,0.00,VWS V14.01,2013-07-18 06:46:00,
2013-07-18 02:47:00,76.9,74.4,30.15,West,275,2.0,2.0,92,0.00,,---,0.00,VWS V14.01,2013-07-18 06:47:00,
2013-07-18 02:48:00,76.9,74.4,30.15,West,281,1.0,2.0,92,0.00,,---,0.00,VWS V14.01,2013-07-18 06:48:00,
2013-07-18 02:49:00,76.9,74.4,30.15,West,261,1.0,1.0,92,0.00,,---,0.00,VWS V14.01,2013-07-18 06:49:00,
2013-07-18 02:50:00,77.0,74.5,30.15,West,276,0.0,1.0,92,0.00,,---,0.00,VWS V14.01,2013-07-18 06:50:00,
2013-07-18 02:51:00,76.9,74.4,30.15,West,276,0.0,1.0,92,0.00,,---,0.00,VWS V14.01,2013-07-18 06:51:00,
2013-07-18 02:52:00,77.0,74.5,30.15,West,276,0.0,0.0,92,0.00,,---,0.00,VWS V14.01,2013-07-18 06:52:00,
2013-07-18 02:53:00,77.0,74.5,30.15,West,276,0.0,0.0,92,0.00,,---,0.00,VWS V14.01,2013-07-18 06:53:00,
2013-07-18 02:54:00,77.0,74.5,30.15,West,276,0.0,0.0,92,0.00,,---,0.00,VWS V14.01,2013-07-18 06:54:00,
2013-07-18 02:55:00,77.0,74.5,30.14,West,276,0.0,0.0,92,0.00,,---,0.00,VWS V14.01,2013-07-18 06:55:00,
2013-07-18 02:56:00,77.0,74.5,30.14,West,276,0.0,0.0,92,0.00,,---,0.00,VWS V14.01,2013-07-18 06:56:00,
2013-07-18 02:57:00,77.0,74.5,30.15,West,276,0.0,0.0,92,0.00,,---,0.00,VWS V14.01,2013-07-18 06:57:00,
2013-07-18 02:58:00,77.0,74.5,30.14,West,276,0.0,0.0,92,0.00,,---,0.00,VWS V14.01,2013-07-18 06:58:00,
2013-07-18 02:59:00,77.0,74.5,30.14,West,276,0.0,0.0,92,0.00,,---,0.00,VWS V14.01,2013-07-18 06:59:00,
2013-07-18 03:00:00,77.0,74.5,30.14,West,273,1.0,1.0,92,0.00,,---,0.00,VWS V14.01,2013-07-18 07:00:00,
2013-07-18 03:01:00,77.0,74.5,30.14,West,273,1.0,1.0,92,0.00,,---,0.00,VWS V14.01,2013-07-18 07:01:00,
2013-07-18 03:02:00,77.0,74.5,30.14,West,280,2.0,3.0,92,0.00,,---,0.00,VWS V14.01,2013-07-18 07:02:00,
2013-07-18 03:03:00,77.0,74.5,30.14,West,273,2.0,2.0,92,0.00,,---,0.00,VWS V14.01,2013-07-18 07:03:00,
2013-07-18 03:04:00,77.1,74.6,30.14,West,272,1.0,2.0,92,0.00,,---,0.00,VWS V14.01,2013-07-18 07:04:00,
2013-07-18 03:05:00,77.1,74.6,30.14,West,271,1.0,1.0,92,0.00,,---,0.00,VWS V14.01,2013-07-18 07:05:00,
2013-07-18 03:06:00,77.1,74.6,30.14,West,268,1.0,1.0,92,0.00,,---,0.00,VWS V14.01,2013-07-18 07:06:00,
2013-07-18 03:07:00,77.1,74.6,30.14,WSW,249,0.0,1.0,92,0.00,,---,0.00,VWS V14.01,2013-07-18 07:07:00,
2013-07-18 03:08:00,77.1,74.6,30.14,WSW,248,0.0,0.0,92,0.00,,---,0.00,VWS V14.01,2013-07-18 07:08:00,
2013-07-18 03:09:00,77.1,74.6,30.14,WSW,249,0.0,0.0,92,0.00,,---,0.00,VWS V14.01,2013-07-18 07:09:00,
2013-07-18 03:10:00,77.1,74.6,30.14,WSW,249,0.0,1.0,92,0.00,,---,0.00,VWS V14.01,2013-07-18 07:10:00,
2013-07-18 03:11:00,77.1,74.6,30.14,WSW,249,0.0,1.0,92,0.00,,---,0.00,VWS V14.01,2013-07-18 07:11:00,
2013-07-18 03:12:00,77.1,74.6,30.14,WNW,286,2.0,2.0,92,0.00,,---,0.00,VWS V14.01,2013-07-18 07:12:00,
2013-07-18 03:13:00,77.1,74.6,30.14,WNW,287,2.0,3.0,92,0.00,,---,0.00,VWS V14.01,2013-07-18 07:13:00,
2013-07-18 03:14:00,77.2,74.7,30.14,WNW,284,2.0,3.0,92,0.00,,---,0.00,VWS V14.01,2013-07-18 07:14:00,
2013-07-18 03:15:00,77.2,74.7,30.14,West,277,3.0,3.0,92,0.00,,---,0.00,VWS V14.01,2013-07-18 07:15:00,
2013-07-18 03:16:00,77.2,74.7,30.14,WNW,283,2.0,3.0,92,0.00,,---,0.00,VWS V14.01,2013-07-18 07:16:00,
2013-07-18 03:17:00,77.2,74.7,30.14,West,268,2.0,3.0,92,0.00,,---,0.00,VWS V14.01,2013-07-18 07:17:00,
2013-07-18 03:18:00,77.2,74.7,30.14,WNW,282,2.0,2.0,92,0.00,,---,0.00,VWS V14.01,2013-07-18 07:18:00,
2013-07-18 03:19:00,77.2,74.7,30.14,WNW,286,2.0,2.0,92,0.00,,---,0.00,VWS V14.01,2013-07-18 07:19:00,
2013-07-18 03:20:00,77.2,74.7,30.14,West,280,0.0,2.0,92,0.00,,---,0.00,VWS V14.01,2013-07-18 07:20:00,
2013-07-18 03:21:00,77.2,74.7,30.14,West,280,1.0,2.0,92,0.00,,---,0.00,VWS V14.01,2013-07-18 07:21:00,
2013-07-18 03:22:00,77.2,74.7,30.14,West,279,1.0,1.0,92,0.00,,---,0.00,VWS V14.01,2013-07-18 07:22:00,
2013-07-18 03:23:00,77.2,74.7,30.14,West,269,3.0,3.0,92,0.00,,---,0.00,VWS V14.01,2013-07-18 07:23:00,
2013-07-18 03:24:00,77.2,74.7,30.14,West,281,2.0,3.0,92,0.00,,---,0.00,VWS V14.01,2013-07-18 07:24:00,
2013-07-18 03:25:00,77.2,74.7,30.14,West,271,2.0,4.0,92,0.00,,---,0.00,VWS V14.01,2013-07-18 07:25:00,
2013-07-18 03:26:00,77.2,74.7,30.14,WNW,287,3.0,4.0,92,0.00,,---,0.00,VWS V14.01,2013-07-18 07:26:00,
2013-07-18 03:27:00,77.2,74.7,30.14,WNW,283,2.0,3.0,92,0.00,,---,0.00,VWS V14.01,2013-07-18 07:27:00,
2013-07-18 03:28:00,77.2,74.7,30.14,WSW,256,1.0,3.0,92,0.00,,---,0.00,VWS V14.01,2013-07-18 07:28:00,
2013-07-18 03:29:00,77.2,74.7,30.14,West,276,2.0,2.0,92,0.00,,---,0.00,VWS V14.01,2013-07-18 07:29:00,
2013-07-18 03:30:00,77.1,74.6,30.14,West,265,4.0,5.0,92,0.00,,---,0.00,VWS V14.01,2013-07-18 07:30:00,
2013-07-18 03:31:00,77.1,74.6,30.14,West,267,3.0,5.0,92,0.00,,---,0.00,VWS V14.01,2013-07-18 07:31:00,
2013-07-18 03:32:00,77.1,74.6,30.14,West,279,3.0,3.0,92,0.00,,---,0.00,VWS V14.01,2013-07-18 07:32:00,
2013-07-18 03:33:00,77.1,74.6,30.14,West,269,2.0,3.0,92,0.00,,---,0.00,VWS V14.01,2013-07-18 07:33:00,
2013-07-18 03:34:00,77.1,74.6,30.14,West,264,1.0,3.0,92,0.00,,---,0.00,VWS V14.01,2013-07-18 07:34:00,
2013-07-18 03:35:00,77.1,74.6,30.14,West,280,1.0,2.0,92,0.00,,---,0.00,VWS V14.01,2013-07-18 07:35:00,
2013-07-18 03:36:00,77.1,74.6,30.14,West,280,2.0,2.0,92,0.00,,---,0.00,VWS V14.01,2013-07-18 07:36:00,
2013-07-18 03:37:00,77.1,74.6,30.14,WSW,257,2.0,2.0,92,0.00,,---,0.00,VWS V14.01,2013-07-18 07:37:00,
2013-07-18 03:38:00,77.1,74.6,30.14,West,263,2.0,3.0,92,0.00,,---,0.00,VWS V14.01,2013-07-18 07:38:00,
2013-07-18 03:39:00,77.0,74.5,30.14,West,268,2.0,2.0,92,0.00,,---,0.00,VWS V14.01,2013-07-18 07:39:00,
2013-07-18 03:40:00,77.1,74.6,30.14,West,277,2.0,2.0,92,0.00,,---,0.00,VWS V14.01,2013-07-18 07:40:00,
2013-07-18 03:41:00,77.0,74.5,30.14,NW,309,2.0,2.0,92,0.00,,---,0.00,VWS V14.01,2013-07-18 07:41:00,
2013-07-18 03:42:00,77.1,74.6,30.14,NW,308,0.0,2.0,92,0.00,,---,0.00,VWS V14.01,2013-07-18 07:42:00,
2013-07-18 03:43:00,77.1,74.6,30.14,NW,309,1.0,1.0,92,0.00,,---,0.00,VWS V14.01,2013-07-18 07:43:00,
2013-07-18 03:44:00,77.0,74.5,30.14,NW,309,0.0,1.0,92,0.00,,---,0.00,VWS V14.01,2013-07-18 07:44:00,
2013-07-18 03:45:00,77.0,74.5,30.14,West,268,1.0,3.0,92,0.00,,---,0.00,VWS V14.01,2013-07-18 07:45:00,
2013-07-18 03:46:00,77.0,74.5,30.14,WSW,253,1.0,3.0,92,0.00,,---,0.00,VWS V14.01,2013-07-18 07:46:00,
2013-07-18 03:47:00,77.0,74.5,30.14,West,272,1.0,2.0,92,0.00,,---,0.00,VWS V14.01,2013-07-18 07:47:00,
2013-07-18 03:48:00,77.0,74.5,30.14,West,272,1.0,2.0,92,0.00,,---,0.00,VWS V14.01,2013-07-18 07:48:00,
2013-07-18 03:49:00,76.9,74.4,30.14,West,272,1.0,2.0,92,0.00,,---,0.00,VWS V14.01,2013-07-18 07:49:00,
2013-07-18 03:50:00,76.9,74.4,30.14,West,272,1.0,1.0,92,0.00,,---,0.00,VWS V14.01,2013-07-18 07:50:00,
2013-07-18 03:51:00,76.9,74.4,30.14,West,272,1.0,1.0,92,0.00,,---,0.00,VWS V14.01,2013-07-18 07:51:00,
2013-07-18 03:52:00,76.9,74.4,30.14,West,271,1.0,2.0,92,0.00,,---,0.00,VWS V14.01,2013-07-18 07:52:00,
2013-07-18 03:53:00,76.8,74.3,30.14,West,271,0.0,1.0,92,0.00,,---,0.00,VWS V14.01,2013-07-18 07:53:00,
2013-07-18 03:54:00,76.8,74.3,30.13,West,272,1.0,1.0,92,0.00,,---,0.00,VWS V14.01,2013-07-18 07:54:00,
2013-07-18 03:55:00,76.8,74.6,30.13,West,276,1.0,2.0,93,0.00,,---,0.00,VWS V14.01,2013-07-18 07:55:00,
2013-07-18 03:56:00,76.8,74.6,30.13,West,276,1.0,2.0,93,0.00,,---,0.00,VWS V14.01,2013-07-18 07:56:00,
2013-07-18 03:57:00,76.8,74.6,30.13,West,276,1.0,1.0,93,0.00,,---,0.00,VWS V14.01,2013-07-18 07:57:00,
2013-07-18 03:58:00,76.8,74.6,30.13,West,276,0.0,1.0,93,0.00,,---,0.00,VWS V14.01,2013-07-18 07:58:00,
2013-07-18 03:59:00,76.8,74.6,30.13,West,273,1.0,1.0,93,0.00,,---,0.00,VWS V14.01,2013-07-18 07:59:00,
2013-07-18 04:00:00,76.7,74.5,30.13,West,273,1.0,1.0,93,0.00,,---,0.00,VWS V14.01,2013-07-18 08:00:00,
2013-07-18 04:01:00,76.7,74.5,30.13,West,273,0.0,1.0,93,0.00,,---,0.00,VWS V14.01,2013-07-18 08:01:00,
2013-07-18 04:02:00,76.7,74.5,30.13,West,273,0.0,0.0,93,0.00,,---,0.00,VWS V14.01,2013-07-18 08:02:00,
2013-07-18 04:03:00,76.7,74.5,30.13,West,273,1.0,1.0,93,0.00,,---,0.00,VWS V14.01,2013-07-18 08:03:00,
2013-07-18 04:04:00,76.7,74.5,30.13,West,273,0.0,1.0,93,0.00,,---,0.00,VWS V14.01,2013-07-18 08:04:00,
2013-07-18 04:05:00,76.7,74.5,30.13,West,273,1.0,1.0,93,0.00,,---,0.00,VWS V14.01,2013-07-18 08:05:00,
2013-07-18 04:06:00,76.7,74.5,30.13,West,273,0.0,1.0,93,0.00,,---,0.00,VWS V14.01,2013-07-18 08:06:00,
2013-07-18 04:07:00,76.6,74.4,30.13,West,273,1.0,1.0,93,0.00,,---,0.00,VWS V14.01,2013-07-18 08:07:00,
2013-07-18 04:08:00,76.6,74.4,30.13,West,273,0.0,1.0,93,0.00,,---,0.00,VWS V14.01,2013-07-18 08:08:00,
2013-07-18 04:09:00,76.6,74.4,30.13,West,273,0.0,0.0,93,0.00,,---,0.00,VWS V14.01,2013-07-18 08:09:00,
2013-07-18 04:10:00,76.6,74.4,30.13,West,273,0.0,0.0,93,0.00,,---,0.00,VWS V14.01,2013-07-18 08:10:00,
2013-07-18 04:11:00,76.6,74.4,30.13,West,273,0.0,0.0,93,0.00,,---,0.00,VWS V14.01,2013-07-18 08:11:00,
2013-07-18 04:12:00,76.6,74.4,30.13,West,273,0.0,0.0,93,0.00,,---,0.00,VWS V14.01,2013-07-18 08:12:00,
2013-07-18 04:13:00,76.5,74.3,30.13,West,273,0.0,0.0,93,0.00,,---,0.00,VWS V14.01,2013-07-18 08:13:00,
2013-07-18 04:14:00,76.5,74.3,30.13,West,273,0.0,0.0,93,0.00,,---,0.00,VWS V14.01,2013-07-18 08:14:00,
2013-07-18 04:15:00,76.5,74.3,30.13,West,273,0.0,0.0,93,0.00,,---,0.00,VWS V14.01,2013-07-18 08:15:00,
2013-07-18 04:16:00,76.4,74.2,30.13,West,273,0.0,0.0,93,0.00,,---,0.00,VWS V14.01,2013-07-18 08:16:00,
2013-07-18 04:17:00,76.4,74.2,30.13,West,273,1.0,1.0,93,0.00,,---,0.00,VWS V14.01,2013-07-18 08:17:00,
2013-07-18 04:18:00,76.4,74.2,30.13,WSW,240,1.0,2.0,93,0.00,,---,0.00,VWS V14.01,2013-07-18 08:18:00,
2013-07-18 04:19:00,76.4,74.2,30.13,West,276,2.0,2.0,93,0.00,,---,0.00,VWS V14.01,2013-07-18 08:19:00,
2013-07-18 04:20:00,76.4,74.2,30.13,West,269,3.0,3.0,93,0.00,,---,0.00,VWS V14.01,2013-07-18 08:20:00,
2013-07-18 04:21:00,76.4,74.2,30.13,West,273,2.0,3.0,93,0.00,,---,0.00,VWS V14.01,2013-07-18 08:21:00,
2013-07-18 04:22:00,76.4,74.2,30.13,West,261,2.0,2.0,93,0.00,,---,0.00,VWS V14.01,2013-07-18 08:22:00,
2013-07-18 04:23:00,76.3,74.1,30.13,WNW,295,2.0,3.0,93,0.00,,---,0.00,VWS V14.01,2013-07-18 08:23:00,
2013-07-18 04:24:00,76.3,74.4,30.13,West,281,2.0,3.0,94,0.00,,---,0.00,VWS V14.01,2013-07-18 08:24:00,
2013-07-18 04:25:00,76.3,74.4,30.13,West,280,2.0,2.0,94,0.00,,---,0.00,VWS V14.01,2013-07-18 08:25:00,
2013-07-18 04:26:00,76.3,74.4,30.13,West,281,2.0,2.0,94,0.00,,---,0.00,VWS V14.01,2013-07-18 08:26:00,
2013-07-18 04:27:00,76.3,74.4,30.13,West,271,2.0,3.0,94,0.00,,---,0.00,VWS V14.01,2013-07-18 08:27:00,
2013-07-18 04:28:00,76.3,74.4,30.13,West,271,2.0,2.0,94,0.00,,---,0.00,VWS V14.01,2013-07-18 08:28:00,
2013-07-18 04:29:00,76.3,74.4,30.13,WNW,288,2.0,2.0,94,0.00,,---,0.00,VWS V14.01,2013-07-18 08:29:00,
2013-07-18 04:30:00,76.3,74.4,30.12,WNW,287,0.0,1.0,94,0.00,,---,0.00,VWS V14.01,2013-07-18 08:30:00,
2013-07-18 04:31:00,76.3,74.4,30.12,WNW,287,1.0,1.0,94,0.00,,---,0.00,VWS V14.01,2013-07-18 08:31:00,
2013-07-18 04:32:00,76.3,74.4,30.12,West,279,1.0,2.0,94,0.00,,---,0.00,VWS V14.01,2013-07-18 08:32:00,
2013-07-18 04:33:00,76.3,74.4,30.12,WNW,284,2.0,2.0,94,0.00,,---,0.00,VWS V14.01,2013-07-18 08:33:00,
2013-07-18 04:34:00,76.3,74.4,30.13,NW,305,1.0,2.0,94,0.00,,---,0.00,VWS V14.01,2013-07-18 08:34:00,
2013-07-18 04:35:00,76.3,74.4,30.12,WNW,282,2.0,2.0,94,0.00,,---,0.00,VWS V14.01,2013-07-18 08:35:00,
2013-07-18 04:36:00,76.2,74.3,30.12,West,279,1.0,2.0,94,0.00,,---,0.00,VWS V14.01,2013-07-18 08:36:00,
2013-07-18 04:37:00,76.2,74.3,30.13,West,277,1.0,1.0,94,0.00,,---,0.00,VWS V14.01,2013-07-18 08:37:00,
2013-07-18 04:38:00,76.2,74.3,30.13,West,277,1.0,1.0,94,0.00,,---,0.00,VWS V14.01,2013-07-18 08:38:00,
2013-07-18 04:39:00,76.2,74.3,30.13,West,277,0.0,1.0,94,0.00,,---,0.00,VWS V14.01,2013-07-18 08:39:00,
2013-07-18 04:40:00,76.2,74.3,30.13,West,280,1.0,2.0,94,0.00,,---,0.00,VWS V14.01,2013-07-18 08:40:00,
2013-07-18 04:41:00,76.2,74.3,30.13,WNW,284,2.0,2.0,94,0.00,,---,0.00,VWS V14.01,2013-07-18 08:41:00,
2013-07-18 04:42:00,76.2,74.3,30.13,WNW,300,0.0,2.0,94,0.00,,---,0.00,VWS V14.01,2013-07-18 08:42:00,
2013-07-18 04:43:00,76.2,74.3,30.13,WNW,300,0.0,1.0,94,0.00,,---,0.00,VWS V14.01,2013-07-18 08:43:00,
2013-07-18 04:44:00,76.2,74.3,30.13,WNW,300,0.0,1.0,94,0.00,,---,0.00,VWS V14.01,2013-07-18 08:44:00,
2013-07-18 04:45:00,76.2,74.3,30.13,WNW,300,0.0,1.0,94,0.00,,---,0.00,VWS V14.01,2013-07-18 08:45:00,
2013-07-18 04:46:00,76.2,74.3,30.13,WNW,300,0.0,1.0,94,0.00,,---,0.00,VWS V14.01,2013-07-18 08:46:00,
2013-07-18 04:47:00,76.2,74.3,30.13,WNW,300,0.0,0.0,94,0.00,,---,0.00,VWS V14.01,2013-07-18 08:47:00,
2013-07-18 04:48:00,76.2,74.3,30.13,WNW,300,0.0,0.0,94,0.00,,---,0.00,VWS V14.01,2013-07-18 08:48:00,
2013-07-18 04:49:00,76.1,74.2,30.13,WNW,300,0.0,0.0,94,0.00,,---,0.00,VWS V14.01,2013-07-18 08:49:00,
2013-07-18 04:50:00,76.1,74.2,30.13,WNW,300,0.0,1.0,94,0.00,,---,0.00,VWS V14.01,2013-07-18 08:50:00,
2013-07-18 04:51:00,76.1,74.2,30.13,WNW,300,0.0,1.0,94,0.00,,---,0.00,VWS V14.01,2013-07-18 08:51:00,
2013-07-18 04:52:00,76.1,74.2,30.13,WNW,300,0.0,0.0,94,0.00,,---,0.00,VWS V14.01,2013-07-18 08:52:00,
2013-07-18 04:53:00,76.1,74.2,30.13,WNW,300,0.0,0.0,94,0.00,,---,0.00,VWS V14.01,2013-07-18 08:53:00,
2013-07-18 04:54:00,76.1,74.2,30.13,NNE,14,0.0,0.0,94,0.00,,---,0.00,VWS V14.01,2013-07-18 08:54:00,
2013-07-18 04:55:00,76.1,74.2,30.13,NNE,15,0.0,0.0,94,0.00,,---,0.00,VWS V14.01,2013-07-18 08:55:00,
2013-07-18 04:56:00,76.2,74.3,30.13,NNE,15,0.0,0.0,94,0.00,,---,0.00,VWS V14.01,2013-07-18 08:56:00,
2013-07-18 04:57:00,76.1,74.2,30.13,NNE,14,0.0,0.0,94,0.00,,---,0.00,VWS V14.01,2013-07-18 08:57:00,
2013-07-18 04:58:00,76.1,74.2,30.13,NNE,28,0.0,0.0,94,0.00,,---,0.00,VWS V14.01,2013-07-18 08:58:00,
2013-07-18 04:59:00,76.2,74.3,30.14,NE,46,3.0,3.0,94,0.00,,---,0.00,VWS V14.01,2013-07-18 08:59:00,
2013-07-18 05:00:00,76.2,74.3,30.14,NNE,28,2.0,3.0,94,0.00,,---,0.00,VWS V14.01,2013-07-18 09:00:00,
2013-07-18 05:01:00,76.2,74.3,30.14,NNE,27,1.0,3.0,94,0.00,,---,0.00,VWS V14.01,2013-07-18 09:01:00,
2013-07-18 05:02:00,76.2,74.3,30.14,NNE,23,1.0,3.0,94,0.00,,---,0.00,VWS V14.01,2013-07-18 09:02:00,
2013-07-18 05:03:00,76.2,74.3,30.14,NNE,23,1.0,1.0,94,0.00,,---,0.00,VWS V14.01,2013-07-18 09:03:00,
2013-07-18 05:04:00,76.2,74.3,30.13,NNW,336,0.0,1.0,94,0.00,,---,0.00,VWS V14.01,2013-07-18 09:04:00,
2013-07-18 05:05:00,76.3,74.4,30.14,West,271,1.0,2.0,94,0.00,,---,0.00,VWS V14.01,2013-07-18 09:05:00,
2013-07-18 05:06:00,76.3,74.4,30.14,West,271,2.0,2.0,94,0.00,,---,0.00,VWS V14.01,2013-07-18 09:06:00,
2013-07-18 05:07:00,76.3,74.4,30.13,West,272,0.0,2.0,94,0.00,,---,0.00,VWS V14.01,2013-07-18 09:07:00,
2013-07-18 05:08:00,76.3,74.4,30.14,West,275,1.0,1.0,94,0.00,,---,0.00,VWS V14.01,2013-07-18 09:08:00,
2013-07-18 05:09:00,76.3,74.4,30.14,West,275,1.0,1.0,94,0.00,,---,0.00,VWS V14.01,2013-07-18 09:09:00,
2013-07-18 05:10:00,76.3,74.4,30.14,West,275,0.0,0.0,94,0.00,,---,0.00,VWS V14.01,2013-07-18 09:10:00,
2013-07-18 05:11:00,76.3,74.4,30.14,West,275,0.0,0.0,94,0.00,,---,0.00,VWS V14.01,2013-07-18 09:11:00,
2013-07-18 05:12:00,76.3,74.4,30.13,West,275,0.0,0.0,94,0.00,,---,0.00,VWS V14.01,2013-07-18 09:12:00,
2013-07-18 05:13:00,76.3,74.4,30.13,West,275,0.0,1.0,94,0.00,,---,0.00,VWS V14.01,2013-07-18 09:13:00,
2013-07-18 05:14:00,76.3,74.4,30.13,West,275,0.0,0.0,94,0.00,,---,0.00,VWS V14.01,2013-07-18 09:14:00,
2013-07-18 05:15:00,76.3,74.8,30.13,West,267,3.0,3.0,95,0.00,,---,0.00,VWS V14.01,2013-07-18 09:15:00,
2013-07-18 05:16:00,76.3,74.8,30.13,West,275,2.0,3.0,95,0.00,,---,0.00,VWS V14.01,2013-07-18 09:16:00,
2013-07-18 05:17:00,76.3,74.4,30.13,West,281,3.0,3.0,94,0.00,,---,0.00,VWS V14.01,2013-07-18 09:17:00,
2013-07-18 05:18:00,76.3,74.8,30.13,West,275,2.0,3.0,95,0.00,,---,0.00,VWS V14.01,2013-07-18 09:18:00,
2013-07-18 05:19:00,76.4,74.9,30.13,West,277,1.0,2.0,95,0.00,,---,0.00,VWS V14.01,2013-07-18 09:19:00,
2013-07-18 05:20:00,76.3,74.4,30.13,West,259,2.0,2.0,94,0.00,,---,0.00,VWS V14.01,2013-07-18 09:20:00,
2013-07-18 05:21:00,76.4,74.6,30.13,West,263,2.0,2.0,94,0.00,,---,0.00,VWS V14.01,2013-07-18 09:21:00,
2013-07-18 05:22:00,76.4,74.9,30.13,WSW,252,3.0,3.0,95,0.00,,---,0.00,VWS V14.01,2013-07-18 09:22:00,
2013-07-18 05:23:00,76.4,74.6,30.13,West,265,2.0,3.0,94,0.00,,---,0.00,VWS V14.01,2013-07-18 09:23:00,
2013-07-18 05:24:00,76.4,74.6,30.13,WSW,252,1.0,2.0,94,0.00,,---,0.00,VWS V14.01,2013-07-18 09:24:00,
2013-07-18 05:25:00,76.4,74.6,30.13,West,276,2.0,2.0,94,0.00,,---,0.00,VWS V14.01,2013-07-18 09:25:00,
2013-07-18 05:26:00,76.4,74.6,30.13,WNW,288,1.0,3.0,94,0.00,,---,0.00,VWS V14.01,2013-07-18 09:26:00,
2013-07-18 05:27:00,76.4,74.6,30.13,West,271,2.0,3.0,94,0.00,,---,0.00,VWS V14.01,2013-07-18 09:27:00,
2013-07-18 05:28:00,76.4,74.6,30.13,West,264,2.0,3.0,94,0.00,,---,0.00,VWS V14.01,2013-07-18 09:28:00,
2013-07-18 05:29:00,76.4,74.6,30.13,West,263,2.0,2.0,94,0.00,,---,0.00,VWS V14.01,2013-07-18 09:29:00,
2013-07-18 05:30:00,76.4,74.6,30.13,WSW,256,1.0,1.0,94,0.00,,---,0.00,VWS V14.01,2013-07-18 09:30:00,
2013-07-18 05:31:00,76.4,74.6,30.13,WSW,256,1.0,1.0,94,0.00,,---,0.00,VWS V14.01,2013-07-18 09:31:00,
2013-07-18 05:32:00,76.4,74.6,30.13,WSW,256,1.0,2.0,94,0.00,,---,0.00,VWS V14.01,2013-07-18 09:32:00,
2013-07-18 05:33:00,76.4,74.6,30.13,WSW,256,0.0,1.0,94,0.00,,---,0.00,VWS V14.01,2013-07-18 09:33:00,
2013-07-18 05:34:00,76.4,74.6,30.13,WSW,256,0.0,0.0,94,0.00,,---,0.00,VWS V14.01,2013-07-18 09:34:00,
2013-07-18 05:35:00,76.4,74.6,30.13,WSW,256,0.0,0.0,94,0.00,,---,0.00,VWS V14.01,2013-07-18 09:35:00,
2013-07-18 05:36:00,76.4,74.6,30.13,WSW,256,0.0,1.0,94,0.00,,---,0.00,VWS V14.01,2013-07-18 09:36:00,
2013-07-18 05:37:00,76.4,74.6,30.13,WSW,248,1.0,2.0,94,0.00,,---,0.00,VWS V14.01,2013-07-18 09:37:00,
2013-07-18 05:38:00,76.4,74.6,30.13,WSW,249,0.0,1.0,94,0.00,,---,0.00,VWS V14.01,2013-07-18 09:38:00,
2013-07-18 05:39:00,76.5,74.7,30.13,WSW,249,0.0,0.0,94,0.00,,---,0.00,VWS V14.01,2013-07-18 09:39:00,
2013-07-18 05:40:00,76.4,74.6,30.13,WSW,248,0.0,0.0,94,0.00,,---,0.00,VWS V14.01,2013-07-18 09:40:00,
2013-07-18 05:41:00,76.4,74.6,30.13,WSW,249,0.0,0.0,94,0.00,,---,0.00,VWS V14.01,2013-07-18 09:41:00,
2013-07-18 05:42:00,76.4,74.6,30.13,WSW,248,0.0,0.0,94,0.00,,---,0.00,VWS V14.01,2013-07-18 09:42:00,
2013-07-18 05:43:00,76.4,74.6,30.13,WSW,249,0.0,0.0,94,0.00,,---,0.00,VWS V14.01,2013-07-18 09:43:00,
2013-07-18 05:44:00,76.4,74.6,30.13,WSW,248,0.0,0.0,94,0.00,,---,0.00,VWS V14.01,2013-07-18 09:44:00,
2013-07-18 05:45:00,76.4,74.6,30.13,WSW,249,0.0,0.0,94,0.00,,---,0.00,VWS V14.01,2013-07-18 09:45:00,
2013-07-18 05:46:00,76.4,74.6,30.13,WSW,249,0.0,0.0,94,0.00,,---,0.00,VWS V14.01,2013-07-18 09:46:00,
2013-07-18 05:47:00,76.4,74.6,30.13,WSW,248,0.0,0.0,94,0.00,,---,0.00,VWS V14.01,2013-07-18 09:47:00,
2013-07-18 05:48:00,76.4,74.6,30.13,WSW,248,0.0,0.0,94,0.00,,---,0.00,VWS V14.01,2013-07-18 09:48:00,
2013-07-18 05:49:00,76.4,74.6,30.13,WSW,249,0.0,0.0,94,0.00,,---,0.00,VWS V14.01,2013-07-18 09:49:00,
2013-07-18 05:50:00,76.4,74.6,30.13,WSW,249,0.0,0.0,94,0.00,,---,0.00,VWS V14.01,2013-07-18 09:50:00,
2013-07-18 05:51:00,76.4,74.6,30.13,WSW,249,0.0,0.0,94,0.00,,---,0.00,VWS V14.01,2013-07-18 09:51:00,
2013-07-18 05:52:00,76.4,74.6,30.13,WSW,249,0.0,0.0,94,0.00,,---,0.00,VWS V14.01,2013-07-18 09:52:00,
2013-07-18 05:53:00,76.4,74.6,30.14,WSW,248,0.0,0.0,94,0.00,,---,0.00,VWS V14.01,2013-07-18 09:53:00,
2013-07-18 05:54:00,76.4,74.6,30.14,WSW,248,0.0,0.0,94,0.00,,---,0.00,VWS V14.01,2013-07-18 09:54:00,
2013-07-18 05:55:00,76.4,74.6,30.14,WSW,249,0.0,0.0,94,0.00,,---,0.00,VWS V14.01,2013-07-18 09:55:00,
2013-07-18 05:56:00,76.4,74.6,30.14,WSW,249,0.0,0.0,94,0.00,,---,0.00,VWS V14.01,2013-07-18 09:56:00,
2013-07-18 05:57:00,76.4,74.6,30.14,WSW,249,0.0,1.0,94,0.00,,---,0.00,VWS V14.01,2013-07-18 09:57:00,
2013-07-18 05:58:00,76.5,74.7,30.14,WSW,249,0.0,0.0,94,0.00,,---,0.00,VWS V14.01,2013-07-18 09:58:00,
2013-07-18 05:59:00,76.5,74.7,30.14,WSW,248,0.0,0.0,94,0.00,,---,0.00,VWS V14.01,2013-07-18 09:59:00,
2013-07-18 06:00:00,76.5,74.7,30.14,WSW,249,1.0,1.0,94,0.00,,---,0.00,VWS V14.01,2013-07-18 10:00:00,
2013-07-18 06:01:00,76.5,74.7,30.14,WSW,249,1.0,1.0,94,0.00,,---,0.00,VWS V14.01,2013-07-18 10:01:00,
2013-07-18 06:02:00,76.5,74.7,30.14,East,91,2.0,2.0,94,0.00,,---,0.00,VWS V14.01,2013-07-18 10:02:00,
2013-07-18 06:03:00,76.5,74.7,30.14,East,91,3.0,3.0,94,0.00,,---,0.00,VWS V14.01,2013-07-18 10:03:00,
2013-07-18 06:04:00,76.5,74.7,30.14,East,84,5.0,5.0,94,0.00,,---,0.00,VWS V14.01,2013-07-18 10:04:00,
2013-07-18 06:05:00,76.5,74.7,30.14,East,84,3.0,3.0,94,0.00,,---,0.00,VWS V14.01,2013-07-18 10:05:00,
2013-07-18 06:06:00,76.5,74.7,30.14,East,79,3.0,3.0,94,0.00,,---,0.00,VWS V14.01,2013-07-18 10:06:00,
2013-07-18 06:07:00,76.5,74.7,30.14,East,83,2.0,5.0,94,0.00,,---,0.00,VWS V14.01,2013-07-18 10:07:00,
2013-07-18 06:08:00,76.4,74.6,30.14,East,85,2.0,3.0,94,0.00,,---,0.00,VWS V14.01,2013-07-18 10:08:00,
2013-07-18 06:09:00,76.4,74.6,30.14,East,98,2.0,2.0,94,0.00,,---,0.00,VWS V14.01,2013-07-18 10:09:00,
2013-07-18 06:10:00,76.4,74.6,30.14,East,92,2.0,2.0,94,0.00,,---,0.00,VWS V14.01,2013-07-18 10:10:00,
2013-07-18 06:11:00,76.4,74.6,30.14,ESE,103,2.0,2.0,94,0.00,,---,0.00,VWS V14.01,2013-07-18 10:11:00,
2013-07-18 06:12:00,76.4,74.6,30.14,East,100,2.0,2.0,94,0.00,,---,0.00,VWS V14.01,2013-07-18 10:12:00,
2013-07-18 06:13:00,76.3,74.4,30.14,East,95,2.0,2.0,94,0.00,,---,0.00,VWS V14.01,2013-07-18 10:13:00,
2013-07-18 06:14:00,76.3,74.4,30.14,East,86,1.0,2.0,94,0.00,,---,0.00,VWS V14.01,2013-07-18 10:14:00,
2013-07-18 06:15:00,76.3,74.4,30.14,East,86,2.0,2.0,94,0.00,,---,0.00,VWS V14.01,2013-07-18 10:15:00,
2013-07-18 06:16:00,76.3,74.4,30.14,East,86,1.0,2.0,94,0.00,,---,0.00,VWS V14.01,2013-07-18 10:16:00,
2013-07-18 06:17:00,76.3,74.4,30.15,East,94,1.0,1.0,94,0.00,,---,0.00,VWS V14.01,2013-07-18 10:17:00,
2013-07-18 06:18:00,76.3,74.4,30.14,East,94,1.0,1.0,94,0.00,,---,0.00,VWS V14.01,2013-07-18 10:18:00,
2013-07-18 06:19:00,76.3,74.4,30.15,East,94,0.0,1.0,94,0.00,,---,0.00,VWS V14.01,2013-07-18 10:19:00,
2013-07-18 06:20:00,76.3,74.4,30.15,East,94,0.0,1.0,94,0.00,,---,0.00,VWS V14.01,2013-07-18 10:20:00,
2013-07-18 06:21:00,76.3,74.4,30.15,East,94,1.0,1.0,94,0.00,,---,0.00,VWS V14.01,2013-07-18 10:21:00,
2013-07-18 06:22:00,76.3,74.4,30.15,East,94,1.0,1.0,94,0.00,,---,0.00,VWS V14.01,2013-07-18 10:22:00,
2013-07-18 06:23:00,76.3,74.4,30.15,East,94,1.0,1.0,94,0.00,,---,0.00,VWS V14.01,2013-07-18 10:23:00,
2013-07-18 06:24:00,76.2,74.3,30.15,East,94,1.0,1.0,94,0.00,,---,0.00,VWS V14.01,2013-07-18 10:24:00,
2013-07-18 06:25:00,76.2,74.3,30.15,East,94,1.0,1.0,94,0.00,,---,0.00,VWS V14.01,2013-07-18 10:25:00,
2013-07-18 06:26:00,76.2,74.3,30.15,East,94,1.0,1.0,94,0.00,,---,0.00,VWS V14.01,2013-07-18 10:26:00,
2013-07-18 06:27:00,76.2,74.3,30.15,East,94,0.0,1.0,94,0.00,,---,0.00,VWS V14.01,2013-07-18 10:27:00,
2013-07-18 06:28:00,76.2,74.3,30.15,East,94,0.0,0.0,94,0.00,,---,0.00,VWS V14.01,2013-07-18 10:28:00,
2013-07-18 06:29:00,76.2,74.3,30.15,East,94,0.0,0.0,94,0.00,,---,0.00,VWS V14.01,2013-07-18 10:29:00,
2013-07-18 06:30:00,76.2,74.3,30.15,East,94,0.0,0.0,94,0.00,,---,0.00,VWS V14.01,2013-07-18 10:30:00,
2013-07-18 06:31:00,76.2,74.3,30.15,East,94,0.0,0.0,94,0.00,,---,0.00,VWS V14.01,2013-07-18 10:31:00,
2013-07-18 06:32:00,76.2,74.3,30.15,East,94,0.0,0.0,94,0.00,,---,0.00,VWS V14.01,2013-07-18 10:32:00,
2013-07-18 06:33:00,76.2,74.3,30.15,East,94,0.0,0.0,94,0.00,,---,0.00,VWS V14.01,2013-07-18 10:33:00,
2013-07-18 06:34:00,76.2,74.3,30.15,East,94,0.0,0.0,94,0.00,,---,0.00,VWS V14.01,2013-07-18 10:34:00,
2013-07-18 06:35:00,76.2,74.3,30.15,East,94,0.0,0.0,94,0.00,,---,0.00,VWS V14.01,2013-07-18 10:35:00,
2013-07-18 06:36:00,76.2,74.3,30.15,East,94,0.0,0.0,94,0.00,,---,0.00,VWS V14.01,2013-07-18 10:36:00,
2013-07-18 06:37:00,76.2,74.3,30.15,East,94,0.0,0.0,94,0.00,,---,0.00,VWS V14.01,2013-07-18 10:37:00,
2013-07-18 06:38:00,76.2,74.3,30.15,East,94,0.0,0.0,94,0.00,,---,0.00,VWS V14.01,2013-07-18 10:38:00,
2013-07-18 06:39:00,76.2,74.3,30.15,East,94,0.0,0.0,94,0.00,,---,0.00,VWS V14.01,2013-07-18 10:39:00,
2013-07-18 06:40:00,76.2,74.3,30.15,East,94,0.0,0.0,94,0.00,,---,0.00,VWS V14.01,2013-07-18 10:40:00,
2013-07-18 06:41:00,76.2,74.3,30.15,East,94,0.0,0.0,94,0.00,,---,0.00,VWS V14.01,2013-07-18 10:41:00,
2013-07-18 06:42:00,76.2,74.3,30.15,East,94,0.0,0.0,94,0.00,,---,0.00,VWS V14.01,2013-07-18 10:42:00,
2013-07-18 06:43:00,76.2,74.3,30.15,East,94,0.0,0.0,94,0.00,,---,0.00,VWS V14.01,2013-07-18 10:43:00,
2013-07-18 06:44:00,76.3,74.4,30.15,East,94,0.0,0.0,94,0.00,,---,0.00,VWS V14.01,2013-07-18 10:44:00,
2013-07-18 06:45:00,76.3,74.4,30.15,East,94,0.0,0.0,94,0.00,,---,0.00,VWS V14.01,2013-07-18 10:45:00,
2013-07-18 06:46:00,76.3,74.4,30.15,SSE,163,0.0,0.0,94,0.00,,---,0.00,VWS V14.01,2013-07-18 10:46:00,
2013-07-18 06:47:00,76.3,74.4,30.15,SSE,163,0.0,0.0,94,0.00,,---,0.00,VWS V14.01,2013-07-18 10:47:00,
2013-07-18 06:48:00,76.3,74.4,30.15,SSE,163,0.0,0.0,94,0.00,,---,0.00,VWS V14.01,2013-07-18 10:48:00,
2013-07-18 06:49:00,76.3,74.4,30.15,SSE,163,0.0,0.0,94,0.00,,---,0.00,VWS V14.01,2013-07-18 10:49:00,
2013-07-18 06:50:00,76.3,74.4,30.15,SSE,163,0.0,0.0,94,0.00,,---,0.00,VWS V14.01,2013-07-18 10:50:00,
2013-07-18 06:51:00,76.3,74.4,30.15,SSE,163,0.0,0.0,94,0.00,,---,0.00,VWS V14.01,2013-07-18 10:51:00,
2013-07-18 06:52:00,76.3,74.4,30.15,SSE,163,0.0,0.0,94,0.00,,---,0.00,VWS V14.01,2013-07-18 10:52:00,
2013-07-18 06:53:00,76.3,74.4,30.15,SSE,163,0.0,0.0,94,0.00,,---,0.00,VWS V14.01,2013-07-18 10:53:00,
2013-07-18 06:54:00,76.3,74.4,30.15,South,181,0.0,0.0,94,0.00,,---,0.00,VWS V14.01,2013-07-18 10:54:00,
2013-07-18 06:55:00,76.3,74.4,30.15,South,184,0.0,0.0,94,0.00,,---,0.00,VWS V14.01,2013-07-18 10:55:00,
2013-07-18 06:56:00,76.3,74.4,30.15,South,183,0.0,0.0,94,0.00,,---,0.00,VWS V14.01,2013-07-18 10:56:00,
2013-07-18 06:57:00,76.3,74.4,30.15,South,183,0.0,0.0,94,0.00,,---,0.00,VWS V14.01,2013-07-18 10:57:00,
2013-07-18 06:58:00,76.3,74.4,30.15,South,183,0.0,0.0,94,0.00,,---,0.00,VWS V14.01,2013-07-18 10:58:00,
2013-07-18 06:59:00,76.3,74.4,30.15,South,186,0.0,0.0,94,0.00,,---,0.00,VWS V14.01,2013-07-18 10:59:00,
2013-07-18 07:00:00,76.4,74.6,30.15,South,186,0.0,0.0,94,0.00,,---,0.00,VWS V14.01,2013-07-18 11:00:00,
2013-07-18 07:01:00,76.4,74.6,30.15,South,186,0.0,0.0,94,0.00,,---,0.00,VWS V14.01,2013-07-18 11:01:00,
2013-07-18 07:02:00,76.4,74.6,30.15,South,186,0.0,0.0,94,0.00,,---,0.00,VWS V14.01,2013-07-18 11:02:00,
2013-07-18 07:03:00,76.4,74.6,30.15,South,186,0.0,0.0,94,0.00,,---,0.00,VWS V14.01,2013-07-18 11:03:00,
2013-07-18 07:04:00,76.4,74.6,30.15,South,186,0.0,0.0,94,0.00,,---,0.00,VWS V14.01,2013-07-18 11:04:00,
2013-07-18 07:05:00,76.4,74.6,30.15,SW,226,0.0,0.0,94,0.00,,---,0.00,VWS V14.01,2013-07-18 11:05:00,
2013-07-18 07:06:00,76.4,74.6,30.15,WSW,250,0.0,0.0,94,0.00,,---,0.00,VWS V14.01,2013-07-18 11:06:00,
2013-07-18 07:07:00,76.4,74.6,30.15,SW,219,0.0,0.0,94,0.00,,---,0.00,VWS V14.01,2013-07-18 11:07:00,
2013-07-18 07:08:00,76.4,74.6,30.15,SW,219,0.0,0.0,94,0.00,,---,0.00,VWS V14.01,2013-07-18 11:08:00,
2013-07-18 07:09:00,76.4,74.6,30.15,SSW,213,0.0,0.0,94,0.00,,---,0.00,VWS V14.01,2013-07-18 11:09:00,
2013-07-18 07:10:00,76.5,74.7,30.15,SW,230,1.0,1.0,94,0.00,,---,0.00,VWS V14.01,2013-07-18 11:10:00,
2013-07-18 07:11:00,76.4,74.6,30.15,SW,229,1.0,2.0,94,0.00,,---,0.00,VWS V14.01,2013-07-18 11:11:00,
2013-07-18 07:12:00,76.4,74.6,30.15,SW,227,1.0,2.0,94,0.00,,---,0.00,VWS V14.01,2013-07-18 11:12:00,
2013-07-18 07:13:00,76.4,74.6,30.15,WSW,245,1.0,1.0,94,0.00,,---,0.00,VWS V14.01,2013-07-18 11:13:00,
2013-07-18 07:14:00,76.4,74.6,30.15,WSW,246,1.0,1.0,94,0.00,,---,0.00,VWS V14.01,2013-07-18 11:14:00,
2013-07-18 07:15:00,76.5,74.7,30.15,WSW,245,0.0,0.0,94,0.00,,---,0.00,VWS V14.01,2013-07-18 11:15:00,
2013-07-18 07:16:00,76.5,74.7,30.15,WSW,257,1.0,1.0,94,0.00,,---,0.00,VWS V14.01,2013-07-18 11:16:00,
2013-07-18 07:17:00,76.5,74.7,30.15,WSW,257,1.0,1.0,94,0.00,,---,0.00,VWS V14.01,2013-07-18 11:17:00,
2013-07-18 07:18:00,76.5,74.7,30.15,SW,221,1.0,2.0,94,0.00,,---,0.00,VWS V14.01,2013-07-18 11:18:00,
2013-07-18 07:19:00,76.5,74.7,30.15,SW,221,1.0,1.0,94,0.00,,---,0.00,VWS V14.01,2013-07-18 11:19:00,
2013-07-18 07:20:00,76.5,74.7,30.15,SW,221,0.0,1.0,94,0.00,,---,0.00,VWS V14.01,2013-07-18 11:20:00,
2013-07-18 07:21:00,76.6,74.8,30.15,SW,221,0.0,1.0,94,0.00,,---,0.00,VWS V14.01,2013-07-18 11:21:00,
2013-07-18 07:22:00,76.6,74.8,30.15,WSW,253,0.0,0.0,94,0.00,,---,0.00,VWS V14.01,2013-07-18 11:22:00,
2013-07-18 07:23:00,76.6,74.8,30.15,West,271,2.0,2.0,94,0.00,,---,0.00,VWS V14.01,2013-07-18 11:23:00,
2013-07-18 07:24:00,76.6,74.8,30.15,West,263,2.0,2.0,94,0.00,,---,0.00,VWS V14.01,2013-07-18 11:24:00,
2013-07-18 07:25:00,76.6,74.8,30.15,West,268,1.0,2.0,94,0.00,,---,0.00,VWS V14.01,2013-07-18 11:25:00,
2013-07-18 07:26:00,76.6,74.8,30.15,WSW,240,0.0,2.0,94,0.00,,---,0.00,VWS V14.01,2013-07-18 11:26:00,
2013-07-18 07:27:00,76.7,74.8,30.15,SW,236,2.0,2.0,94,0.00,,---,0.00,VWS V14.01,2013-07-18 11:27:00,
2013-07-18 07:28:00,76.7,74.8,30.15,West,259,0.0,2.0,94,0.00,,---,0.00,VWS V14.01,2013-07-18 11:28:00,
2013-07-18 07:29:00,76.7,74.8,30.15,SW,225,2.0,2.0,94,0.00,,---,0.00,VWS V14.01,2013-07-18 11:29:00,
2013-07-18 07:30:00,76.7,74.8,30.15,SW,223,0.0,2.0,94,0.00,,---,0.00,VWS V14.01,2013-07-18 11:30:00,
2013-07-18 07:31:00,76.8,74.9,30.15,SW,225,0.0,0.0,94,0.00,,---,0.00,VWS V14.01,2013-07-18 11:31:00,
2013-07-18 07:32:00,76.8,74.9,30.15,West,265,1.0,1.0,94,0.00,,---,0.00,VWS V14.01,2013-07-18 11:32:00,
2013-07-18 07:33:00,76.8,74.9,30.15,WSW,246,2.0,3.0,94,0.00,,---,0.00,VWS V14.01,2013-07-18 11:33:00,
2013-07-18 07:34:00,76.8,74.9,30.15,SW,222,2.0,2.0,94,0.00,,---,0.00,VWS V14.01,2013-07-18 11:34:00,
2013-07-18 07:35:00,76.8,74.9,30.15,SW,222,0.0,2.0,94,0.00,,---,0.00,VWS V14.01,2013-07-18 11:35:00,
2013-07-18 07:36:00,76.8,74.9,30.15,SW,222,1.0,1.0,94,0.00,,---,0.00,VWS V14.01,2013-07-18 11:36:00,
2013-07-18 07:37:00,76.8,74.9,30.15,SW,223,1.0,1.0,94,0.00,,---,0.00,VWS V14.01,2013-07-18 11:37:00,
2013-07-18 07:38:00,76.9,75.1,30.15,WSW,245,2.0,3.0,94,0.00,,---,0.00,VWS V14.01,2013-07-18 11:38:00,
2013-07-18 07:39:00,76.9,75.1,30.15,SW,221,2.0,2.0,94,0.00,,---,0.00,VWS V14.01,2013-07-18 11:39:00,
2013-07-18 07:40:00,76.9,75.1,30.15,SSW,209,1.0,1.0,94,0.00,,---,0.00,VWS V14.01,2013-07-18 11:40:00,
2013-07-18 07:41:00,76.9,75.1,30.15,WSW,250,0.0,1.0,94,0.00,,---,0.00,VWS V14.01,2013-07-18 11:41:00,
2013-07-18 07:42:00,77.0,75.1,30.15,WSW,248,1.0,1.0,94,0.00,,---,0.00,VWS V14.01,2013-07-18 11:42:00,
2013-07-18 07:43:00,77.0,75.1,30.15,WSW,252,2.0,2.0,94,0.00,,---,0.00,VWS V14.01,2013-07-18 11:43:00,
2013-07-18 07:44:00,77.0,74.8,30.15,SW,232,1.0,2.0,93,0.00,,---,0.00,VWS V14.01,2013-07-18 11:44:00,
2013-07-18 07:45:00,77.0,75.1,30.15,SW,221,1.0,2.0,94,0.00,,---,0.00,VWS V14.01,2013-07-18 11:45:00,
2013-07-18 07:46:00,77.0,75.1,30.15,SW,225,1.0,2.0,94,0.00,,---,0.00,VWS V14.01,2013-07-18 11:46:00,
2013-07-18 07:47:00,77.0,75.1,30.15,SW,217,1.0,1.0,94,0.00,,---,0.00,VWS V14.01,2013-07-18 11:47:00,
2013-07-18 07:48:00,77.1,75.2,30.15,SW,217,0.0,1.0,94,0.00,,---,0.00,VWS V14.01,2013-07-18 11:48:00,
2013-07-18 07:49:00,77.1,75.2,30.15,SW,217,1.0,1.0,94,0.00,,---,0.00,VWS V14.01,2013-07-18 11:49:00,
2013-07-18 07:50:00,77.2,75.3,30.15,SW,217,2.0,2.0,94,0.00,,---,0.00,VWS V14.01,2013-07-18 11:50:00,
2013-07-18 07:51:00,77.2,75.0,30.15,SW,230,0.0,2.0,93,0.00,,---,0.00,VWS V14.01,2013-07-18 11:51:00,
2013-07-18 07:52:00,77.2,75.0,30.15,SW,230,0.0,0.0,93,0.00,,---,0.00,VWS V14.01,2013-07-18 11:52:00,
2013-07-18 07:53:00,77.3,75.4,30.15,SW,230,0.0,0.0,94,0.00,,---,0.00,VWS V14.01,2013-07-18 11:53:00,
2013-07-18 07:54:00,77.3,75.4,30.15,WSW,245,0.0,0.0,94,0.00,,---,0.00,VWS V14.01,2013-07-18 11:54:00,
2013-07-18 07:55:00,77.4,75.2,30.16,West,269,1.0,1.0,93,0.00,,---,0.00,VWS V14.01,2013-07-18 11:55:00,
2013-07-18 07:56:00,77.5,75.3,30.16,WSW,245,3.0,3.0,93,0.00,,---,0.00,VWS V14.01,2013-07-18 11:56:00,
2013-07-18 07:57:00,77.5,75.3,30.16,SSW,206,2.0,4.0,93,0.00,,---,0.00,VWS V14.01,2013-07-18 11:57:00,
2013-07-18 07:58:00,77.5,75.3,30.16,WNW,292,1.0,2.0,93,0.00,,---,0.00,VWS V14.01,2013-07-18 11:58:00,
2013-07-18 07:59:00,77.5,75.3,30.16,WSW,241,1.0,3.0,93,0.00,,---,0.00,VWS V14.01,2013-07-18 11:59:00,
2013-07-18 08:00:00,77.5,75.3,30.16,SW,215,1.0,2.0,93,0.00,,---,0.00,VWS V14.01,2013-07-18 12:00:00,
2013-07-18 08:01:00,77.5,75.3,30.16,WSW,245,0.0,2.0,93,0.00,,---,0.00,VWS V14.01,2013-07-18 12:01:00,
2013-07-18 08:02:00,77.5,75.3,30.16,WNW,284,2.0,2.0,93,0.00,,---,0.00,VWS V14.01,2013-07-18 12:02:00,
2013-07-18 08:03:00,77.5,75.3,30.16,West,271,0.0,2.0,93,0.00,,---,0.00,VWS V14.01,2013-07-18 12:03:00,
2013-07-18 08:04:00,77.6,75.4,30.16,West,271,1.0,1.0,93,0.00,,---,0.00,VWS V14.01,2013-07-18 12:04:00,
2013-07-18 08:05:00,77.6,75.4,30.16,WSW,257,1.0,1.0,93,0.00,,---,0.00,VWS V14.01,2013-07-18 12:05:00,
2013-07-18 08:06:00,77.7,75.5,30.16,West,275,1.0,2.0,93,0.00,,---,0.00,VWS V14.01,2013-07-18 12:06:00,
2013-07-18 08:07:00,77.7,75.5,30.16,West,272,1.0,1.0,93,0.00,,---,0.00,VWS V14.01,2013-07-18 12:07:00,
2013-07-18 08:08:00,77.8,75.6,30.16,WSW,253,2.0,3.0,93,0.00,,---,0.00,VWS V14.01,2013-07-18 12:08:00,
2013-07-18 08:09:00,77.8,75.6,30.15,WNW,284,2.0,2.0,93,0.00,,---,0.00,VWS V14.01,2013-07-18 12:09:00,
2013-07-18 08:10:00,77.9,75.7,30.15,WNW,284,0.0,2.0,93,0.00,,---,0.00,VWS V14.01,2013-07-18 12:10:00,
2013-07-18 08:11:00,77.9,75.7,30.16,West,275,1.0,2.0,93,0.00,,---,0.00,VWS V14.01,2013-07-18 12:11:00,
2013-07-18 08:12:00,77.9,75.7,30.15,West,280,2.0,3.0,93,0.00,,---,0.00,VWS V14.01,2013-07-18 12:12:00,
2013-07-18 08:13:00,77.9,75.4,30.15,West,279,3.0,3.0,92,0.00,,---,0.00,VWS V14.01,2013-07-18 12:13:00,
2013-07-18 08:14:00,78.0,75.5,30.16,West,261,1.0,4.0,92,0.00,,---,0.00,VWS V14.01,2013-07-18 12:14:00,
2013-07-18 08:15:00,78.0,75.5,30.15,West,261,0.0,1.0,92,0.00,,---,0.00,VWS V14.01,2013-07-18 12:15:00,
2013-07-18 08:16:00,78.0,75.5,30.15,West,269,2.0,2.0,92,0.00,,---,0.00,VWS V14.01,2013-07-18 12:16:00,
2013-07-18 08:17:00,78.0,75.5,30.15,West,280,1.0,2.0,92,0.00,,---,0.00,VWS V14.01,2013-07-18 12:17:00,
2013-07-18 08:18:00,78.1,75.6,30.15,West,280,0.0,1.0,92,0.00,,---,0.00,VWS V14.01,2013-07-18 12:18:00,
2013-07-18 08:19:00,78.1,75.6,30.15,WSW,242,0.0,1.0,92,0.00,,---,0.00,VWS V14.01,2013-07-18 12:19:00,
2013-07-18 08:20:00,78.2,75.7,30.15,West,273,3.0,3.0,92,0.00,,---,0.00,VWS V14.01,2013-07-18 12:20:00,
2013-07-18 08:21:00,78.2,75.7,30.16,West,264,1.0,3.0,92,0.00,,---,0.00,VWS V14.01,2013-07-18 12:21:00,
2013-07-18 08:22:00,78.3,75.8,30.15,West,280,2.0,2.0,92,0.00,,---,0.00,VWS V14.01,2013-07-18 12:22:00,
2013-07-18 08:23:00,78.3,75.8,30.15,West,280,1.0,2.0,92,0.00,,---,0.00,VWS V14.01,2013-07-18 12:23:00,
2013-07-18 08:24:00,78.3,75.8,30.16,West,280,1.0,1.0,92,0.00,,---,0.00,VWS V14.01,2013-07-18 12:24:00,
2013-07-18 08:25:00,78.4,75.9,30.16,West,280,0.0,1.0,92,0.00,,---,0.00,VWS V14.01,2013-07-18 12:25:00,
2013-07-18 08:26:00,78.4,75.9,30.16,West,280,1.0,1.0,92,0.00,,---,0.00,VWS V14.01,2013-07-18 12:26:00,
2013-07-18 08:27:00,78.5,76.0,30.16,West,280,0.0,1.0,92,0.00,,---,0.00,VWS V14.01,2013-07-18 12:27:00,
2013-07-18 08:28:00,78.5,76.0,30.15,West,280,1.0,1.0,92,0.00,,---,0.00,VWS V14.01,2013-07-18 12:28:00,
2013-07-18 08:29:00,78.6,76.1,30.15,WNW,283,1.0,2.0,92,0.00,,---,0.00,VWS V14.01,2013-07-18 12:29:00,
2013-07-18 08:30:00,78.6,76.1,30.15,West,281,1.0,1.0,92,0.00,,---,0.00,VWS V14.01,2013-07-18 12:30:00,
2013-07-18 08:31:00,78.7,76.2,30.15,SW,223,0.0,2.0,92,0.00,,---,0.00,VWS V14.01,2013-07-18 12:31:00,
2013-07-18 08:32:00,78.8,76.3,30.15,SW,223,0.0,0.0,92,0.00,,---,0.00,VWS V14.01,2013-07-18 12:32:00,
2013-07-18 08:33:00,78.9,76.4,30.15,SW,223,1.0,1.0,92,0.00,,---,0.00,VWS V14.01,2013-07-18 12:33:00,
2013-07-18 08:34:00,79.0,76.5,30.15,WSW,257,1.0,1.0,92,0.00,,---,0.00,VWS V14.01,2013-07-18 12:34:00,
2013-07-18 08:35:00,79.0,76.2,30.15,West,259,1.0,2.0,91,0.00,,---,0.00,VWS V14.01,2013-07-18 12:35:00,
2013-07-18 08:36:00,79.1,76.2,30.15,West,268,1.0,1.0,91,0.00,,---,0.00,VWS V14.01,2013-07-18 12:36:00,
2013-07-18 08:37:00,79.1,76.2,30.15,West,267,1.0,1.0,91,0.00,,---,0.00,VWS V14.01,2013-07-18 12:37:00,
2013-07-18 08:38:00,79.2,76.3,30.15,WNW,282,1.0,2.0,91,0.00,,---,0.00,VWS V14.01,2013-07-18 12:38:00,
2013-07-18 08:39:00,79.2,76.3,30.15,WNW,283,0.0,1.0,91,0.00,,---,0.00,VWS V14.01,2013-07-18 12:39:00,
2013-07-18 08:40:00,79.3,76.1,30.15,WNW,282,1.0,2.0,90,0.00,,---,0.00,VWS V14.01,2013-07-18 12:40:00,
2013-07-18 08:41:00,79.4,76.2,30.15,WNW,282,1.0,1.0,90,0.00,,---,0.00,VWS V14.01,2013-07-18 12:41:00,
2013-07-18 08:42:00,79.4,76.2,30.15,West,261,1.0,1.0,90,0.00,,---,0.00,VWS V14.01,2013-07-18 12:42:00,
2013-07-18 08:43:00,79.4,76.2,30.15,West,261,0.0,1.0,90,0.00,,---,0.00,VWS V14.01,2013-07-18 12:43:00,
2013-07-18 08:44:00,79.5,76.3,30.15,WSW,253,1.0,1.0,90,0.00,,---,0.00,VWS V14.01,2013-07-18 12:44:00,
2013-07-18 08:45:00,79.6,76.4,30.15,WSW,250,1.0,1.0,90,0.00,,---,0.00,VWS V14.01,2013-07-18 12:45:00,
2013-07-18 08:46:00,79.6,76.4,30.16,West,267,2.0,2.0,90,0.00,,---,0.00,VWS V14.01,2013-07-18 12:46:00,
2013-07-18 08:47:00,79.7,76.2,30.16,West,269,2.0,2.0,89,0.00,,---,0.00,VWS V14.01,2013-07-18 12:47:00,
2013-07-18 08:48:00,79.7,76.2,30.15,WSW,240,0.0,2.0,89,0.00,,---,0.00,VWS V14.01,2013-07-18 12:48:00,
2013-07-18 08:49:00,79.8,76.3,30.15,WSW,239,0.0,0.0,89,0.00,,---,0.00,VWS V14.01,2013-07-18 12:49:00,
2013-07-18 08:50:00,79.9,76.4,30.16,WSW,240,0.0,0.0,89,0.00,,---,0.00,VWS V14.01,2013-07-18 12:50:00,
2013-07-18 08:51:00,80.0,76.5,30.15,WSW,240,0.0,0.0,89,0.00,,---,0.00,VWS V14.01,2013-07-18 12:51:00,
2013-07-18 08:52:00,80.1,76.6,30.15,SW,218,2.0,2.0,89,0.00,,---,0.00,VWS V14.01,2013-07-18 12:52:00,
2013-07-18 08:53:00,80.3,76.8,30.16,WSW,239,1.0,2.0,89,0.00,,---,0.00,VWS V14.01,2013-07-18 12:53:00,
2013-07-18 08:54:00,80.4,76.9,30.16,SSW,205,2.0,2.0,89,0.00,,---,0.00,VWS V14.01,2013-07-18 12:54:00,
2013-07-18 08:55:00,80.4,76.5,30.16,SSW,213,2.0,2.0,88,0.00,,---,0.00,VWS V14.01,2013-07-18 12:55:00,
2013-07-18 08:56:00,80.5,76.6,30.16,SSW,192,1.0,2.0,88,0.00,,---,0.00,VWS V14.01,2013-07-18 12:56:00,
2013-07-18 08:57:00,80.6,76.7,30.16,SSW,205,1.0,2.0,88,0.00,,---,0.00,VWS V14.01,2013-07-18 12:57:00,
2013-07-18 08:58:00,80.6,76.7,30.16,SW,233,2.0,2.0,88,0.00,,---,0.00,VWS V14.01,2013-07-18 12:58:00,
2013-07-18 08:59:00,80.7,76.5,30.15,SW,227,1.0,2.0,87,0.00,,---,0.00,VWS V14.01,2013-07-18 12:59:00,
2013-07-18 09:00:00,80.7,76.5,30.15,West,263,1.0,1.0,87,0.00,,---,0.00,VWS V14.01,2013-07-18 13:00:00,
2013-07-18 09:01:00,80.8,76.6,30.15,West,268,1.0,2.0,87,0.00,,---,0.00,VWS V14.01,2013-07-18 13:01:00,
2013-07-18 09:02:00,80.8,76.6,30.16,West,269,1.0,1.0,87,0.00,,---,0.00,VWS V14.01,2013-07-18 13:02:00,
2013-07-18 09:03:00,80.8,76.6,30.15,West,269,1.0,1.0,87,0.00,,---,0.00,VWS V14.01,2013-07-18 13:03:00,
2013-07-18 09:04:00,80.9,76.7,30.15,West,269,1.0,2.0,87,0.00,,---,0.00,VWS V14.01,2013-07-18 13:04:00,
2013-07-18 09:05:00,80.9,76.7,30.15,West,269,1.0,1.0,87,0.00,,---,0.00,VWS V14.01,2013-07-18 13:05:00,
2013-07-18 09:06:00,80.9,76.7,30.15,West,269,1.0,1.0,87,0.00,,---,0.00,VWS V14.01,2013-07-18 13:06:00,
2013-07-18 09:07:00,81.0,76.8,30.15,WSW,257,1.0,2.0,87,0.00,,---,0.00,VWS V14.01,2013-07-18 13:07:00,
2013-07-18 09:08:00,81.0,76.4,30.15,WSW,256,0.0,1.0,86,0.00,,---,0.00,VWS V14.01,2013-07-18 13:08:00,
2013-07-18 09:09:00,81.1,76.9,30.15,WSW,256,0.0,0.0,87,0.00,,---,0.00,VWS V14.01,2013-07-18 13:09:00,
2013-07-18 09:10:00,81.2,77.0,30.15,WSW,256,0.0,0.0,87,0.00,,---,0.00,VWS V14.01,2013-07-18 13:10:00,
2013-07-18 09:11:00,81.4,77.2,30.15,WSW,256,1.0,1.0,87,0.00,,---,0.00,VWS V14.01,2013-07-18 13:11:00,
2013-07-18 09:12:00,81.5,76.9,30.15,West,275,2.0,2.0,86,0.00,,---,0.00,VWS V14.01,2013-07-18 13:12:00,
2013-07-18 09:13:00,81.6,77.0,30.15,SW,229,2.0,3.0,86,0.00,,---,0.00,VWS V14.01,2013-07-18 13:13:00,
2013-07-18 09:14:00,81.7,77.1,30.15,SW,223,2.0,2.0,86,0.00,,---,0.00,VWS V14.01,2013-07-18 13:14:00,
2013-07-18 09:15:00,81.7,77.1,30.15,SW,223,1.0,2.0,86,0.00,,---,0.00,VWS V14.01,2013-07-18 13:15:00,
2013-07-18 09:16:00,81.8,76.8,30.15,SW,217,1.0,2.0,85,0.00,,---,0.00,VWS V14.01,2013-07-18 13:16:00,
2013-07-18 09:17:00,81.9,76.9,30.15,WSW,245,2.0,2.0,85,0.00,,---,0.00,VWS V14.01,2013-07-18 13:17:00,
2013-07-18 09:18:00,81.9,76.9,30.15,SW,232,1.0,2.0,85,0.00,,---,0.00,VWS V14.01,2013-07-18 13:18:00,
2013-07-18 09:19:00,82.1,76.8,30.15,SSW,200,2.0,2.0,84,0.00,,---,0.00,VWS V14.01,2013-07-18 13:19:00,
2013-07-18 09:20:00,82.1,76.8,30.15,SSW,209,1.0,2.0,84,0.00,,---,0.00,VWS V14.01,2013-07-18 13:20:00,
2013-07-18 09:21:00,82.1,76.8,30.15,West,263,0.0,2.0,84,0.00,,---,0.00,VWS V14.01,2013-07-18 13:21:00,
2013-07-18 09:22:00,82.3,76.6,30.15,West,272,2.0,2.0,83,0.00,,---,0.00,VWS V14.01,2013-07-18 13:22:00,
2013-07-18 09:23:00,82.3,76.6,30.15,West,272,1.0,2.0,83,0.00,,---,0.00,VWS V14.01,2013-07-18 13:23:00,
2013-07-18 09:24:00,82.4,76.7,30.15,West,274,1.0,2.0,83,0.00,,---,0.00,VWS V14.01,2013-07-18 13:24:00,
2013-07-18 09:25:00,82.4,76.7,30.15,West,275,1.0,2.0,83,0.00,,---,0.00,VWS V14.01,2013-07-18 13:25:00,
2013-07-18 09:26:00,82.4,76.7,30.15,SW,225,1.0,2.0,83,0.00,,---,0.00,VWS V14.01,2013-07-18 13:26:00,
2013-07-18 09:27:00,82.5,76.8,30.15,WSW,244,2.0,2.0,83,0.00,,---,0.00,VWS V14.01,2013-07-18 13:27:00,
2013-07-18 09:28:00,82.6,76.9,30.15,WNW,282,0.0,2.0,83,0.00,,---,0.00,VWS V14.01,2013-07-18 13:28:00,
2013-07-18 09:29:00,82.7,77.0,30.15,West,268,1.0,1.0,83,0.00,,---,0.00,VWS V14.01,2013-07-18 13:29:00,
2013-07-18 09:30:00,82.8,77.1,30.15,West,267,0.0,1.0,83,0.00,,---,0.00,VWS V14.01,2013-07-18 13:30:00,
2013-07-18 09:31:00,82.9,76.8,30.15,WNW,288,1.0,2.0,82,0.00,,---,0.00,VWS V14.01,2013-07-18 13:31:00,
2013-07-18 09:32:00,82.9,76.8,30.15,WNW,288,0.0,1.0,82,0.00,,---,0.00,VWS V14.01,2013-07-18 13:32:00,
2013-07-18 09:33:00,83.0,77.3,30.15,West,263,1.0,1.0,83,0.00,,---,0.00,VWS V14.01,2013-07-18 13:33:00,
2013-07-18 09:34:00,83.2,77.1,30.15,SW,226,0.0,1.0,82,0.00,,---,0.00,VWS V14.01,2013-07-18 13:34:00,
2013-07-18 09:35:00,83.3,77.2,30.15,SW,226,1.0,1.0,82,0.00,,---,0.00,VWS V14.01,2013-07-18 13:35:00,
2013-07-18 09:36:00,83.4,77.3,30.15,SW,224,1.0,1.0,82,0.00,,---,0.00,VWS V14.01,2013-07-18 13:36:00,
2013-07-18 09:37:00,83.5,77.4,30.15,SW,224,0.0,1.0,82,0.00,,---,0.00,VWS V14.01,2013-07-18 13:37:00,
2013-07-18 09:38:00,83.7,77.6,30.15,WSW,246,1.0,1.0,82,0.00,,---,0.00,VWS V14.01,2013-07-18 13:38:00,
2013-07-18 09:39:00,83.9,77.4,30.15,WSW,246,0.0,1.0,81,0.00,,---,0.00,VWS V14.01,2013-07-18 13:39:00,
2013-07-18 09:40:00,83.9,77.4,30.15,WSW,246,0.0,1.0,81,0.00,,---,0.00,VWS V14.01,2013-07-18 13:40:00,
2013-07-18 09:41:00,84.0,77.2,30.15,West,272,2.0,2.0,80,0.00,,---,0.00,VWS V14.01,2013-07-18 13:41:00,
2013-07-18 09:42:00,84.1,77.3,30.15,West,265,0.0,2.0,80,0.00,,---,0.00,VWS V14.01,2013-07-18 13:42:00,
2013-07-18 09:43:00,84.1,77.3,30.15,WSW,255,1.0,1.0,80,0.00,,---,0.00,VWS V14.01,2013-07-18 13:43:00,
2013-07-18 09:44:00,84.1,76.9,30.15,WNW,288,3.0,3.0,79,0.00,,---,0.00,VWS V14.01,2013-07-18 13:44:00,
2013-07-18 09:45:00,84.1,76.9,30.15,West,281,2.0,3.0,79,0.00,,---,0.00,VWS V14.01,2013-07-18 13:45:00,
2013-07-18 09:46:00,84.1,76.5,30.15,WNW,288,1.0,2.0,78,0.00,,---,0.00,VWS V14.01,2013-07-18 13:46:00,
2013-07-18 09:47:00,84.1,76.9,30.15,WNW,288,0.0,1.0,79,0.00,,---,0.00,VWS V14.01,2013-07-18 13:47:00,
2013-07-18 09:48:00,84.2,76.6,30.15,NW,314,3.0,3.0,78,0.00,,---,0.00,VWS V14.01,2013-07-18 13:48:00,
2013-07-18 09:49:00,84.2,76.2,30.15,WNW,299,0.0,1.0,77,0.00,,---,0.00,VWS V14.01,2013-07-18 13:49:00,
2013-07-18 09:50:00,84.2,76.2,30.15,NW,315,0.0,1.0,77,0.00,,---,0.00,VWS V14.01,2013-07-18 13:50:00,
2013-07-18 09:51:00,84.2,76.2,30.15,NW,315,0.0,2.0,77,0.00,,---,0.00,VWS V14.01,2013-07-18 13:51:00,
2013-07-18 09:52:00,84.3,76.3,30.15,NW,322,0.0,2.0,77,0.00,,---,0.00,VWS V14.01,2013-07-18 13:52:00,
2013-07-18 09:53:00,84.3,76.7,30.15,WNW,284,0.0,2.0,78,0.00,,---,0.00,VWS V14.01,2013-07-18 13:53:00,
2013-07-18 09:54:00,84.3,76.7,30.15,NW,314,0.0,1.0,78,0.00,,---,0.00,VWS V14.01,2013-07-18 13:54:00,
2013-07-18 09:55:00,84.3,76.7,30.15,NW,314,0.0,1.0,78,0.00,,---,0.00,VWS V14.01,2013-07-18 13:55:00,
2013-07-18 09:56:00,84.4,76.8,30.15,NW,314,0.0,0.0,78,0.00,,---,0.00,VWS V14.01,2013-07-18 13:56:00,
2013-07-18 09:57:00,84.4,76.8,30.15,West,275,3.0,3.0,78,0.00,,---,0.00,VWS V14.01,2013-07-18 13:57:00,
2013-07-18 09:58:00,84.4,76.4,30.15,West,274,1.0,4.0,77,0.00,,---,0.00,VWS V14.01,2013-07-18 13:58:00,
2013-07-18 09:59:00,84.4,76.8,30.15,West,272,0.0,0.0,78,0.00,,---,0.00,VWS V14.01,2013-07-18 13:59:00,
2013-07-18 10:00:00,84.4,76.8,30.15,WNW,286,1.0,1.0,78,0.00,,---,0.00,VWS V14.01,2013-07-18 14:00:00,
2013-07-18 10:01:00,84.5,76.9,30.15,WSW,258,3.0,3.0,78,0.00,,---,0.00,VWS V14.01,2013-07-18 14:01:00,
2013-07-18 10:02:00,84.5,76.5,30.15,West,268,3.0,4.0,77,0.00,,---,0.00,VWS V14.01,2013-07-18 14:02:00,
2013-07-18 10:03:00,84.5,77.3,30.15,WNW,288,2.0,4.0,79,0.00,,---,0.00,VWS V14.01,2013-07-18 14:03:00,
2013-07-18 10:04:00,84.5,76.9,30.15,WNW,292,2.0,3.0,78,0.00,,---,0.00,VWS V14.01,2013-07-18 14:04:00,
2013-07-18 10:05:00,84.5,77.3,30.15,WNW,299,3.0,3.0,79,0.00,,---,0.00,VWS V14.01,2013-07-18 14:05:00,
2013-07-18 10:06:00,84.4,77.2,30.15,West,273,3.0,3.0,79,0.00,,---,0.00,VWS V14.01,2013-07-18 14:06:00,
2013-07-18 10:07:00,84.5,77.7,30.15,West,260,2.0,4.0,80,0.00,,---,0.00,VWS V14.01,2013-07-18 14:07:00,
2013-07-18 10:08:00,84.5,77.3,30.15,WSW,245,0.0,4.0,79,0.00,,---,0.00,VWS V14.01,2013-07-18 14:08:00,
2013-07-18 10:09:00,84.5,77.3,30.15,West,277,1.0,1.0,79,0.00,,---,0.00,VWS V14.01,2013-07-18 14:09:00,
2013-07-18 10:10:00,84.6,77.8,30.15,WNW,288,0.0,1.0,80,0.00,,---,0.00,VWS V14.01,2013-07-18 14:10:00,
2013-07-18 10:11:00,84.7,77.8,30.15,NNW,336,2.0,2.0,80,0.00,,---,0.00,VWS V14.01,2013-07-18 14:11:00,
2013-07-18 10:12:00,84.8,77.9,30.15,NW,325,2.0,2.0,80,0.00,,---,0.00,VWS V14.01,2013-07-18 14:12:00,
2013-07-18 10:14:00,84.9,77.7,30.15,NNW,331,0.0,0.0,79,0.00,,---,0.00,VWS V14.01,2013-07-18 14:14:00,
2013-07-18 10:15:00,84.9,77.7,30.15,NNW,331,0.0,0.0,79,0.00,,---,0.00,VWS V14.01,2013-07-18 14:15:00,
2013-07-18 10:16:00,85.0,77.8,30.15,NW,313,2.0,2.0,79,0.00,,---,0.00,VWS V14.01,2013-07-18 14:16:00,
2013-07-18 10:17:00,85.1,77.9,30.15,NE,55,1.0,2.0,79,0.00,,---,0.00,VWS V14.01,2013-07-18 14:17:00,
2013-07-18 10:18:00,85.1,77.5,30.15,NNE,32,1.0,1.0,78,0.00,,---,0.00,VWS V14.01,2013-07-18 14:18:00,
2013-07-18 10:19:00,85.2,77.6,30.15,NW,321,1.0,2.0,78,0.00,,---,0.00,VWS V14.01,2013-07-18 14:19:00,
2013-07-18 10:20:00,85.2,77.6,30.15,NW,318,0.0,2.0,78,0.00,,---,0.00,VWS V14.01,2013-07-18 14:20:00,
2013-07-18 10:21:00,85.2,77.6,30.15,SSW,206,0.0,0.0,78,0.00,,---,0.00,VWS V14.01,2013-07-18 14:21:00,
2013-07-18 10:22:00,85.3,77.7,30.15,SSW,206,0.0,0.0,78,0.00,,---,0.00,VWS V14.01,2013-07-18 14:22:00,
2013-07-18 10:23:00,85.4,78.2,30.15,SSW,206,0.0,0.0,79,0.00,,---,0.00,VWS V14.01,2013-07-18 14:23:00,
2013-07-18 10:24:00,85.6,77.6,30.15,SSW,206,0.0,0.0,77,0.00,,---,0.00,VWS V14.01,2013-07-18 14:24:00,
2013-07-18 10:25:00,85.6,77.6,30.15,SSW,206,0.0,0.0,77,0.00,,---,0.00,VWS V14.01,2013-07-18 14:25:00,
2013-07-18 10:26:00,85.7,77.7,30.15,SSW,206,0.0,0.0,77,0.00,,---,0.00,VWS V14.01,2013-07-18 14:26:00,
2013-07-18 10:27:00,85.8,77.8,30.15,SSW,206,0.0,0.0,77,0.00,,---,0.00,VWS V14.01,2013-07-18 14:27:00,
2013-07-18 10:28:00,86.0,77.6,30.15,West,259,0.0,0.0,76,0.00,,---,0.00,VWS V14.01,2013-07-18 14:28:00,
2013-07-18 10:29:00,86.2,77.8,30.16,WNW,292,0.0,0.0,76,0.00,,---,0.00,VWS V14.01,2013-07-18 14:29:00,
2013-07-18 10:30:00,86.2,77.8,30.16,West,268,3.0,3.0,76,0.00,,---,0.00,VWS V14.01,2013-07-18 14:30:00,
2013-07-18 10:31:00,86.1,77.7,30.16,WNW,291,1.0,3.0,76,0.00,,---,0.00,VWS V14.01,2013-07-18 14:31:00,
2013-07-18 10:32:00,86.1,77.7,30.16,West,267,0.0,2.0,76,0.00,,---,0.00,VWS V14.01,2013-07-18 14:32:00,
2013-07-18 10:33:00,86.1,77.7,30.16,WSW,253,1.0,2.0,76,0.00,,---,0.00,VWS V14.01,2013-07-18 14:33:00,
2013-07-18 10:34:00,86.2,78.2,30.16,WNW,294,0.0,1.0,77,0.00,,---,0.00,VWS V14.01,2013-07-18 14:34:00,
2013-07-18 10:35:00,86.3,77.8,30.16,WNW,295,0.0,1.0,76,0.00,,---,0.00,VWS V14.01,2013-07-18 14:35:00,
2013-07-18 10:36:00,86.3,77.4,30.16,WNW,295,0.0,0.0,75,0.00,,---,0.00,VWS V14.01,2013-07-18 14:36:00,
2013-07-18 10:37:00,86.5,77.2,30.16,WNW,291,3.0,3.0,74,0.00,,---,0.00,VWS V14.01,2013-07-18 14:37:00,
2013-07-18 10:38:00,86.5,77.2,30.16,NW,309,2.0,3.0,74,0.00,,---,0.00,VWS V14.01,2013-07-18 14:38:00,
2013-07-18 10:39:00,86.4,77.1,30.16,West,271,1.0,2.0,74,0.00,,---,0.00,VWS V14.01,2013-07-18 14:39:00,
2013-07-18 10:40:00,86.4,77.1,30.16,SSW,213,1.0,2.0,74,0.00,,---,0.00,VWS V14.01,2013-07-18 14:40:00,
2013-07-18 10:41:00,86.3,77.0,30.16,SW,236,0.0,1.0,74,0.00,,---,0.00,VWS V14.01,2013-07-18 14:41:00,
2013-07-18 10:42:00,86.4,77.1,30.16,WSW,254,5.0,5.0,74,0.00,,---,0.00,VWS V14.01,2013-07-18 14:42:00,
2013-07-18 10:43:00,86.3,76.2,30.16,West,260,1.0,5.0,72,0.00,,---,0.00,VWS V14.01,2013-07-18 14:43:00,
2013-07-18 10:44:00,86.4,75.9,30.16,ESE,114,0.0,2.0,71,0.00,,---,0.00,VWS V14.01,2013-07-18 14:44:00,
2013-07-18 10:45:00,86.4,76.7,30.15,ESE,114,0.0,2.0,73,0.00,,---,0.00,VWS V14.01,2013-07-18 14:45:00,
2013-07-18 10:46:00,86.5,76.8,30.15,WNW,290,2.0,2.0,73,0.00,,---,0.00,VWS V14.01,2013-07-18 14:46:00,
2013-07-18 10:47:00,86.6,76.9,30.15,SW,222,2.0,3.0,73,0.00,,---,0.00,VWS V14.01,2013-07-18 14:47:00,
2013-07-18 10:48:00,86.7,77.4,30.16,SW,225,2.0,2.0,74,0.00,,---,0.00,VWS V14.01,2013-07-18 14:48:00,
2013-07-18 10:49:00,86.9,76.8,30.16,West,272,2.0,3.0,72,0.00,,---,0.00,VWS V14.01,2013-07-18 14:49:00,
2013-07-18 10:50:00,86.9,76.8,30.16,SW,234,1.0,3.0,72,0.00,,---,0.00,VWS V14.01,2013-07-18 14:50:00,
2013-07-18 10:51:00,86.9,76.8,30.16,West,259,1.0,1.0,72,0.00,,---,0.00,VWS V14.01,2013-07-18 14:51:00,
2013-07-18 10:52:00,87.0,76.9,30.16,West,260,1.0,2.0,72,0.00,,---,0.00,VWS V14.01,2013-07-18 14:52:00,
2013-07-18 10:53:00,87.1,77.0,30.16,West,263,0.0,1.0,72,0.00,,---,0.00,VWS V14.01,2013-07-18 14:53:00,
2013-07-18 10:54:00,87.3,77.2,30.16,NW,304,0.0,1.0,72,0.00,,---,0.00,VWS V14.01,2013-07-18 14:54:00,
2013-07-18 10:55:00,87.3,77.2,30.16,NW,304,0.0,1.0,72,0.00,,---,0.00,VWS V14.01,2013-07-18 14:55:00,
2013-07-18 10:56:00,87.4,77.3,30.16,West,275,0.0,0.0,72,0.00,,---,0.00,VWS V14.01,2013-07-18 14:56:00,
2013-07-18 10:57:00,87.5,76.9,30.16,West,265,0.0,1.0,71,0.00,,---,0.00,VWS V14.01,2013-07-18 14:57:00,
2013-07-18 10:58:00,87.6,77.5,30.16,West,265,0.0,1.0,72,0.00,,---,0.00,VWS V14.01,2013-07-18 14:58:00,
2013-07-18 10:59:00,87.9,76.5,30.16,ENE,76,3.0,3.0,69,0.00,,---,0.00,VWS V14.01,2013-07-18 14:59:00,
2013-07-18 11:01:00,88.0,76.6,30.16,East,79,1.0,3.0,69,0.00,,---,0.00,VWS V14.01,2013-07-18 15:01:00,
2013-07-18 11:02:00,88.2,76.8,30.16,NNE,23,1.0,1.0,69,0.00,,---,0.00,VWS V14.01,2013-07-18 15:02:00,
2013-07-18 11:03:00,88.3,76.8,30.16,NNE,17,1.0,2.0,69,0.00,,---,0.00,VWS V14.01,2013-07-18 15:03:00,
2013-07-18 11:04:00,88.3,76.8,30.16,NE,46,1.0,2.0,69,0.00,,---,0.00,VWS V14.01,2013-07-18 15:04:00,
2013-07-18 11:05:00,88.3,76.8,30.16,NE,46,1.0,2.0,69,0.00,,---,0.00,VWS V14.01,2013-07-18 15:05:00,
2013-07-18 11:06:00,88.3,76.8,30.16,ESE,104,1.0,1.0,69,0.00,,---,0.00,VWS V14.01,2013-07-18 15:06:00,
2013-07-18 11:07:00,88.2,76.8,30.16,East,80,1.0,2.0,69,0.00,,---,0.00,VWS V14.01,2013-07-18 15:07:00,
2013-07-18 11:08:00,88.3,77.3,30.16,East,82,2.0,2.0,70,0.00,,---,0.00,VWS V14.01,2013-07-18 15:08:00,
2013-07-18 11:09:00,88.4,77.4,30.16,East,82,1.0,2.0,70,0.00,,---,0.00,VWS V14.01,2013-07-18 15:09:00,
2013-07-18 11:10:00,88.4,77.4,30.16,East,80,1.0,2.0,70,0.00,,---,0.00,VWS V14.01,2013-07-18 15:10:00,
2013-07-18 11:11:00,88.4,77.4,30.16,East,100,1.0,1.0,70,0.00,,---,0.00,VWS V14.01,2013-07-18 15:11:00,
2013-07-18 11:12:00,88.6,77.6,30.16,ENE,76,1.0,2.0,70,0.00,,---,0.00,VWS V14.01,2013-07-18 15:12:00,
2013-07-18 11:13:00,88.6,77.6,30.15,East,88,1.0,1.0,70,0.00,,---,0.00,VWS V14.01,2013-07-18 15:13:00,
2013-07-18 11:14:00,88.7,77.2,30.15,East,88,1.0,1.0,69,0.00,,---,0.00,VWS V14.01,2013-07-18 15:14:00,
2013-07-18 11:15:00,88.8,77.8,30.15,NE,43,1.0,1.0,70,0.00,,---,0.00,VWS V14.01,2013-07-18 15:15:00,
2013-07-18 11:16:00,89.0,77.5,30.15,SE,135,0.0,1.0,69,0.00,,---,0.00,VWS V14.01,2013-07-18 15:16:00,
2013-07-18 11:17:00,89.1,76.3,30.15,ESE,106,2.0,3.0,66,0.00,,---,0.00,VWS V14.01,2013-07-18 15:17:00,
2013-07-18 11:18:00,89.1,76.3,30.15,East,100,5.0,5.0,66,0.00,,---,0.00,VWS V14.01,2013-07-18 15:18:00,
2013-07-18 11:19:00,88.9,76.5,30.16,ESE,113,3.0,5.0,67,0.00,,---,0.00,VWS V14.01,2013-07-18 15:19:00,
2013-07-18 11:20:00,88.8,76.4,30.16,ESE,115,1.0,5.0,67,0.00,,---,0.00,VWS V14.01,2013-07-18 15:20:00,
2013-07-18 11:21:00,88.6,76.7,30.15,SE,136,1.0,1.0,68,0.00,,---,0.00,VWS V14.01,2013-07-18 15:21:00,
2013-07-18 11:22:00,88.6,76.7,30.15,SE,134,0.0,1.0,68,0.00,,---,0.00,VWS V14.01,2013-07-18 15:22:00,
2013-07-18 11:23:00,88.7,77.2,30.16,ENE,77,1.0,1.0,69,0.00,,---,0.00,VWS V14.01,2013-07-18 15:23:00,
2013-07-18 11:24:00,88.8,76.4,30.16,NE,54,2.0,2.0,67,0.00,,---,0.00,VWS V14.01,2013-07-18 15:24:00,
2013-07-18 11:25:00,88.8,76.4,30.16,NE,54,1.0,2.0,67,0.00,,---,0.00,VWS V14.01,2013-07-18 15:25:00,
2013-07-18 11:26:00,88.8,76.4,30.16,NE,42,2.0,3.0,67,0.00,,---,0.00,VWS V14.01,2013-07-18 15:26:00,
2013-07-18 11:27:00,88.8,76.9,30.16,ENE,63,2.0,2.0,68,0.00,,---,0.00,VWS V14.01,2013-07-18 15:27:00,
2013-07-18 11:28:00,88.8,76.9,30.16,ENE,63,1.0,2.0,68,0.00,,---,0.00,VWS V14.01,2013-07-18 15:28:00,
2013-07-18 11:29:00,88.9,77.0,30.15,ENE,62,1.0,1.0,68,0.00,,---,0.00,VWS V14.01,2013-07-18 15:29:00,
2013-07-18 11:30:00,88.9,77.0,30.15,NNE,27,1.0,1.0,68,0.00,,---,0.00,VWS V14.01,2013-07-18 15:30:00,
2013-07-18 11:31:00,89.0,77.1,30.15,NW,315,1.0,1.0,68,0.00,,---,0.00,VWS V14.01,2013-07-18 15:31:00,
2013-07-18 11:32:00,89.2,77.3,30.16,NW,316,0.0,1.0,68,0.00,,---,0.00,VWS V14.01,2013-07-18 15:32:00,
2013-07-18 11:33:00,89.4,77.4,30.16,ENE,75,1.0,2.0,68,0.00,,---,0.00,VWS V14.01,2013-07-18 15:33:00,
2013-07-18 11:34:00,89.5,76.7,30.15,NNE,32,1.0,2.0,66,0.00,,---,0.00,VWS V14.01,2013-07-18 15:34:00,
2013-07-18 11:35:00,89.5,76.7,30.15,ENE,76,2.0,2.0,66,0.00,,---,0.00,VWS V14.01,2013-07-18 15:35:00,
2013-07-18 11:36:00,89.5,76.7,30.15,ENE,65,1.0,2.0,66,0.00,,---,0.00,VWS V14.01,2013-07-18 15:36:00,
2013-07-18 11:37:00,89.5,76.7,30.15,NE,46,1.0,2.0,66,0.00,,---,0.00,VWS V14.01,2013-07-18 15:37:00,
2013-07-18 11:38:00,89.5,77.1,30.15,NE,47,1.0,1.0,67,0.00,,---,0.00,VWS V14.01,2013-07-18 15:38:00,
2013-07-18 11:39:00,89.6,76.3,30.15,NE,54,1.0,2.0,65,0.00,,---,0.00,VWS V14.01,2013-07-18 15:39:00,
2013-07-18 11:40:00,89.6,76.3,30.15,East,99,1.0,2.0,65,0.00,,---,0.00,VWS V14.01,2013-07-18 15:40:00,
2013-07-18 11:41:00,89.6,76.7,30.15,ENE,57,2.0,2.0,66,0.00,,---,0.00,VWS V14.01,2013-07-18 15:41:00,
2013-07-18 11:42:00,89.6,75.8,30.15,East,84,2.0,2.0,64,0.00,,---,0.00,VWS V14.01,2013-07-18 15:42:00,
2013-07-18 11:43:00,89.5,75.7,30.15,East,93,2.0,2.0,64,0.00,,---,0.00,VWS V14.01,2013-07-18 15:43:00,
2013-07-18 11:44:00,89.5,75.2,30.15,East,82,3.0,3.0,63,0.00,,---,0.00,VWS V14.01,2013-07-18 15:44:00,
2013-07-18 11:45:00,89.5,75.2,30.15,ENE,77,3.0,3.0,63,0.00,,---,0.00,VWS V14.01,2013-07-18 15:45:00,
2013-07-18 11:46:00,89.4,76.1,30.15,ENE,76,2.0,2.0,65,0.00,,---,0.00,VWS V14.01,2013-07-18 15:46:00,
2013-07-18 11:47:00,89.3,76.5,30.15,East,93,3.0,4.0,66,0.00,,---,0.00,VWS V14.01,2013-07-18 15:47:00,
2013-07-18 11:48:00,89.2,76.4,30.15,ESE,109,2.0,3.0,66,0.00,,---,0.00,VWS V14.01,2013-07-18 15:48:00,
2013-07-18 11:49:00,89.1,75.8,30.15,SSE,163,2.0,2.0,65,0.00,,---,0.00,VWS V14.01,2013-07-18 15:49:00,
2013-07-18 11:50:00,89.2,76.4,30.15,ESE,106,1.0,2.0,66,0.00,,---,0.00,VWS V14.01,2013-07-18 15:50:00,
2013-07-18 11:51:00,89.3,76.0,30.15,East,94,0.0,1.0,65,0.00,,---,0.00,VWS V14.01,2013-07-18 15:51:00,
2013-07-18 11:52:00,89.5,76.2,30.15,SSE,150,0.0,1.0,65,0.00,,---,0.00,VWS V14.01,2013-07-18 15:52:00,
2013-07-18 11:53:00,89.9,76.6,30.15,NE,51,0.0,1.0,65,0.00,,---,0.00,VWS V14.01,2013-07-18 15:53:00,
2013-07-18 11:54:00,90.3,76.5,30.15,NE,50,0.0,0.0,64,0.00,,---,0.00,VWS V14.01,2013-07-18 15:54:00,
2013-07-18 11:55:00,90.8,77.4,30.15,NE,55,0.0,1.0,65,0.00,,---,0.00,VWS V14.01,2013-07-18 15:55:00,
2013-07-18 11:56:00,91.1,76.8,30.15,NE,55,1.0,1.0,63,0.00,,---,0.00,VWS V14.01,2013-07-18 15:56:00,
2013-07-18 11:57:00,91.4,77.5,30.15,ENE,57,1.0,1.0,64,0.00,,---,0.00,VWS V14.01,2013-07-18 15:57:00,
2013-07-18 11:58:00,91.5,77.6,30.15,East,86,1.0,1.0,64,0.00,,---,0.00,VWS V14.01,2013-07-18 15:58:00,
2013-07-18 11:59:00,91.5,77.1,30.15,East,88,1.0,1.0,63,0.00,,---,0.00,VWS V14.01,2013-07-18 15:59:00,
2013-07-18 12:00:00,91.6,77.7,30.15,NNE,24,1.0,2.0,64,0.00,,---,0.00,VWS V14.01,2013-07-18 16:00:00,
2013-07-18 12:02:00,91.6,77.7,30.15,NNE,24,1.0,2.0,64,0.00,,---,0.00,VWS V14.01,2013-07-18 16:02:00,
2013-07-18 12:03:00,91.6,77.2,30.15,West,281,1.0,1.0,63,0.00,,---,0.00,VWS V14.01,2013-07-18 16:03:00,
2013-07-18 12:04:00,91.7,76.8,30.15,West,280,0.0,1.0,62,0.00,,---,0.00,VWS V14.01,2013-07-18 16:04:00,
2013-07-18 12:05:00,91.9,76.5,30.15,East,98,1.0,2.0,61,0.00,,---,0.00,VWS V14.01,2013-07-18 16:05:00,
2013-07-18 12:06:00,92.0,76.1,30.15,SSW,200,1.0,2.0,60,0.00,,---,0.00,VWS V14.01,2013-07-18 16:06:00,
2013-07-18 12:07:00,92.1,76.2,30.15,SSW,200,0.0,1.0,60,0.00,,---,0.00,VWS V14.01,2013-07-18 16:07:00,
2013-07-18 12:08:00,92.3,75.9,30.15,SW,226,0.0,1.0,59,0.00,,---,0.00,VWS V14.01,2013-07-18 16:08:00,
2013-07-18 12:09:00,92.5,76.6,30.15,ESE,120,1.0,1.0,60,0.00,,---,0.00,VWS V14.01,2013-07-18 16:09:00,
2013-07-18 12:10:00,92.7,77.3,30.15,SSW,202,0.0,1.0,61,0.00,,---,0.00,VWS V14.01,2013-07-18 16:10:00,
2013-07-18 12:11:00,92.8,76.9,30.15,SSW,195,2.0,2.0,60,0.00,,---,0.00,VWS V14.01,2013-07-18 16:11:00,
2013-07-18 12:12:00,93.0,77.1,30.15,SSW,209,0.0,2.0,60,0.00,,---,0.00,VWS V14.01,2013-07-18 16:12:00,
2013-07-18 12:13:00,93.2,76.2,30.15,ESE,117,1.0,2.0,58,0.00,,---,0.00,VWS V14.01,2013-07-18 16:13:00,
2013-07-18 12:14:00,93.4,76.4,30.15,SSE,167,1.0,1.0,58,0.00,,---,0.00,VWS V14.01,2013-07-18 16:14:00,
2013-07-18 12:15:00,93.6,77.1,30.15,East,88,1.0,1.0,59,0.00,,---,0.00,VWS V14.01,2013-07-18 16:15:00,
2013-07-18 12:16:00,93.7,76.2,30.15,South,186,0.0,2.0,57,0.00,,---,0.00,VWS V14.01,2013-07-18 16:16:00,
2013-07-18 12:17:00,93.9,76.9,30.15,East,88,2.0,2.0,58,0.00,,---,0.00,VWS V14.01,2013-07-18 16:17:00,
2013-07-18 12:18:00,93.8,76.3,30.15,ESE,102,3.0,5.0,57,0.00,,---,0.00,VWS V14.01,2013-07-18 16:18:00,
2013-07-18 12:19:00,93.6,75.6,30.15,ESE,102,3.0,3.0,56,0.00,,---,0.00,VWS V14.01,2013-07-18 16:19:00,
2013-07-18 12:20:00,93.2,75.2,30.15,ESE,109,1.0,3.0,56,0.00,,---,0.00,VWS V14.01,2013-07-18 16:20:00,
2013-07-18 12:21:00,92.8,75.9,30.15,SE,137,1.0,2.0,58,0.00,,---,0.00,VWS V14.01,2013-07-18 16:21:00,
2013-07-18 12:22:00,92.6,75.7,30.15,ESE,113,3.0,4.0,58,0.00,,---,0.00,VWS V14.01,2013-07-18 16:22:00,
2013-07-18 12:23:00,92.4,75.0,30.15,ESE,105,3.0,3.0,57,0.00,,---,0.00,VWS V14.01,2013-07-18 16:23:00,
2013-07-18 12:24:00,92.1,75.2,30.15,ESE,103,2.0,4.0,58,0.00,,---,0.00,VWS V14.01,2013-07-18 16:24:00,
2013-07-18 12:25:00,91.9,75.0,30.15,ESE,120,2.0,2.0,58,0.00,,---,0.00,VWS V14.01,2013-07-18 16:25:00,
2013-07-18 12:26:00,91.7,74.8,30.15,ESE,122,1.0,2.0,58,0.00,,---,0.00,VWS V14.01,2013-07-18 16:26:00,
2013-07-18 12:27:00,91.6,74.7,30.15,ENE,76,2.0,2.0,58,0.00,,---,0.00,VWS V14.01,2013-07-18 16:27:00,
2013-07-18 12:28:00,91.6,75.8,30.15,SSE,149,1.0,2.0,60,0.00,,---,0.00,VWS V14.01,2013-07-18 16:28:00,
2013-07-18 12:29:00,91.8,74.9,30.15,ESE,108,0.0,1.0,58,0.00,,---,0.00,VWS V14.01,2013-07-18 16:29:00,
2013-07-18 12:30:00,92.1,75.7,30.15,East,88,2.0,2.0,59,0.00,,---,0.00,VWS V14.01,2013-07-18 16:30:00,
2013-07-18 12:31:00,92.4,75.5,30.15,East,95,1.0,1.0,58,0.00,,---,0.00,VWS V14.01,2013-07-18 16:31:00,
2013-07-18 12:32:00,92.5,76.1,30.15,ENE,67,0.0,1.0,59,0.00,,---,0.00,VWS V14.01,2013-07-18 16:32:00,
2013-07-18 12:33:00,92.7,76.3,30.15,ENE,68,0.0,0.0,59,0.00,,---,0.00,VWS V14.01,2013-07-18 16:33:00,
2013-07-18 12:34:00,93.0,76.1,30.15,SSW,194,0.0,0.0,58,0.00,,---,0.00,VWS V14.01,2013-07-18 16:34:00,
2013-07-18 12:35:00,93.4,76.4,30.15,SSE,159,0.0,0.0,58,0.00,,---,0.00,VWS V14.01,2013-07-18 16:35:00,
2013-07-18 12:36:00,93.7,76.7,30.15,West,259,1.0,1.0,58,0.00,,---,0.00,VWS V14.01,2013-07-18 16:36:00,
2013-07-18 12:37:00,93.8,77.3,30.15,WSW,242,1.0,1.0,59,0.00,,---,0.00,VWS V14.01,2013-07-18 16:37:00,
2013-07-18 12:38:00,93.8,77.3,30.15,SW,236,1.0,1.0,59,0.00,,---,0.00,VWS V14.01,2013-07-18 16:38:00,
2013-07-18 12:39:00,93.7,76.7,30.15,WSW,246,1.0,2.0,58,0.00,,---,0.00,VWS V14.01,2013-07-18 16:39:00,
2013-07-18 12:40:00,93.5,77.0,30.15,WSW,248,2.0,3.0,59,0.00,,---,0.00,VWS V14.01,2013-07-18 16:40:00,
2013-07-18 12:41:00,93.2,76.2,30.15,WSW,251,1.0,2.0,58,0.00,,---,0.00,VWS V14.01,2013-07-18 16:41:00,
2013-07-18 12:42:00,93.1,76.1,30.15,SW,232,1.0,2.0,58,0.00,,---,0.00,VWS V14.01,2013-07-18 16:42:00,
2013-07-18 12:43:00,92.9,76.5,30.15,WSW,257,2.0,2.0,59,0.00,,---,0.00,VWS V14.01,2013-07-18 16:43:00,
2013-07-18 12:44:00,92.7,75.8,30.15,West,276,1.0,3.0,58,0.00,,---,0.00,VWS V14.01,2013-07-18 16:44:00,
2013-07-18 12:45:00,92.6,75.7,30.15,West,276,1.0,1.0,58,0.00,,---,0.00,VWS V14.01,2013-07-18 16:45:00,
2013-07-18 12:46:00,92.6,76.2,30.15,West,268,0.0,1.0,59,0.00,,---,0.00,VWS V14.01,2013-07-18 16:46:00,
2013-07-18 12:47:00,92.8,76.9,30.15,West,272,0.0,1.0,60,0.00,,---,0.00,VWS V14.01,2013-07-18 16:47:00,
2013-07-18 12:48:00,92.9,77.0,30.15,WNW,286,2.0,2.0,60,0.00,,---,0.00,VWS V14.01,2013-07-18 16:48:00,
2013-07-18 12:49:00,93.0,76.6,30.15,WNW,289,1.0,2.0,59,0.00,,---,0.00,VWS V14.01,2013-07-18 16:49:00,
2013-07-18 12:50:00,92.9,75.4,30.15,WNW,294,3.0,3.0,57,0.00,,---,0.00,VWS V14.01,2013-07-18 16:50:00,
2013-07-18 12:51:00,92.5,75.1,30.14,WNW,291,0.0,2.0,57,0.00,,---,0.00,VWS V14.01,2013-07-18 16:51:00,
2013-07-18 12:52:00,92.4,75.0,30.14,WNW,290,0.0,2.0,57,0.00,,---,0.00,VWS V14.01,2013-07-18 16:52:00,
2013-07-18 12:53:00,92.2,75.3,30.14,WSW,257,2.0,2.0,58,0.00,,---,0.00,VWS V14.01,2013-07-18 16:53:00,
2013-07-18 12:54:00,92.0,75.6,30.15,West,264,1.0,2.0,59,0.00,,---,0.00,VWS V14.01,2013-07-18 16:54:00,
2013-07-18 12:55:00,91.8,75.4,30.14,West,271,1.0,1.0,59,0.00,,---,0.00,VWS V14.01,2013-07-18 16:55:00,
2013-07-18 12:56:00,91.7,75.3,30.14,NW,321,1.0,1.0,59,0.00,,---,0.00,VWS V14.01,2013-07-18 16:56:00,
2013-07-18 12:57:00,91.6,75.8,30.14,WNW,295,2.0,2.0,60,0.00,,---,0.00,VWS V14.01,2013-07-18 16:57:00,
2013-07-18 12:58:00,91.7,75.3,30.14,NW,321,0.0,1.0,59,0.00,,---,0.00,VWS V14.01,2013-07-18 16:58:00,
2013-07-18 12:59:00,91.4,75.6,30.14,WSW,244,1.0,2.0,60,0.00,,---,0.00,VWS V14.01,2013-07-18 16:59:00,
2013-07-18 13:01:00,91.3,75.0,30.14,SSW,211,1.0,1.0,59,0.00,,---,0.00,VWS V14.01,2013-07-18 17:01:00,
2013-07-18 13:02:00,91.3,75.5,30.14,WSW,252,1.0,1.0,60,0.00,,---,0.00,VWS V14.01,2013-07-18 17:02:00,
2013-07-18 13:03:00,91.3,75.5,30.14,SSE,156,2.0,2.0,60,0.00,,---,0.00,VWS V14.01,2013-07-18 17:03:00,
2013-07-18 13:04:00,91.3,75.0,30.14,SE,144,1.0,2.0,59,0.00,,---,0.00,VWS V14.01,2013-07-18 17:04:00,
2013-07-18 13:05:00,91.4,75.6,30.14,East,84,1.0,1.0,60,0.00,,---,0.00,VWS V14.01,2013-07-18 17:05:00,
2013-07-18 13:06:00,91.5,75.7,30.14,WNW,295,2.0,2.0,60,0.00,,---,0.00,VWS V14.01,2013-07-18 17:06:00,
2013-07-18 13:07:00,91.4,75.1,30.14,WNW,288,3.0,4.0,59,0.00,,---,0.00,VWS V14.01,2013-07-18 17:07:00,
2013-07-18 13:08:00,91.4,75.1,30.14,WNW,288,1.0,3.0,59,0.00,,---,0.00,VWS V14.01,2013-07-18 17:08:00,
2013-07-18 13:09:00,91.3,75.5,30.14,NNW,332,2.0,2.0,60,0.00,,---,0.00,VWS V14.01,2013-07-18 17:09:00,
2013-07-18 13:10:00,91.3,75.0,30.14,NNW,333,2.0,2.0,59,0.00,,---,0.00,VWS V14.01,2013-07-18 17:10:00,
2013-07-18 13:11:00,91.3,75.0,30.14,NNW,331,0.0,2.0,59,0.00,,---,0.00,VWS V14.01,2013-07-18 17:11:00,
2013-07-18 13:12:00,91.4,75.1,30.14,NW,314,0.0,1.0,59,0.00,,---,0.00,VWS V14.01,2013-07-18 17:12:00,
2013-07-18 13:13:00,91.5,75.7,30.14,NNW,331,0.0,1.0,60,0.00,,---,0.00,VWS V14.01,2013-07-18 17:13:00,
2013-07-18 13:14:00,91.7,75.8,30.14,West,276,1.0,2.0,60,0.00,,---,0.00,VWS V14.01,2013-07-18 17:14:00,
2013-07-18 13:15:00,91.8,76.4,30.14,West,259,2.0,3.0,61,0.00,,---,0.00,VWS V14.01,2013-07-18 17:15:00,
2013-07-18 13:16:00,92.0,76.6,30.14,SW,236,0.0,2.0,61,0.00,,---,0.00,VWS V14.01,2013-07-18 17:16:00,
2013-07-18 13:17:00,92.1,76.2,30.14,SSE,152,1.0,1.0,60,0.00,,---,0.00,VWS V14.01,2013-07-18 17:17:00,
2013-07-18 13:18:00,92.3,75.9,30.14,SE,140,3.0,3.0,59,0.00,,---,0.00,VWS V14.01,2013-07-18 17:18:00,
2013-07-18 13:19:00,92.3,75.4,30.14,SE,133,1.0,3.0,58,0.00,,---,0.00,VWS V14.01,2013-07-18 17:19:00,
2013-07-18 13:20:00,92.3,75.4,30.14,ESE,109,1.0,1.0,58,0.00,,---,0.00,VWS V14.01,2013-07-18 17:20:00,
2013-07-18 13:21:00,92.3,75.4,30.14,East,80,2.0,2.0,58,0.00,,---,0.00,VWS V14.01,2013-07-18 17:21:00,
2013-07-18 13:22:00,92.3,75.9,30.14,ESE,105,1.0,2.0,59,0.00,,---,0.00,VWS V14.01,2013-07-18 17:22:00,
2013-07-18 13:23:00,92.2,75.3,30.14,ESE,105,0.0,1.0,58,0.00,,---,0.00,VWS V14.01,2013-07-18 17:23:00,
2013-07-18 13:24:00,92.2,76.3,30.14,ESE,105,0.0,0.0,60,0.00,,---,0.00,VWS V14.01,2013-07-18 17:24:00,
2013-07-18 13:25:00,92.4,76.0,30.14,SSE,161,1.0,2.0,59,0.00,,---,0.00,VWS V14.01,2013-07-18 17:25:00,
2013-07-18 13:26:00,92.6,75.7,30.14,SE,138,0.0,1.0,58,0.00,,---,0.00,VWS V14.01,2013-07-18 17:26:00,
2013-07-18 13:27:00,92.8,75.3,30.14,East,101,1.0,2.0,57,0.00,,---,0.00,VWS V14.01,2013-07-18 17:27:00,
2013-07-18 13:28:00,93.0,75.5,30.14,ESE,119,1.0,3.0,57,0.00,,---,0.00,VWS V14.01,2013-07-18 17:28:00,
2013-07-18 13:29:00,93.2,75.7,30.14,SSW,209,2.0,3.0,57,0.00,,---,0.00,VWS V14.01,2013-07-18 17:29:00,
2013-07-18 13:30:00,93.4,75.9,30.14,SSE,160,1.0,2.0,57,0.00,,---,0.00,VWS V14.01,2013-07-18 17:30:00,
2013-07-18 13:31:00,93.6,75.6,30.14,SSE,152,3.0,3.0,56,0.00,,---,0.00,VWS V14.01,2013-07-18 17:31:00,
2013-07-18 13:32:00,93.7,75.6,30.14,South,175,1.0,4.0,56,0.00,,---,0.00,VWS V14.01,2013-07-18 17:32:00,
2013-07-18 13:33:00,93.8,75.2,30.14,SE,125,4.0,4.0,55,0.00,,---,0.00,VWS V14.01,2013-07-18 17:33:00,
2013-07-18 13:34:00,93.9,75.3,30.14,South,175,2.0,4.0,55,0.00,,---,0.00,VWS V14.01,2013-07-18 17:34:00,
2013-07-18 13:35:00,93.9,74.7,30.13,SE,142,0.0,2.0,54,0.00,,---,0.00,VWS V14.01,2013-07-18 17:35:00,
2013-07-18 13:36:00,93.9,74.7,30.13,ENE,65,0.0,1.0,54,0.00,,---,0.00,VWS V14.01,2013-07-18 17:36:00,
2013-07-18 13:37:00,94.1,75.5,30.14,WNW,295,0.0,1.0,55,0.00,,---,0.00,VWS V14.01,2013-07-18 17:37:00,
2013-07-18 13:38:00,94.3,75.7,30.14,SE,130,1.0,1.0,55,0.00,,---,0.00,VWS V14.01,2013-07-18 17:38:00,
2013-07-18 13:39:00,94.5,75.8,30.14,SSE,150,2.0,4.0,55,0.00,,---,0.00,VWS V14.01,2013-07-18 17:39:00,
2013-07-18 13:40:00,94.4,74.6,30.13,SSE,168,2.0,2.0,53,0.00,,---,0.00,VWS V14.01,2013-07-18 17:40:00,
2013-07-18 13:41:00,94.3,74.6,30.14,SW,227,1.0,2.0,53,0.00,,---,0.00,VWS V14.01,2013-07-18 17:41:00,
2013-07-18 13:42:00,94.2,74.5,30.13,SSW,197,1.0,2.0,53,0.00,,---,0.00,VWS V14.01,2013-07-18 17:42:00,
2013-07-18 13:43:00,94.2,75.0,30.13,WSW,245,0.0,1.0,54,0.00,,---,0.00,VWS V14.01,2013-07-18 17:43:00,
2013-07-18 13:44:00,94.1,74.9,30.13,West,279,2.0,4.0,54,0.00,,---,0.00,VWS V14.01,2013-07-18 17:44:00,
2013-07-18 13:45:00,93.9,73.6,30.13,WNW,290,2.0,2.0,52,0.00,,---,0.00,VWS V14.01,2013-07-18 17:45:00,
2013-07-18 13:46:00,93.6,73.9,30.13,West,279,2.0,3.0,53,0.00,,---,0.00,VWS V14.01,2013-07-18 17:46:00,
2013-07-18 13:47:00,93.3,74.2,30.13,WNW,286,0.0,2.0,54,0.00,,---,0.00,VWS V14.01,2013-07-18 17:47:00,
2013-07-18 13:48:00,93.1,74.0,30.13,South,171,0.0,1.0,54,0.00,,---,0.00,VWS V14.01,2013-07-18 17:48:00,
2013-07-18 13:49:00,93.2,74.6,30.13,East,90,1.0,1.0,55,0.00,,---,0.00,VWS V14.01,2013-07-18 17:49:00,
2013-07-18 13:50:00,93.4,75.4,30.13,East,92,3.0,3.0,56,0.00,,---,0.00,VWS V14.01,2013-07-18 17:50:00,
2013-07-18 13:51:00,93.5,74.4,30.13,ENE,71,2.0,4.0,54,0.00,,---,0.00,VWS V14.01,2013-07-18 17:51:00,
2013-07-18 13:52:00,93.5,74.4,30.13,ENE,76,2.0,2.0,54,0.00,,---,0.00,VWS V14.01,2013-07-18 17:52:00,
2013-07-18 13:53:00,93.4,74.3,30.13,ESE,117,1.0,2.0,54,0.00,,---,0.00,VWS V14.01,2013-07-18 17:53:00,
2013-07-18 13:54:00,93.4,74.8,30.13,ESE,107,2.0,2.0,55,0.00,,---,0.00,VWS V14.01,2013-07-18 17:54:00,
2013-07-18 13:55:00,93.2,74.6,30.13,ENE,71,3.0,3.0,55,0.00,,---,0.00,VWS V14.01,2013-07-18 17:55:00,
2013-07-18 13:56:00,93.1,74.6,30.13,ENE,75,1.0,3.0,55,0.00,,---,0.00,VWS V14.01,2013-07-18 17:56:00,
2013-07-18 13:57:00,93.0,74.5,30.13,ENE,71,0.0,1.0,55,0.00,,---,0.00,VWS V14.01,2013-07-18 17:57:00,
2013-07-18 13:58:00,93.0,75.0,30.13,WNW,283,1.0,2.0,56,0.00,,---,0.00,VWS V14.01,2013-07-18 17:58:00,
2013-07-18 13:59:00,92.9,74.9,30.13,West,263,1.0,1.0,56,0.00,,---,0.00,VWS V14.01,2013-07-18 17:59:00,
2013-07-18 14:01:00,92.9,74.9,30.13,WSW,245,0.0,3.0,56,0.00,,---,0.00,VWS V14.01,2013-07-18 18:01:00,
2013-07-18 14:02:00,93.0,75.0,30.13,WNW,290,1.0,1.0,56,0.00,,---,0.00,VWS V14.01,2013-07-18 18:02:00,
2013-07-18 14:03:00,93.1,75.6,30.13,WSW,256,2.0,2.0,57,0.00,,---,0.00,VWS V14.01,2013-07-18 18:03:00,
2013-07-18 14:04:00,93.2,75.7,30.13,WSW,256,1.0,2.0,57,0.00,,---,0.00,VWS V14.01,2013-07-18 18:04:00,
2013-07-18 14:05:00,93.1,75.6,30.12,West,281,2.0,2.0,57,0.00,,---,0.00,VWS V14.01,2013-07-18 18:05:00,
2013-07-18 14:06:00,93.0,74.5,30.13,WNW,288,2.0,4.0,55,0.00,,---,0.00,VWS V14.01,2013-07-18 18:06:00,
2013-07-18 14:07:00,92.9,74.9,30.12,WSW,257,1.0,2.0,56,0.00,,---,0.00,VWS V14.01,2013-07-18 18:07:00,
2013-07-18 14:08:00,92.8,75.9,30.12,WNW,283,2.0,3.0,58,0.00,,---,0.00,VWS V14.01,2013-07-18 18:08:00,
2013-07-18 14:09:00,92.7,74.7,30.12,NW,306,2.0,2.0,56,0.00,,---,0.00,VWS V14.01,2013-07-18 18:09:00,
2013-07-18 14:10:00,92.7,75.2,30.12,West,281,2.0,3.0,57,0.00,,---,0.00,VWS V14.01,2013-07-18 18:10:00,
2013-07-18 14:11:00,92.7,75.2,30.12,NNW,340,1.0,2.0,57,0.00,,---,0.00,VWS V14.01,2013-07-18 18:11:00,
2013-07-18 14:12:00,92.8,75.9,30.12,West,266,3.0,3.0,58,0.00,,---,0.00,VWS V14.01,2013-07-18 18:12:00,
2013-07-18 14:13:00,92.9,75.4,30.12,NNW,333,1.0,3.0,57,0.00,,---,0.00,VWS V14.01,2013-07-18 18:13:00,
2013-07-18 14:14:00,92.9,74.9,30.12,NNW,333,0.0,1.0,56,0.00,,---,0.00,VWS V14.01,2013-07-18 18:14:00,
2013-07-18 14:15:00,93.1,75.1,30.12,West,277,0.0,0.0,56,0.00,,---,0.00,VWS V14.01,2013-07-18 18:15:00,
2013-07-18 14:16:00,93.2,76.2,30.12,WSW,254,4.0,4.0,58,0.00,,---,0.00,VWS V14.01,2013-07-18 18:16:00,
2013-07-18 14:17:00,93.0,74.5,30.12,West,275,2.0,4.0,55,0.00,,---,0.00,VWS V14.01,2013-07-18 18:17:00,
2013-07-18 14:18:00,92.8,74.8,30.12,West,264,1.0,1.0,56,0.00,,---,0.00,VWS V14.01,2013-07-18 18:18:00,
2013-07-18 14:19:00,92.7,74.7,30.12,SW,215,2.0,2.0,56,0.00,,---,0.00,VWS V14.01,2013-07-18 18:19:00,
2013-07-18 14:20:00,92.7,74.7,30.12,SW,215,1.0,2.0,56,0.00,,---,0.00,VWS V14.01,2013-07-18 18:20:00,
2013-07-18 14:21:00,92.7,74.7,30.12,SW,215,0.0,1.0,56,0.00,,---,0.00,VWS V14.01,2013-07-18 18:21:00,
2013-07-18 14:22:00,92.9,74.9,30.12,WSW,252,0.0,1.0,56,0.00,,---,0.00,VWS V14.01,2013-07-18 18:22:00,
2013-07-18 14:23:00,93.1,75.6,30.12,NNW,330,0.0,1.0,57,0.00,,---,0.00,VWS V14.01,2013-07-18 18:23:00,
2013-07-18 14:24:00,93.3,75.3,30.12,NE,56,0.0,2.0,56,0.00,,---,0.00,VWS V14.01,2013-07-18 18:24:00,
2013-07-18 14:25:00,93.6,76.1,30.12,West,274,1.0,1.0,57,0.00,,---,0.00,VWS V14.01,2013-07-18 18:25:00,
2013-07-18 14:26:00,93.9,75.8,30.12,WNW,288,3.0,3.0,56,0.00,,---,0.00,VWS V14.01,2013-07-18 18:26:00,
2013-07-18 14:27:00,94.0,74.8,30.12,West,278,1.0,4.0,54,0.00,,---,0.00,VWS V14.01,2013-07-18 18:27:00,
2013-07-18 14:28:00,94.0,74.8,30.12,WNW,286,0.0,2.0,54,0.00,,---,0.00,VWS V14.01,2013-07-18 18:28:00,
2013-07-18 14:29:00,94.0,74.8,30.11,East,84,0.0,1.0,54,0.00,,---,0.00,VWS V14.01,2013-07-18 18:29:00,
2013-07-18 14:30:00,94.2,75.0,30.12,South,173,1.0,1.0,54,0.00,,---,0.00,VWS V14.01,2013-07-18 18:30:00,
2013-07-18 14:31:00,94.3,75.1,30.12,West,266,3.0,3.0,54,0.00,,---,0.00,VWS V14.01,2013-07-18 18:31:00,
2013-07-18 14:32:00,94.4,75.2,30.12,ENE,57,2.0,3.0,54,0.00,,---,0.00,VWS V14.01,2013-07-18 18:32:00,
2013-07-18 14:33:00,94.5,75.3,30.11,ENE,61,2.0,3.0,54,0.00,,---,0.00,VWS V14.01,2013-07-18 18:33:00,
2013-07-18 14:34:00,94.5,74.2,30.11,NNE,13,1.0,3.0,52,0.00,,---,0.00,VWS V14.01,2013-07-18 18:34:00,
2013-07-18 14:35:00,94.5,74.2,30.11,NNE,15,1.0,1.0,52,0.00,,---,0.00,VWS V14.01,2013-07-18 18:35:00,
2013-07-18 14:36:00,94.4,74.1,30.11,NNE,15,0.0,1.0,52,0.00,,---,0.00,VWS V14.01,2013-07-18 18:36:00,
2013-07-18 14:37:00,94.3,74.6,30.11,East,80,0.0,1.0,53,0.00,,---,0.00,VWS V14.01,2013-07-18 18:37:00,
2013-07-18 14:38:00,94.4,74.6,30.11,WSW,242,1.0,1.0,53,0.00,,---,0.00,VWS V14.01,2013-07-18 18:38:00,
2013-07-18 14:39:00,94.5,74.7,30.11,SSW,203,1.0,3.0,53,0.00,,---,0.00,VWS V14.01,2013-07-18 18:39:00,
2013-07-18 14:40:00,94.5,74.7,30.11,South,190,1.0,2.0,53,0.00,,---,0.00,VWS V14.01,2013-07-18 18:40:00,
2013-07-18 14:41:00,94.5,74.2,30.11,SW,221,2.0,3.0,52,0.00,,---,0.00,VWS V14.01,2013-07-18 18:41:00,
2013-07-18 14:42:00,94.5,74.7,30.11,WSW,254,2.0,2.0,53,0.00,,---,0.00,VWS V14.01,2013-07-18 18:42:00,
2013-07-18 14:43:00,94.3,74.6,30.11,SW,229,2.0,2.0,53,0.00,,---,0.00,VWS V14.01,2013-07-18 18:43:00,
2013-07-18 14:44:00,94.1,74.4,30.11,West,267,0.0,2.0,53,0.00,,---,0.00,VWS V14.01,2013-07-18 18:44:00,
2013-07-18 14:45:00,94.0,74.3,30.11,West,276,2.0,2.0,53,0.00,,---,0.00,VWS V14.01,2013-07-18 18:45:00,
2013-07-18 14:46:00,93.9,74.7,30.11,West,273,1.0,2.0,54,0.00,,---,0.00,VWS V14.01,2013-07-18 18:46:00,
2013-07-18 14:47:00,93.8,75.2,30.11,WSW,251,1.0,2.0,55,0.00,,---,0.00,VWS V14.01,2013-07-18 18:47:00,
2013-07-18 14:48:00,93.6,75.0,30.11,SSW,213,3.0,5.0,55,0.00,,---,0.00,VWS V14.01,2013-07-18 18:48:00,
2013-07-18 14:49:00,93.3,74.7,30.11,WSW,238,1.0,4.0,55,0.00,,---,0.00,VWS V14.01,2013-07-18 18:49:00,
2013-07-18 14:50:00,93.2,74.6,30.11,West,259,0.0,1.0,55,0.00,,---,0.00,VWS V14.01,2013-07-18 18:50:00,
2013-07-18 14:51:00,93.1,75.6,30.11,SSW,202,1.0,1.0,57,0.00,,---,0.00,VWS V14.01,2013-07-18 18:51:00,
2013-07-18 14:52:00,93.2,75.7,30.11,SW,221,1.0,1.0,57,0.00,,---,0.00,VWS V14.01,2013-07-18 18:52:00,
2013-07-18 14:53:00,93.2,74.6,30.11,SSE,157,1.0,1.0,55,0.00,,---,0.00,VWS V14.01,2013-07-18 18:53:00,
2013-07-18 14:54:00,93.3,74.7,30.11,SSE,168,2.0,2.0,55,0.00,,---,0.00,VWS V14.01,2013-07-18 18:54:00,
2013-07-18 14:55:00,93.5,74.9,30.10,WSW,257,1.0,2.0,55,0.00,,---,0.00,VWS V14.01,2013-07-18 18:55:00,
2013-07-18 14:56:00,93.5,74.9,30.10,WSW,245,1.0,2.0,55,0.00,,---,0.00,VWS V14.01,2013-07-18 18:56:00,
2013-07-18 14:57:00,93.6,75.6,30.11,West,268,1.0,2.0,56,0.00,,---,0.00,VWS V14.01,2013-07-18 18:57:00,
2013-07-18 14:58:00,93.6,74.5,30.10,SW,217,1.0,2.0,54,0.00,,---,0.00,VWS V14.01,2013-07-18 18:58:00,
2013-07-18 14:59:00,93.6,74.5,30.10,West,279,2.0,2.0,54,0.00,,---,0.00,VWS V14.01,2013-07-18 18:59:00,
2013-07-18 15:01:00,93.5,73.8,30.10,WNW,283,1.0,2.0,53,0.00,,---,0.00,VWS V14.01,2013-07-18 19:01:00,
2013-07-18 15:02:00,93.3,74.2,30.10,WNW,283,0.0,1.0,54,0.00,,---,0.00,VWS V14.01,2013-07-18 19:02:00,
2013-07-18 15:03:00,93.4,74.8,30.10,WNW,292,1.0,1.0,55,0.00,,---,0.00,VWS V14.01,2013-07-18 19:03:00,
2013-07-18 15:04:00,93.5,74.9,30.10,WNW,302,1.0,2.0,55,0.00,,---,0.00,VWS V14.01,2013-07-18 19:04:00,
2013-07-18 15:05:00,93.6,76.1,30.10,NW,326,1.0,1.0,57,0.00,,---,0.00,VWS V14.01,2013-07-18 19:05:00,
2013-07-18 15:06:00,93.8,75.7,30.10,West,276,0.0,1.0,56,0.00,,---,0.00,VWS V14.01,2013-07-18 19:06:00,
2013-07-18 15:07:00,94.0,76.5,30.10,WNW,290,0.0,1.0,57,0.00,,---,0.00,VWS V14.01,2013-07-18 19:07:00,
2013-07-18 15:08:00,94.3,77.3,30.10,ENE,65,1.0,1.0,58,0.00,,---,0.00,VWS V14.01,2013-07-18 19:08:00,
2013-07-18 15:09:00,94.5,76.4,30.10,ENE,63,1.0,1.0,56,0.00,,---,0.00,VWS V14.01,2013-07-18 19:09:00,
2013-07-18 15:10:00,94.5,76.9,30.10,NE,44,1.0,1.0,57,0.00,,---,0.00,VWS V14.01,2013-07-18 19:10:00,
2013-07-18 15:11:00,94.5,76.9,30.10,NE,44,1.0,1.0,57,0.00,,---,0.00,VWS V14.01,2013-07-18 19:11:00,
2013-07-18 15:12:00,94.5,76.9,30.10,ENE,72,2.0,2.0,57,0.00,,---,0.00,VWS V14.01,2013-07-18 19:12:00,
2013-07-18 15:13:00,94.2,76.1,30.10,ENE,67,2.0,2.0,56,0.00,,---,0.00,VWS V14.01,2013-07-18 19:13:00,
2013-07-18 15:14:00,93.9,75.8,30.10,NE,50,2.0,2.0,56,0.00,,---,0.00,VWS V14.01,2013-07-18 19:14:00,
2013-07-18 15:15:00,93.6,75.6,30.10,ENE,67,2.0,2.0,56,0.00,,---,0.00,VWS V14.01,2013-07-18 19:15:00,
2013-07-18 15:16:00,93.4,75.9,30.10,ENE,61,1.0,2.0,57,0.00,,---,0.00,VWS V14.01,2013-07-18 19:16:00,
2013-07-18 15:17:00,93.1,75.6,30.10,ENE,61,1.0,3.0,57,0.00,,---,0.00,VWS V14.01,2013-07-18 19:17:00,
2013-07-18 15:18:00,93.0,75.5,30.10,NNE,15,2.0,2.0,57,0.00,,---,0.00,VWS V14.01,2013-07-18 19:18:00,
2013-07-18 15:19:00,92.9,76.5,30.10,NNE,30,2.0,2.0,59,0.00,,---,0.00,VWS V14.01,2013-07-18 19:19:00,
2013-07-18 15:20:00,92.8,75.3,30.10,NNE,15,1.0,2.0,57,0.00,,---,0.00,VWS V14.01,2013-07-18 19:20:00,
2013-07-18 15:21:00,92.8,75.9,30.10,NNE,14,0.0,1.0,58,0.00,,---,0.00,VWS V14.01,2013-07-18 19:21:00,
2013-07-18 15:22:00,92.8,76.4,30.10,NNE,14,0.0,0.0,59,0.00,,---,0.00,VWS V14.01,2013-07-18 19:22:00,
2013-07-18 15:23:00,92.9,75.9,30.09,NW,321,0.0,2.0,58,0.00,,---,0.00,VWS V14.01,2013-07-18 19:23:00,
2013-07-18 15:24:00,93.0,76.1,30.10,WNW,287,0.0,0.0,58,0.00,,---,0.00,VWS V14.01,2013-07-18 19:24:00,
2013-07-18 15:25:00,93.2,76.2,30.10,WNW,289,0.0,0.0,58,0.00,,---,0.00,VWS V14.01,2013-07-18 19:25:00,
2013-07-18 15:26:00,93.4,75.4,30.09,WNW,285,0.0,3.0,56,0.00,,---,0.00,VWS V14.01,2013-07-18 19:26:00,
2013-07-18 15:27:00,93.5,75.5,30.09,NW,324,1.0,1.0,56,0.00,,---,0.00,VWS V14.01,2013-07-18 19:27:00,
2013-07-18 15:28:00,93.5,75.5,30.09,NNE,24,0.0,2.0,56,0.00,,---,0.00,VWS V14.01,2013-07-18 19:28:00,
2013-07-18 15:29:00,93.4,75.4,30.09,NNE,24,0.0,0.0,56,0.00,,---,0.00,VWS V14.01,2013-07-18 19:29:00,
2013-07-18 15:30:00,93.3,74.7,30.10,NNE,24,0.0,0.0,55,0.00,,---,0.00,VWS V14.01,2013-07-18 19:30:00,
2013-07-18 15:31:00,93.2,74.6,30.10,WNW,286,1.0,1.0,55,0.00,,---,0.00,VWS V14.01,2013-07-18 19:31:00,
2013-07-18 15:32:00,93.1,74.6,30.10,WNW,290,0.0,1.0,55,0.00,,---,0.00,VWS V14.01,2013-07-18 19:32:00,
2013-07-18 15:33:00,93.1,75.1,30.09,ENE,62,1.0,1.0,56,0.00,,---,0.00,VWS V14.01,2013-07-18 19:33:00,
2013-07-18 15:34:00,93.1,75.1,30.09,ENE,76,0.0,1.0,56,0.00,,---,0.00,VWS V14.01,2013-07-18 19:34:00,
2013-07-18 15:35:00,93.1,75.6,30.09,ENE,77,0.0,0.0,57,0.00,,---,0.00,VWS V14.01,2013-07-18 19:35:00,
2013-07-18 15:36:00,93.1,75.1,30.09,ENE,59,2.0,2.0,56,0.00,,---,0.00,VWS V14.01,2013-07-18 19:36:00,
2013-07-18 15:37:00,93.1,75.1,30.09,ENE,59,0.0,2.0,56,0.00,,---,0.00,VWS V14.01,2013-07-18 19:37:00,
2013-07-18 15:38:00,93.1,76.1,30.09,ENE,59,0.0,0.0,58,0.00,,---,0.00,VWS V14.01,2013-07-18 19:38:00,
2013-07-18 15:39:00,93.2,76.2,30.09,ENE,59,0.0,0.0,58,0.00,,---,0.00,VWS V14.01,2013-07-18 19:39:00,
2013-07-18 15:40:00,93.5,76.0,30.09,NNE,31,0.0,1.0,57,0.00,,---,0.00,VWS V14.01,2013-07-18 19:40:00,
2013-07-18 15:41:00,93.8,76.3,30.09,NE,34,0.0,0.0,57,0.00,,---,0.00,VWS V14.01,2013-07-18 19:41:00,
2013-07-18 15:42:00,94.0,75.9,30.09,East,84,2.0,2.0,56,0.00,,---,0.00,VWS V14.01,2013-07-18 19:42:00,
2013-07-18 15:43:00,94.0,75.4,30.09,East,90,1.0,2.0,55,0.00,,---,0.00,VWS V14.01,2013-07-18 19:43:00,
2013-07-18 15:44:00,93.9,75.3,30.09,East,89,0.0,1.0,55,0.00,,---,0.00,VWS V14.01,2013-07-18 19:44:00,
2013-07-18 15:45:00,93.7,75.1,30.09,East,84,0.0,1.0,55,0.00,,---,0.00,VWS V14.01,2013-07-18 19:45:00,
2013-07-18 15:46:00,93.5,74.9,30.09,ENE,73,2.0,2.0,55,0.00,,---,0.00,VWS V14.01,2013-07-18 19:46:00,
2013-07-18 15:47:00,93.4,74.8,30.09,ENE,73,1.0,2.0,55,0.00,,---,0.00,VWS V14.01,2013-07-18 19:47:00,
2013-07-18 15:48:00,93.1,75.1,30.09,ENE,77,2.0,2.0,56,0.00,,---,0.00,VWS V14.01,2013-07-18 19:48:00,
2013-07-18 15:49:00,93.0,75.5,30.09,ENE,67,1.0,2.0,57,0.00,,---,0.00,VWS V14.01,2013-07-18 19:49:00,
2013-07-18 15:50:00,92.9,74.9,30.09,East,81,0.0,1.0,56,0.00,,---,0.00,VWS V14.01,2013-07-18 19:50:00,
2013-07-18 15:51:00,92.9,75.4,30.09,East,81,0.0,0.0,57,0.00,,---,0.00,VWS V14.01,2013-07-18 19:51:00,
2013-07-18 15:52:00,93.0,75.0,30.09,NNW,327,0.0,0.0,56,0.00,,---,0.00,VWS V14.01,2013-07-18 19:52:00,
2013-07-18 15:53:00,93.3,75.3,30.09,NW,318,0.0,0.0,56,0.00,,---,0.00,VWS V14.01,2013-07-18 19:53:00,
2013-07-18 15:54:00,93.6,75.6,30.09,NW,317,0.0,0.0,56,0.00,,---,0.00,VWS V14.01,2013-07-18 19:54:00,
2013-07-18 15:55:00,94.0,74.8,30.09,East,84,0.0,1.0,54,0.00,,---,0.00,VWS V14.01,2013-07-18 19:55:00,
2013-07-18 15:56:00,94.3,75.1,30.09,SSE,167,2.0,2.0,54,0.00,,---,0.00,VWS V14.01,2013-07-18 19:56:00,
2013-07-18 15:57:00,94.5,74.7,30.09,South,187,0.0,2.0,53,0.00,,---,0.00,VWS V14.01,2013-07-18 19:57:00,
2013-07-18 15:58:00,94.8,75.0,30.09,SE,136,0.0,0.0,53,0.00,,---,0.00,VWS V14.01,2013-07-18 19:58:00,
2013-07-18 15:59:00,95.0,75.2,30.09,South,173,2.0,2.0,53,0.00,,---,0.00,VWS V14.01,2013-07-18 19:59:00,
2013-07-18 16:02:00,95.6,75.8,30.09,SW,218,3.0,3.0,53,0.00,,---,0.00,VWS V14.01,2013-07-18 20:02:00,
2013-07-18 16:03:00,95.6,75.2,30.09,SW,226,3.0,3.0,52,0.00,,---,0.00,VWS V14.01,2013-07-18 20:03:00,
2013-07-18 16:04:00,95.4,75.0,30.09,SSE,150,0.0,3.0,52,0.00,,---,0.00,VWS V14.01,2013-07-18 20:04:00,
2013-07-18 16:05:00,95.3,75.5,30.09,SE,130,1.0,1.0,53,0.00,,---,0.00,VWS V14.01,2013-07-18 20:05:00,
2013-07-18 16:06:00,95.4,75.0,30.09,SE,130,0.0,1.0,52,0.00,,---,0.00,VWS V14.01,2013-07-18 20:06:00,
2013-07-18 16:07:00,95.6,75.2,30.09,ENE,63,0.0,0.0,52,0.00,,---,0.00,VWS V14.01,2013-07-18 20:07:00,
2013-07-18 16:08:00,95.8,75.4,30.09,NW,326,0.0,1.0,52,0.00,,---,0.00,VWS V14.01,2013-07-18 20:08:00,
2013-07-18 16:09:00,95.9,75.4,30.09,NW,307,0.0,0.0,52,0.00,,---,0.00,VWS V14.01,2013-07-18 20:09:00,
2013-07-18 16:10:00,96.1,75.6,30.09,West,272,1.0,1.0,52,0.00,,---,0.00,VWS V14.01,2013-07-18 20:10:00,
2013-07-18 16:11:00,96.3,75.8,30.09,WSW,248,0.0,1.0,52,0.00,,---,0.00,VWS V14.01,2013-07-18 20:11:00,
2013-07-18 16:12:00,96.2,75.2,30.09,WSW,250,0.0,2.0,51,0.00,,---,0.00,VWS V14.01,2013-07-18 20:12:00,
2013-07-18 16:13:00,96.1,75.1,30.09,WSW,250,0.0,0.0,51,0.00,,---,0.00,VWS V14.01,2013-07-18 20:13:00,
2013-07-18 16:14:00,96.0,75.0,30.09,West,265,2.0,2.0,51,0.00,,---,0.00,VWS V14.01,2013-07-18 20:14:00,
2013-07-18 16:15:00,95.8,74.8,30.09,WSW,252,1.0,2.0,51,0.00,,---,0.00,VWS V14.01,2013-07-18 20:15:00,
2013-07-18 16:16:00,95.4,75.0,30.08,WSW,252,1.0,3.0,52,0.00,,---,0.00,VWS V14.01,2013-07-18 20:16:00,
2013-07-18 16:17:00,95.1,75.3,30.09,WSW,254,3.0,3.0,53,0.00,,---,0.00,VWS V14.01,2013-07-18 20:17:00,
2013-07-18 16:18:00,94.7,74.9,30.08,WSW,248,1.0,3.0,53,0.00,,---,0.00,VWS V14.01,2013-07-18 20:18:00,
2013-07-18 16:19:00,94.4,75.2,30.09,WSW,242,1.0,3.0,54,0.00,,---,0.00,VWS V14.01,2013-07-18 20:19:00,
2013-07-18 16:20:00,94.0,75.4,30.09,WNW,295,0.0,2.0,55,0.00,,---,0.00,VWS V14.01,2013-07-18 20:20:00,
2013-07-18 16:21:00,93.7,75.1,30.08,SSW,207,1.0,3.0,55,0.00,,---,0.00,VWS V14.01,2013-07-18 20:21:00,
2013-07-18 16:22:00,93.4,75.4,30.08,SW,223,4.0,6.0,56,0.00,,---,0.00,VWS V14.01,2013-07-18 20:22:00,
2013-07-18 16:23:00,93.1,75.6,30.08,West,265,0.0,4.0,57,0.00,,---,0.00,VWS V14.01,2013-07-18 20:23:00,
2013-07-18 16:24:00,92.8,76.4,30.08,SW,227,2.0,3.0,59,0.00,,---,0.00,VWS V14.01,2013-07-18 20:24:00,
2013-07-18 16:25:00,92.6,76.2,30.08,South,190,4.0,4.0,59,0.00,,---,0.00,VWS V14.01,2013-07-18 20:25:00,
2013-07-18 16:26:00,92.4,76.5,30.09,SW,226,3.0,4.0,60,0.00,,---,0.00,VWS V14.01,2013-07-18 20:26:00,
2013-07-18 16:27:00,92.2,76.8,30.08,WSW,246,0.0,3.0,61,0.00,,---,0.00,VWS V14.01,2013-07-18 20:27:00,
2013-07-18 16:28:00,92.1,76.7,30.08,SW,218,4.0,4.0,61,0.00,,---,0.00,VWS V14.01,2013-07-18 20:28:00,
2013-07-18 16:29:00,92.1,76.7,30.09,WNW,283,0.0,4.0,61,0.00,,---,0.00,VWS V14.01,2013-07-18 20:29:00,
2013-07-18 16:30:00,91.9,76.5,30.08,West,269,2.0,3.0,61,0.00,,---,0.00,VWS V14.01,2013-07-18 20:30:00,
2013-07-18 16:31:00,91.8,76.4,30.08,West,270,2.0,2.0,61,0.00,,---,0.00,VWS V14.01,2013-07-18 20:31:00,
2013-07-18 16:32:00,91.6,76.7,30.08,WSW,246,2.0,2.0,62,0.00,,---,0.00,VWS V14.01,2013-07-18 20:32:00,
2013-07-18 16:33:00,91.6,76.7,30.08,WSW,246,2.0,2.0,62,0.00,,---,0.00,VWS V14.01,2013-07-18 20:33:00,
2013-07-18 16:34:00,91.5,76.2,30.08,WSW,242,1.0,1.0,61,0.00,,---,0.00,VWS V14.01,2013-07-18 20:34:00,
2013-07-18 16:35:00,91.5,76.2,30.08,WSW,254,2.0,2.0,61,0.00,,---,0.00,VWS V14.01,2013-07-18 20:35:00,
2013-07-18 16:36:00,91.5,75.7,30.08,SW,226,2.0,2.0,60,0.00,,---,0.00,VWS V14.01,2013-07-18 20:36:00,
2013-07-18 16:37:00,91.5,76.2,30.08,WSW,241,1.0,2.0,61,0.00,,---,0.00,VWS V14.01,2013-07-18 20:37:00,
2013-07-18 16:38:00,91.5,76.2,30.08,WSW,241,1.0,2.0,61,0.00,,---,0.00,VWS V14.01,2013-07-18 20:38:00,
2013-07-18 16:39:00,91.6,76.7,30.08,WSW,238,2.0,2.0,62,0.00,,---,0.00,VWS V14.01,2013-07-18 20:39:00,
2013-07-18 16:40:00,91.7,76.8,30.08,WSW,250,1.0,2.0,62,0.00,,---,0.00,VWS V14.01,2013-07-18 20:40:00,
2013-07-18 16:41:00,91.8,76.9,30.08,SW,226,2.0,2.0,62,0.00,,---,0.00,VWS V14.01,2013-07-18 20:41:00,
2013-07-18 16:42:00,91.9,76.5,30.08,SSW,196,1.0,2.0,61,0.00,,---,0.00,VWS V14.01,2013-07-18 20:42:00,
2013-07-18 16:43:00,92.1,76.7,30.08,WNW,294,3.0,3.0,61,0.00,,---,0.00,VWS V14.01,2013-07-18 20:43:00,
2013-07-18 16:44:00,92.3,76.9,30.08,West,277,3.0,3.0,61,0.00,,---,0.00,VWS V14.01,2013-07-18 20:44:00,
2013-07-18 16:45:00,92.4,77.0,30.08,West,277,4.0,6.0,61,0.00,,---,0.00,VWS V14.01,2013-07-18 20:45:00,
2013-07-18 16:46:00,92.3,77.4,30.08,WSW,248,4.0,5.0,62,0.00,,---,0.00,VWS V14.01,2013-07-18 20:46:00,
2013-07-18 16:47:00,92.2,76.8,30.08,WSW,252,5.0,5.0,61,0.00,,---,0.00,VWS V14.01,2013-07-18 20:47:00,
2013-07-18 16:48:00,92.1,77.2,30.08,WSW,252,5.0,5.0,62,0.00,,---,0.00,VWS V14.01,2013-07-18 20:48:00,
2013-07-18 16:49:00,92.0,76.6,30.08,SSW,199,4.0,5.0,61,0.00,,---,0.00,VWS V14.01,2013-07-18 20:49:00,
2013-07-18 16:50:00,92.0,77.6,30.08,West,277,4.0,4.0,63,0.00,,---,0.00,VWS V14.01,2013-07-18 20:50:00,
2013-07-18 16:51:00,92.0,77.6,30.08,WNW,288,3.0,4.0,63,0.00,,---,0.00,VWS V14.01,2013-07-18 20:51:00,
2013-07-18 16:52:00,92.0,77.1,30.08,SW,219,3.0,3.0,62,0.00,,---,0.00,VWS V14.01,2013-07-18 20:52:00,
2013-07-18 16:53:00,92.0,76.1,30.08,SW,214,6.0,6.0,60,0.00,,---,0.00,VWS V14.01,2013-07-18 20:53:00,
2013-07-18 16:54:00,91.9,76.5,30.08,WSW,237,5.0,6.0,61,0.00,,---,0.00,VWS V14.01,2013-07-18 20:54:00,
2013-07-18 16:55:00,91.8,76.4,30.08,WSW,253,1.0,5.0,61,0.00,,---,0.00,VWS V14.01,2013-07-18 20:55:00,
2013-07-18 16:56:00,91.6,75.8,30.08,WNW,286,2.0,2.0,60,0.00,,---,0.00,VWS V14.01,2013-07-18 20:56:00,
2013-07-18 16:57:00,91.6,76.2,30.08,WNW,287,2.0,4.0,61,0.00,,---,0.00,VWS V14.01,2013-07-18 20:57:00,
2013-07-18 16:58:00,91.5,76.2,30.07,WSW,256,2.0,3.0,61,0.00,,---,0.00,VWS V14.01,2013-07-18 20:58:00,
2013-07-18 16:59:00,91.5,76.2,30.07,WSW,255,2.0,3.0,61,0.00,,---,0.00,VWS V14.01,2013-07-18 20:59:00,
2013-07-18 17:03:00,91.5,76.2,30.07,WNW,286,2.0,3.0,61,0.00,,---,0.00,VWS V14.01,2013-07-18 21:03:00,
2013-07-18 17:08:00,91.5,76.2,30.07,WNW,286,2.0,3.0,61,0.00,,---,0.00,VWS V14.01,2013-07-18 21:08:00,
2013-07-18 17:09:00,91.5,76.2,30.07,WNW,286,2.0,3.0,61,0.00,,---,0.00,VWS V14.01,2013-07-18 21:09:00,
2013-07-18 17:10:00,90.6,76.3,30.07,WNW,290,4.0,4.0,63,0.00,,---,0.00,VWS V14.01,2013-07-18 21:10:00,
2013-07-18 17:11:00,90.5,76.7,30.07,WSW,244,2.0,4.0,64,0.00,,---,0.00,VWS V14.01,2013-07-18 21:11:00,
2013-07-18 17:12:00,90.4,76.6,30.07,SSW,196,2.0,2.0,64,0.00,,---,0.00,VWS V14.01,2013-07-18 21:12:00,
2013-07-18 17:13:00,90.2,76.4,30.07,SW,229,2.0,2.0,64,0.00,,---,0.00,VWS V14.01,2013-07-18 21:13:00,
2013-07-18 17:14:00,90.2,76.8,30.07,WSW,248,0.0,2.0,65,0.00,,---,0.00,VWS V14.01,2013-07-18 21:14:00,
2013-07-18 17:15:00,90.0,76.7,30.07,West,265,1.0,1.0,65,0.00,,---,0.00,VWS V14.01,2013-07-18 21:15:00,
2013-07-18 17:16:00,90.0,77.1,30.07,SW,232,2.0,2.0,66,0.00,,---,0.00,VWS V14.01,2013-07-18 21:16:00,
2013-07-18 17:17:00,89.9,76.6,30.07,SW,227,2.0,2.0,65,0.00,,---,0.00,VWS V14.01,2013-07-18 21:17:00,
2013-07-18 17:18:00,89.8,76.9,30.07,SSW,212,1.0,2.0,66,0.00,,---,0.00,VWS V14.01,2013-07-18 21:18:00,
2013-07-18 17:19:00,89.7,76.4,30.07,SW,232,3.0,3.0,65,0.00,,---,0.00,VWS V14.01,2013-07-18 21:19:00,
2013-07-18 17:20:00,89.7,76.8,30.07,West,261,0.0,3.0,66,0.00,,---,0.00,VWS V14.01,2013-07-18 21:20:00,
2013-07-18 17:22:00,89.5,76.7,30.07,West,270,1.0,1.0,66,0.00,,---,0.00,VWS V14.01,2013-07-18 21:22:00,
2013-07-18 17:23:00,89.4,77.0,30.07,WSW,252,1.0,1.0,67,0.00,,---,0.00,VWS V14.01,2013-07-18 21:23:00,
2013-07-18 17:24:00,89.4,77.0,30.07,West,261,2.0,2.0,67,0.00,,---,0.00,VWS V14.01,2013-07-18 21:24:00,
2013-07-18 17:25:00,89.3,76.5,30.07,West,271,1.0,2.0,66,0.00,,---,0.00,VWS V14.01,2013-07-18 21:25:00,
2013-07-18 17:26:00,89.3,76.9,30.07,WSW,238,2.0,2.0,67,0.00,,---,0.00,VWS V14.01,2013-07-18 21:26:00,
2013-07-18 17:27:00,89.3,76.5,30.07,WSW,248,0.0,2.0,66,0.00,,---,0.00,VWS V14.01,2013-07-18 21:27:00,
2013-07-18 17:28:00,89.3,76.5,30.07,WSW,252,2.0,2.0,66,0.00,,---,0.00,VWS V14.01,2013-07-18 21:28:00,
2013-07-18 17:29:00,89.3,76.5,30.07,West,265,2.0,2.0,66,0.00,,---,0.00,VWS V14.01,2013-07-18 21:29:00,
2013-07-18 17:30:00,89.3,76.5,30.07,West,265,0.0,2.0,66,0.00,,---,0.00,VWS V14.01,2013-07-18 21:30:00,
2013-07-18 17:31:00,89.3,76.5,30.07,West,261,3.0,3.0,66,0.00,,---,0.00,VWS V14.01,2013-07-18 21:31:00,
2013-07-18 17:32:00,89.3,76.0,30.07,WSW,242,2.0,3.0,65,0.00,,---,0.00,VWS V14.01,2013-07-18 21:32:00,
2013-07-18 17:33:00,89.3,76.5,30.06,West,265,2.0,2.0,66,0.00,,---,0.00,VWS V14.01,2013-07-18 21:33:00,
2013-07-18 17:34:00,89.4,76.6,30.06,SW,227,1.0,2.0,66,0.00,,---,0.00,VWS V14.01,2013-07-18 21:34:00,
2013-07-18 17:35:00,89.4,76.6,30.06,SW,229,0.0,1.0,66,0.00,,---,0.00,VWS V14.01,2013-07-18 21:35:00,
2013-07-18 17:36:00,89.6,76.7,30.06,WSW,255,1.0,1.0,66,0.00,,---,0.00,VWS V14.01,2013-07-18 21:36:00,
2013-07-18 17:41:00,89.6,76.7,30.06,WSW,255,1.0,1.0,66,0.00,,---,0.00,VWS V14.01,2013-07-18 21:41:00,
2013-07-18 17:42:00,89.7,76.4,30.07,SSW,211,3.0,3.0,65,0.00,,---,0.00,VWS V14.01,2013-07-18 21:42:00,
2013-07-18 17:43:00,89.6,76.7,30.07,WNW,287,2.0,5.0,66,0.00,,---,0.00,VWS V14.01,2013-07-18 21:43:00,
2013-07-18 17:44:00,89.4,77.0,30.07,West,271,1.0,2.0,67,0.00,,---,0.00,VWS V14.01,2013-07-18 21:44:00,
2013-07-18 17:45:00,89.3,76.9,30.07,SSW,209,3.0,3.0,67,0.00,,---,0.00,VWS V14.01,2013-07-18 21:45:00,
2013-07-18 17:46:00,89.2,76.8,30.07,SW,214,3.0,3.0,67,0.00,,---,0.00,VWS V14.01,2013-07-18 21:46:00,
2013-07-18 17:47:00,89.0,77.1,30.07,SSE,165,3.0,3.0,68,0.00,,---,0.00,VWS V14.01,2013-07-18 21:47:00,
2013-07-18 17:48:00,88.9,77.0,30.07,WSW,253,4.0,4.0,68,0.00,,---,0.00,VWS V14.01,2013-07-18 21:48:00,
2013-07-18 17:49:00,88.7,77.2,30.07,South,182,5.0,5.0,69,0.00,,---,0.00,VWS V14.01,2013-07-18 21:49:00,
2013-07-18 17:50:00,88.5,77.5,30.07,SW,226,1.0,5.0,70,0.00,,---,0.00,VWS V14.01,2013-07-18 21:50:00,
2013-07-18 17:51:00,88.4,77.4,30.07,SW,236,7.0,7.0,70,0.00,,---,0.00,VWS V14.01,2013-07-18 21:51:00,
2013-07-18 17:52:00,88.0,77.0,30.07,SSW,194,5.0,5.0,70,0.00,,---,0.00,VWS V14.01,2013-07-18 21:52:00,
2013-07-18 17:53:00,87.8,77.2,30.07,SSW,195,3.0,5.0,71,0.00,,---,0.00,VWS V14.01,2013-07-18 21:53:00,
2013-07-18 17:54:00,87.5,77.4,30.07,South,191,3.0,4.0,72,0.00,,---,0.00,VWS V14.01,2013-07-18 21:54:00,
2013-07-18 17:55:00,87.4,77.3,30.07,SSW,213,4.0,4.0,72,0.00,,---,0.00,VWS V14.01,2013-07-18 21:55:00,
2013-07-18 17:56:00,87.2,77.1,30.07,SW,215,4.0,4.0,72,0.00,,---,0.00,VWS V14.01,2013-07-18 21:56:00,
2013-07-18 17:57:00,87.1,77.0,30.07,West,277,1.0,5.0,72,0.00,,---,0.00,VWS V14.01,2013-07-18 21:57:00,
2013-07-18 17:58:00,87.0,76.9,30.07,SW,221,6.0,6.0,72,0.00,,---,0.00,VWS V14.01,2013-07-18 21:58:00,
2013-07-18 17:59:00,86.8,77.1,30.07,SSW,211,4.0,6.0,73,0.00,,---,0.00,VWS V14.01,2013-07-18 21:59:00,
2013-07-18 18:00:00,86.7,76.6,30.07,SSW,200,7.0,9.0,72,0.00,,---,0.00,VWS V14.01,2013-07-18 22:00:00,
2013-07-18 18:01:00,86.6,76.5,30.07,West,261,5.0,5.0,72,0.00,,---,0.00,VWS V14.01,2013-07-18 22:01:00,
2013-07-18 18:03:00,86.4,76.3,30.07,SW,223,3.0,7.0,72,0.00,,---,0.00,VWS V14.01,2013-07-18 22:03:00,
2013-07-18 18:04:00,86.3,76.2,30.07,WSW,245,1.0,3.0,72,0.00,,---,0.00,VWS V14.01,2013-07-18 22:04:00,
2013-07-18 18:05:00,86.3,76.6,30.07,WSW,253,4.0,4.0,73,0.00,,---,0.00,VWS V14.01,2013-07-18 22:05:00,
2013-07-18 18:06:00,86.2,76.5,30.07,SE,146,0.0,0.0,73,0.00,,---,0.00,VWS V14.01,2013-07-18 22:06:00,
2013-07-18 18:07:00,86.2,76.5,30.07,West,269,2.0,2.0,73,0.00,,---,0.00,VWS V14.01,2013-07-18 22:07:00,
2013-07-18 18:08:00,86.2,76.5,30.07,SW,227,2.0,5.0,73,0.00,,---,0.00,VWS V14.01,2013-07-18 22:08:00,
2013-07-18 18:09:00,86.2,76.5,30.07,WSW,239,4.0,4.0,73,0.00,,---,0.00,VWS V14.01,2013-07-18 22:09:00,
2013-07-18 18:10:00,86.1,76.4,30.07,SSW,198,1.0,4.0,73,0.00,,---,0.00,VWS V14.01,2013-07-18 22:10:00,
2013-07-18 18:11:00,86.1,76.4,30.06,WSW,252,1.0,3.0,73,0.00,,---,0.00,VWS V14.01,2013-07-18 22:11:00,
2013-07-18 18:12:00,86.1,76.4,30.06,SW,236,1.0,3.0,73,0.00,,---,0.00,VWS V14.01,2013-07-18 22:12:00,
2013-07-18 18:13:00,86.1,76.4,30.06,SW,215,5.0,5.0,73,0.00,,---,0.00,VWS V14.01,2013-07-18 22:13:00,
2013-07-18 18:14:00,86.1,76.0,30.06,SSW,195,6.0,8.0,72,0.00,,---,0.00,VWS V14.01,2013-07-18 22:14:00,
2013-07-18 18:15:00,86.0,75.9,30.06,WSW,239,6.0,6.0,72,0.00,,---,0.00,VWS V14.01,2013-07-18 22:15:00,
2013-07-18 18:16:00,86.0,76.3,30.06,SW,231,3.0,3.0,73,0.00,,---,0.00,VWS V14.01,2013-07-18 22:16:00,
2013-07-18 18:17:00,86.0,76.3,30.06,SSW,192,2.0,4.0,73,0.00,,---,0.00,VWS V14.01,2013-07-18 22:17:00,
2013-07-18 18:18:00,86.0,76.3,30.07,ENE,78,2.0,2.0,73,0.00,,---,0.00,VWS V14.01,2013-07-18 22:18:00,
2013-07-18 18:19:00,86.0,76.8,30.07,South,176,0.0,2.0,74,0.00,,---,0.00,VWS V14.01,2013-07-18 22:19:00,
2013-07-18 18:20:00,86.0,76.3,30.07,SW,236,5.0,5.0,73,0.00,,---,0.00,VWS V14.01,2013-07-18 22:20:00,
2013-07-18 18:21:00,86.0,76.3,30.07,WSW,254,2.0,3.0,73,0.00,,---,0.00,VWS V14.01,2013-07-18 22:21:00,
2013-07-18 18:22:00,85.9,76.7,30.07,SW,215,2.0,3.0,74,0.00,,---,0.00,VWS V14.01,2013-07-18 22:22:00,
2013-07-18 18:23:00,85.9,76.7,30.07,West,259,0.0,2.0,74,0.00,,---,0.00,VWS V14.01,2013-07-18 22:23:00,
2013-07-18 18:24:00,85.9,76.7,30.07,WSW,249,0.0,0.0,74,0.00,,---,0.00,VWS V14.01,2013-07-18 22:24:00,
2013-07-18 18:25:00,85.9,77.1,30.07,SE,144,1.0,1.0,75,0.00,,---,0.00,VWS V14.01,2013-07-18 22:25:00,
2013-07-18 18:26:00,85.9,77.1,30.07,SSW,200,3.0,3.0,75,0.00,,---,0.00,VWS V14.01,2013-07-18 22:26:00,
2013-07-18 18:27:00,85.9,77.1,30.07,SE,144,0.0,3.0,75,0.00,,---,0.00,VWS V14.01,2013-07-18 22:27:00,
2013-07-18 18:28:00,85.8,77.0,30.07,SE,138,0.0,1.0,75,0.00,,---,0.00,VWS V14.01,2013-07-18 22:28:00,
2013-07-18 18:29:00,85.8,77.4,30.07,West,274,0.0,0.0,76,0.00,,---,0.00,VWS V14.01,2013-07-18 22:29:00,
2013-07-18 18:30:00,85.7,77.3,30.07,WSW,240,2.0,3.0,76,0.00,,---,0.00,VWS V14.01,2013-07-18 22:30:00,
2013-07-18 18:31:00,85.6,77.2,30.07,WNW,283,0.0,0.0,76,0.00,,---,0.00,VWS V14.01,2013-07-18 22:31:00,
2013-07-18 18:32:00,85.6,77.2,30.07,West,267,0.0,0.0,76,0.00,,---,0.00,VWS V14.01,2013-07-18 22:32:00,
2013-07-18 18:33:00,85.5,77.5,30.07,West,269,0.0,0.0,77,0.00,,---,0.00,VWS V14.01,2013-07-18 22:33:00,
2013-07-18 18:34:00,85.5,77.1,30.08,East,94,2.0,2.0,76,0.00,,---,0.00,VWS V14.01,2013-07-18 22:34:00,
2013-07-18 18:35:00,85.4,77.4,30.07,WSW,246,0.0,2.0,77,0.00,,---,0.00,VWS V14.01,2013-07-18 22:35:00,
2013-07-18 18:36:00,85.4,77.4,30.08,SW,219,0.0,0.0,77,0.00,,---,0.00,VWS V14.01,2013-07-18 22:36:00,
2013-07-18 18:37:00,85.3,77.3,30.08,WSW,241,1.0,4.0,77,0.00,,---,0.00,VWS V14.01,2013-07-18 22:37:00,
2013-07-18 18:38:00,85.2,76.8,30.07,SW,227,0.0,3.0,76,0.00,,---,0.00,VWS V14.01,2013-07-18 22:38:00,
2013-07-18 18:39:00,85.1,76.7,30.07,WSW,242,0.0,1.0,76,0.00,,---,0.00,VWS V14.01,2013-07-18 22:39:00,
2013-07-18 18:40:00,84.9,76.5,30.07,WSW,252,1.0,2.0,76,0.00,,---,0.00,VWS V14.01,2013-07-18 22:40:00,
2013-07-18 18:41:00,84.8,76.4,30.07,WSW,249,1.0,1.0,76,0.00,,---,0.00,VWS V14.01,2013-07-18 22:41:00,
2013-07-18 18:42:00,84.7,76.7,30.07,SSE,165,1.0,2.0,77,0.00,,---,0.00,VWS V14.01,2013-07-18 22:42:00,
2013-07-18 18:43:00,84.7,76.3,30.08,West,261,0.0,1.0,76,0.00,,---,0.00,VWS V14.01,2013-07-18 22:43:00,
2013-07-18 18:44:00,84.6,76.6,30.08,WSW,257,1.0,2.0,77,0.00,,---,0.00,VWS V14.01,2013-07-18 22:44:00,
2013-07-18 18:45:00,84.5,76.5,30.08,WSW,240,0.0,1.0,77,0.00,,---,0.00,VWS V14.01,2013-07-18 22:45:00,
2013-07-18 18:46:00,84.4,76.4,30.08,SSW,210,2.0,3.0,77,0.00,,---,0.00,VWS V14.01,2013-07-18 22:46:00,
2013-07-18 18:47:00,84.3,76.3,30.08,South,172,0.0,4.0,77,0.00,,---,0.00,VWS V14.01,2013-07-18 22:47:00,
2013-07-18 18:48:00,84.3,76.3,30.08,SE,138,3.0,3.0,77,0.00,,---,0.00,VWS V14.01,2013-07-18 22:48:00,
2013-07-18 18:49:00,84.1,76.1,30.08,SE,129,4.0,4.0,77,0.00,,---,0.00,VWS V14.01,2013-07-18 22:49:00,
2013-07-18 18:50:00,84.0,76.0,30.07,South,171,0.0,4.0,77,0.00,,---,0.00,VWS V14.01,2013-07-18 22:50:00,
2013-07-18 18:51:00,83.9,76.3,30.07,West,277,0.0,0.0,78,0.00,,---,0.00,VWS V14.01,2013-07-18 22:51:00,
2013-07-18 18:52:00,83.9,76.3,30.07,West,259,0.0,0.0,78,0.00,,---,0.00,VWS V14.01,2013-07-18 22:52:00,
2013-07-18 18:53:00,83.8,76.2,30.07,SW,225,0.0,0.0,78,0.00,,---,0.00,VWS V14.01,2013-07-18 22:53:00,
2013-07-18 18:54:00,83.7,76.1,30.07,SSW,205,0.0,0.0,78,0.00,,---,0.00,VWS V14.01,2013-07-18 22:54:00,
2013-07-18 18:55:00,83.7,76.1,30.07,SSW,205,0.0,0.0,78,0.00,,---,0.00,VWS V14.01,2013-07-18 22:55:00,
2013-07-18 18:56:00,83.6,76.0,30.07,West,259,0.0,1.0,78,0.00,,---,0.00,VWS V14.01,2013-07-18 22:56:00,
2013-07-18 18:57:00,83.6,76.0,30.07,South,188,0.0,1.0,78,0.00,,---,0.00,VWS V14.01,2013-07-18 22:57:00,
2013-07-18 18:58:00,83.5,75.9,30.08,South,188,0.0,0.0,78,0.00,,---,0.00,VWS V14.01,2013-07-18 22:58:00,
2013-07-18 18:59:00,83.5,75.9,30.08,WSW,246,0.0,1.0,78,0.00,,---,0.00,VWS V14.01,2013-07-18 22:59:00,
2013-07-18 19:00:00,83.5,75.9,30.08,SW,226,0.0,2.0,78,0.00,,---,0.00,VWS V14.01,2013-07-18 23:00:00,
2013-07-18 19:01:00,83.4,75.8,30.08,West,260,0.0,1.0,78,0.00,,---,0.00,VWS V14.01,2013-07-18 23:01:00,
2013-07-18 19:02:00,83.4,76.2,30.08,SW,217,1.0,1.0,79,0.00,,---,0.00,VWS V14.01,2013-07-18 23:02:00,
2013-07-18 19:03:00,83.3,75.7,30.08,SW,226,2.0,2.0,78,0.00,,---,0.00,VWS V14.01,2013-07-18 23:03:00,
2013-07-18 19:04:00,83.3,75.7,30.08,SSW,209,0.0,2.0,78,0.00,,---,0.00,VWS V14.01,2013-07-18 23:04:00,
2013-07-18 19:05:00,83.3,75.7,30.08,WSW,237,0.0,0.0,78,0.00,,---,0.00,VWS V14.01,2013-07-18 23:05:00,
2013-07-18 19:06:00,83.3,75.7,30.08,WSW,241,1.0,2.0,78,0.00,,---,0.00,VWS V14.01,2013-07-18 23:06:00,
2013-07-18 19:07:00,83.2,76.0,30.07,SW,226,0.0,1.0,79,0.00,,---,0.00,VWS V14.01,2013-07-18 23:07:00,
2013-07-18 19:08:00,83.2,76.0,30.08,SW,226,0.0,0.0,79,0.00,,---,0.00,VWS V14.01,2013-07-18 23:08:00,
2013-07-18 19:09:00,83.2,76.0,30.07,SW,226,0.0,0.0,79,0.00,,---,0.00,VWS V14.01,2013-07-18 23:09:00,
2013-07-18 19:10:00,83.3,76.1,30.08,SW,226,0.0,0.0,79,0.00,,---,0.00,VWS V14.01,2013-07-18 23:10:00,
2013-07-18 19:11:00,83.3,76.1,30.08,SW,226,0.0,0.0,79,0.00,,---,0.00,VWS V14.01,2013-07-18 23:11:00,
2013-07-18 19:12:00,83.3,76.1,30.08,SW,226,0.0,0.0,79,0.00,,---,0.00,VWS V14.01,2013-07-18 23:12:00,
2013-07-18 19:13:00,83.3,76.1,30.08,SW,226,0.0,0.0,79,0.00,,---,0.00,VWS V14.01,2013-07-18 23:13:00,
2013-07-18 19:14:00,83.4,76.2,30.08,SW,226,0.0,1.0,79,0.00,,---,0.00,VWS V14.01,2013-07-18 23:14:00,
2013-07-18 19:15:00,83.4,76.2,30.08,SW,226,0.0,0.0,79,0.00,,---,0.00,VWS V14.01,2013-07-18 23:15:00,
2013-07-18 19:16:00,83.4,76.2,30.08,WNW,292,0.0,0.0,79,0.00,,---,0.00,VWS V14.01,2013-07-18 23:16:00,
2013-07-18 19:17:00,83.4,76.6,30.08,WNW,295,0.0,0.0,80,0.00,,---,0.00,VWS V14.01,2013-07-18 23:17:00,
2013-07-18 19:18:00,83.4,76.6,30.08,ENE,59,1.0,1.0,80,0.00,,---,0.00,VWS V14.01,2013-07-18 23:18:00,
2013-07-18 19:19:00,83.4,76.6,30.08,ENE,59,1.0,1.0,80,0.00,,---,0.00,VWS V14.01,2013-07-18 23:19:00,
2013-07-18 19:20:00,83.3,76.9,30.08,ENE,59,0.0,1.0,81,0.00,,---,0.00,VWS V14.01,2013-07-18 23:20:00,
2013-07-18 19:21:00,83.2,76.8,30.08,ENE,59,0.0,0.0,81,0.00,,---,0.00,VWS V14.01,2013-07-18 23:21:00,
2013-07-18 19:22:00,83.2,76.8,30.08,ENE,59,0.0,0.0,81,0.00,,---,0.00,VWS V14.01,2013-07-18 23:22:00,
2013-07-18 19:23:00,83.1,76.7,30.08,ENE,59,0.0,0.0,81,0.00,,---,0.00,VWS V14.01,2013-07-18 23:23:00,
2013-07-18 19:24:00,83.1,77.0,30.08,ENE,59,0.0,0.0,82,0.00,,---,0.00,VWS V14.01,2013-07-18 23:24:00,
2013-07-18 19:25:00,83.1,77.0,30.08,ENE,59,0.0,0.0,82,0.00,,---,0.00,VWS V14.01,2013-07-18 23:25:00,
2013-07-18 19:26:00,83.1,76.7,30.08,ENE,59,0.0,0.0,81,0.00,,---,0.00,VWS V14.01,2013-07-18 23:26:00,
2013-07-18 19:27:00,83.1,76.7,30.08,ENE,59,0.0,0.0,81,0.00,,---,0.00,VWS V14.01,2013-07-18 23:27:00,
2013-07-18 19:28:00,83.1,76.7,30.08,ENE,59,0.0,0.0,81,0.00,,---,0.00,VWS V14.01,2013-07-18 23:28:00,
2013-07-18 19:29:00,83.1,76.7,30.08,ENE,59,0.0,0.0,81,0.00,,---,0.00,VWS V14.01,2013-07-18 23:29:00,
2013-07-18 19:30:00,83.1,76.7,30.08,ENE,59,0.0,0.0,81,0.00,,---,0.00,VWS V14.01,2013-07-18 23:30:00,
2013-07-18 19:31:00,83.2,76.8,30.08,ENE,59,0.0,0.0,81,0.00,,---,0.00,VWS V14.01,2013-07-18 23:31:00,
2013-07-18 19:32:00,83.2,76.8,30.08,ENE,59,0.0,0.0,81,0.00,,---,0.00,VWS V14.01,2013-07-18 23:32:00,
2013-07-18 19:33:00,83.2,76.8,30.08,ENE,59,0.0,1.0,81,0.00,,---,0.00,VWS V14.01,2013-07-18 23:33:00,
2013-07-18 19:34:00,83.2,76.4,30.08,ENE,59,0.0,0.0,80,0.00,,---,0.00,VWS V14.01,2013-07-18 23:34:00,
2013-07-18 19:35:00,83.2,76.4,30.08,ENE,59,1.0,1.0,80,0.00,,---,0.00,VWS V14.01,2013-07-18 23:35:00,
2013-07-18 19:36:00,83.3,76.5,30.08,ENE,59,0.0,1.0,80,0.00,,---,0.00,VWS V14.01,2013-07-18 23:36:00,
2013-07-18 19:37:00,83.3,76.5,30.08,ENE,59,0.0,0.0,80,0.00,,---,0.00,VWS V14.01,2013-07-18 23:37:00,
2013-07-18 19:38:00,83.3,76.1,30.08,ENE,59,0.0,0.0,79,0.00,,---,0.00,VWS V14.01,2013-07-18 23:38:00,
2013-07-18 19:39:00,83.3,76.1,30.08,ENE,59,0.0,0.0,79,0.00,,---,0.00,VWS V14.01,2013-07-18 23:39:00,
2013-07-18 19:40:00,83.3,76.5,30.08,ENE,59,0.0,0.0,80,0.00,,---,0.00,VWS V14.01,2013-07-18 23:40:00,
2013-07-18 19:41:00,83.4,76.6,30.08,ENE,59,0.0,0.0,80,0.00,,---,0.00,VWS V14.01,2013-07-18 23:41:00,
2013-07-18 19:42:00,83.4,76.6,30.08,ENE,59,0.0,0.0,80,0.00,,---,0.00,VWS V14.01,2013-07-18 23:42:00,
2013-07-18 19:43:00,83.4,76.6,30.08,ENE,59,0.0,0.0,80,0.00,,---,0.00,VWS V14.01,2013-07-18 23:43:00,
2013-07-18 19:44:00,83.4,77.0,30.09,ENE,59,0.0,0.0,81,0.00,,---,0.00,VWS V14.01,2013-07-18 23:44:00,
2013-07-18 19:45:00,83.5,76.7,30.08,ENE,59,0.0,0.0,80,0.00,,---,0.00,VWS V14.01,2013-07-18 23:45:00,
2013-07-18 19:46:00,83.5,76.7,30.09,ENE,59,0.0,0.0,80,0.00,,---,0.00,VWS V14.01,2013-07-18 23:46:00,
2013-07-18 19:47:00,83.5,76.7,30.09,ENE,59,0.0,1.0,80,0.00,,---,0.00,VWS V14.01,2013-07-18 23:47:00,
2013-07-18 19:48:00,83.5,76.7,30.09,ENE,59,0.0,1.0,80,0.00,,---,0.00,VWS V14.01,2013-07-18 23:48:00,
2013-07-18 19:49:00,83.5,76.7,30.09,ENE,59,0.0,0.0,80,0.00,,---,0.00,VWS V14.01,2013-07-18 23:49:00,
2013-07-18 19:50:00,83.5,76.7,30.09,ENE,59,0.0,1.0,80,0.00,,---,0.00,VWS V14.01,2013-07-18 23:50:00,
2013-07-18 19:51:00,83.5,76.7,30.09,ENE,59,0.0,0.0,80,0.00,,---,0.00,VWS V14.01,2013-07-18 23:51:00,
2013-07-18 19:52:00,83.5,76.3,30.09,South,191,0.0,1.0,79,0.00,,---,0.00,VWS V14.01,2013-07-18 23:52:00,
2013-07-18 19:53:00,83.5,76.3,30.09,South,191,0.0,0.0,79,0.00,,---,0.00,VWS V14.01,2013-07-18 23:53:00,
2013-07-18 19:54:00,83.6,76.4,30.09,SW,236,0.0,1.0,79,0.00,,---,0.00,VWS V14.01,2013-07-18 23:54:00,
2013-07-18 19:55:00,83.5,76.3,30.09,SW,236,0.0,1.0,79,0.00,,---,0.00,VWS V14.01,2013-07-18 23:55:00,
2013-07-18 19:56:00,83.5,76.3,30.09,SW,229,1.0,1.0,79,0.00,,---,0.00,VWS V14.01,2013-07-18 23:56:00,
2013-07-18 19:57:00,83.5,76.3,30.09,WSW,237,0.0,1.0,79,0.00,,---,0.00,VWS V14.01,2013-07-18 23:57:00,
2013-07-18 19:58:00,83.5,76.3,30.09,WSW,239,0.0,0.0,79,0.00,,---,0.00,VWS V14.01,2013-07-18 23:58:00,
2013-07-18 19:59:00,83.5,76.3,30.09,WSW,239,0.0,0.0,79,0.00,,---,0.00,VWS V14.01,2013-07-18 23:59:00,
2013-07-18 20:00:00,83.5,76.3,30.09,West,263,0.0,0.0,79,0.00,,---,0.00,VWS V14.01,2013-07-19 00:00:00,
2013-07-18 20:01:00,83.5,76.3,30.09,West,263,0.0,0.0,79,0.00,,---,0.00,VWS V14.01,2013-07-19 00:01:00,
2013-07-18 20:02:00,83.5,76.3,30.09,WSW,256,0.0,1.0,79,0.00,,---,0.00,VWS V14.01,2013-07-19 00:02:00,
2013-07-18 20:03:00,83.5,76.3,30.09,WSW,254,0.0,0.0,79,0.00,,---,0.00,VWS V14.01,2013-07-19 00:03:00,
2013-07-18 20:04:00,83.5,76.3,30.09,WSW,254,0.0,0.0,79,0.00,,---,0.00,VWS V14.01,2013-07-19 00:04:00,
2013-07-18 20:05:00,83.5,76.3,30.09,WSW,254,0.0,0.0,79,0.00,,---,0.00,VWS V14.01,2013-07-19 00:05:00,
2013-07-18 20:06:00,83.5,76.3,30.09,WSW,254,0.0,0.0,79,0.00,,---,0.00,VWS V14.01,2013-07-19 00:06:00,
2013-07-18 20:07:00,83.5,76.3,30.09,WSW,254,0.0,0.0,79,0.00,,---,0.00,VWS V14.01,2013-07-19 00:07:00,
2013-07-18 20:08:00,83.5,76.3,30.09,WSW,248,0.0,0.0,79,0.00,,---,0.00,VWS V14.01,2013-07-19 00:08:00,
2013-07-18 20:09:00,83.5,76.7,30.09,WSW,248,0.0,1.0,80,0.00,,---,0.00,VWS V14.01,2013-07-19 00:09:00,
2013-07-18 20:10:00,83.5,76.7,30.09,WSW,248,0.0,0.0,80,0.00,,---,0.00,VWS V14.01,2013-07-19 00:10:00,
2013-07-18 20:11:00,83.5,76.7,30.09,WSW,248,0.0,0.0,80,0.00,,---,0.00,VWS V14.01,2013-07-19 00:11:00,
2013-07-18 20:12:00,83.5,76.7,30.09,WSW,248,1.0,1.0,80,0.00,,---,0.00,VWS V14.01,2013-07-19 00:12:00,
2013-07-18 20:13:00,83.4,76.6,30.09,WSW,244,1.0,1.0,80,0.00,,---,0.00,VWS V14.01,2013-07-19 00:13:00,
2013-07-18 20:14:00,83.4,76.6,30.09,WSW,252,1.0,1.0,80,0.00,,---,0.00,VWS V14.01,2013-07-19 00:14:00,
2013-07-18 20:15:00,83.4,76.6,30.09,SW,233,2.0,2.0,80,0.00,,---,0.00,VWS V14.01,2013-07-19 00:15:00,
2013-07-18 20:16:00,83.4,76.6,30.09,SW,225,0.0,2.0,80,0.00,,---,0.00,VWS V14.01,2013-07-19 00:16:00,
2013-07-18 20:17:00,83.3,76.5,30.09,WSW,241,0.0,1.0,80,0.00,,---,0.00,VWS V14.01,2013-07-19 00:17:00,
2013-07-18 20:18:00,83.2,76.4,30.09,WSW,241,0.0,1.0,80,0.00,,---,0.00,VWS V14.01,2013-07-19 00:18:00,
2013-07-18 20:19:00,83.2,76.8,30.09,WSW,241,0.0,0.0,81,0.00,,---,0.00,VWS V14.01,2013-07-19 00:19:00,
2013-07-18 20:20:00,83.2,76.8,30.09,WSW,241,0.0,0.0,81,0.00,,---,0.00,VWS V14.01,2013-07-19 00:20:00,
2013-07-18 20:21:00,83.2,76.8,30.09,WSW,241,0.0,0.0,81,0.00,,---,0.00,VWS V14.01,2013-07-19 00:21:00,
2013-07-18 20:22:00,83.1,76.7,30.09,SW,223,1.0,1.0,81,0.00,,---,0.00,VWS V14.01,2013-07-19 00:22:00,
2013-07-18 20:23:00,83.1,76.7,30.09,West,261,0.0,1.0,81,0.00,,---,0.00,VWS V14.01,2013-07-19 00:23:00,
2013-07-18 20:24:00,83.1,76.7,30.09,West,261,0.0,1.0,81,0.00,,---,0.00,VWS V14.01,2013-07-19 00:24:00,
2013-07-18 20:25:00,83.0,76.6,30.09,West,261,0.0,0.0,81,0.00,,---,0.00,VWS V14.01,2013-07-19 00:25:00,
2013-07-18 20:26:00,83.0,76.6,30.09,West,261,0.0,0.0,81,0.00,,---,0.00,VWS V14.01,2013-07-19 00:26:00,
2013-07-18 20:27:00,83.0,76.6,30.09,West,263,0.0,0.0,81,0.00,,---,0.00,VWS V14.01,2013-07-19 00:27:00,
2013-07-18 20:28:00,82.9,76.5,30.09,SSW,200,1.0,1.0,81,0.00,,---,0.00,VWS V14.01,2013-07-19 00:28:00,
2013-07-18 20:29:00,82.9,76.5,30.09,WSW,256,1.0,1.0,81,0.00,,---,0.00,VWS V14.01,2013-07-19 00:29:00,
2013-07-18 20:30:00,82.8,76.4,30.09,WSW,240,0.0,3.0,81,0.00,,---,0.00,VWS V14.01,2013-07-19 00:30:00,
2013-07-18 20:31:00,82.8,76.4,30.09,WSW,239,0.0,3.0,81,0.00,,---,0.00,VWS V14.01,2013-07-19 00:31:00,
2013-07-18 20:32:00,82.8,76.4,30.09,SSW,213,1.0,2.0,81,0.00,,---,0.00,VWS V14.01,2013-07-19 00:32:00,
2013-07-18 20:33:00,82.7,76.3,30.09,WSW,246,0.0,1.0,81,0.00,,---,0.00,VWS V14.01,2013-07-19 00:33:00,
2013-07-18 20:34:00,82.7,76.3,30.09,WSW,246,1.0,1.0,81,0.00,,---,0.00,VWS V14.01,2013-07-19 00:34:00,
2013-07-18 20:35:00,82.7,76.3,30.09,SW,221,2.0,2.0,81,0.00,,---,0.00,VWS V14.01,2013-07-19 00:35:00,
2013-07-18 20:36:00,82.6,76.2,30.09,WSW,257,1.0,2.0,81,0.00,,---,0.00,VWS V14.01,2013-07-19 00:36:00,
2013-07-18 20:37:00,82.6,76.2,30.09,SSW,207,0.0,3.0,81,0.00,,---,0.00,VWS V14.01,2013-07-19 00:37:00,
2013-07-18 20:38:00,82.6,76.2,30.09,West,261,1.0,1.0,81,0.00,,---,0.00,VWS V14.01,2013-07-19 00:38:00,
2013-07-18 20:39:00,82.5,76.1,30.09,SSW,210,0.0,2.0,81,0.00,,---,0.00,VWS V14.01,2013-07-19 00:39:00,
2013-07-18 20:40:00,82.5,76.1,30.09,SSE,153,0.0,1.0,81,0.00,,---,0.00,VWS V14.01,2013-07-19 00:40:00,
2013-07-18 20:41:00,82.5,76.1,30.09,WSW,246,2.0,2.0,81,0.00,,---,0.00,VWS V14.01,2013-07-19 00:41:00,
2013-07-18 20:42:00,82.4,76.0,30.09,WSW,246,0.0,4.0,81,0.00,,---,0.00,VWS V14.01,2013-07-19 00:42:00,
2013-07-18 20:43:00,82.4,76.0,30.09,WSW,254,0.0,1.0,81,0.00,,---,0.00,VWS V14.01,2013-07-19 00:43:00,
2013-07-18 20:44:00,82.4,76.0,30.09,West,261,1.0,2.0,81,0.00,,---,0.00,VWS V14.01,2013-07-19 00:44:00,
2013-07-18 20:45:00,82.4,76.4,30.09,WSW,242,1.0,1.0,82,0.00,,---,0.00,VWS V14.01,2013-07-19 00:45:00,
2013-07-18 20:46:00,82.4,76.4,30.09,WSW,242,1.0,1.0,82,0.00,,---,0.00,VWS V14.01,2013-07-19 00:46:00,
2013-07-18 20:47:00,82.3,76.3,30.09,WSW,237,0.0,1.0,82,0.00,,---,0.00,VWS V14.01,2013-07-19 00:47:00,
2013-07-18 20:48:00,82.3,76.3,30.10,SW,224,0.0,1.0,82,0.00,,---,0.00,VWS V14.01,2013-07-19 00:48:00,
2013-07-18 20:49:00,82.3,76.3,30.10,SSW,209,0.0,1.0,82,0.00,,---,0.00,VWS V14.01,2013-07-19 00:49:00,
2013-07-18 20:50:00,82.3,76.3,30.10,WSW,239,1.0,3.0,82,0.00,,---,0.00,VWS V14.01,2013-07-19 00:50:00,
2013-07-18 20:51:00,82.3,76.3,30.10,WSW,241,1.0,3.0,82,0.00,,---,0.00,VWS V14.01,2013-07-19 00:51:00,
2013-07-18 20:52:00,82.2,76.2,30.10,WSW,238,0.0,2.0,82,0.00,,---,0.00,VWS V14.01,2013-07-19 00:52:00,
2013-07-18 20:53:00,82.2,76.2,30.10,SW,230,0.0,1.0,82,0.00,,---,0.00,VWS V14.01,2013-07-19 00:53:00,
2013-07-18 20:54:00,82.2,76.2,30.10,SW,230,0.0,0.0,82,0.00,,---,0.00,VWS V14.01,2013-07-19 00:54:00,
2013-07-18 20:55:00,82.2,76.2,30.10,SW,234,1.0,1.0,82,0.00,,---,0.00,VWS V14.01,2013-07-19 00:55:00,
2013-07-18 20:56:00,82.1,76.1,30.10,SW,234,0.0,1.0,82,0.00,,---,0.00,VWS V14.01,2013-07-19 00:56:00,
2013-07-18 20:57:00,82.1,76.1,30.10,SW,234,0.0,1.0,82,0.00,,---,0.00,VWS V14.01,2013-07-19 00:57:00,
2013-07-18 20:58:00,82.1,76.1,30.10,SW,234,1.0,1.0,82,0.00,,---,0.00,VWS V14.01,2013-07-19 00:58:00,
2013-07-18 20:59:00,82.1,76.1,30.10,SW,234,1.0,1.0,82,0.00,,---,0.00,VWS V14.01,2013-07-19 00:59:00,
2013-07-18 21:00:00,82.0,76.0,30.10,WSW,244,0.0,1.0,82,0.00,,---,0.00,VWS V14.01,2013-07-19 01:00:00,
2013-07-18 21:01:00,82.0,76.0,30.10,WSW,244,1.0,1.0,82,0.00,,---,0.00,VWS V14.01,2013-07-19 01:01:00,
2013-07-18 21:02:00,82.0,76.3,30.10,WSW,245,0.0,1.0,83,0.00,,---,0.00,VWS V14.01,2013-07-19 01:02:00,
2013-07-18 21:03:00,82.0,76.3,30.10,WSW,245,0.0,0.0,83,0.00,,---,0.00,VWS V14.01,2013-07-19 01:03:00,
2013-07-18 21:04:00,82.0,76.3,30.10,WSW,245,0.0,0.0,83,0.00,,---,0.00,VWS V14.01,2013-07-19 01:04:00,
2013-07-18 21:05:00,82.0,76.3,30.10,WSW,248,1.0,1.0,83,0.00,,---,0.00,VWS V14.01,2013-07-19 01:05:00,
2013-07-18 21:06:00,82.0,76.3,30.10,WSW,248,1.0,1.0,83,0.00,,---,0.00,VWS V14.01,2013-07-19 01:06:00,
2013-07-18 21:07:00,82.0,76.3,30.10,WSW,248,1.0,1.0,83,0.00,,---,0.00,VWS V14.01,2013-07-19 01:07:00,
2013-07-18 21:08:00,82.0,76.3,30.10,WSW,248,0.0,1.0,83,0.00,,---,0.00,VWS V14.01,2013-07-19 01:08:00,
2013-07-18 21:09:00,82.0,76.3,30.10,WSW,248,0.0,1.0,83,0.00,,---,0.00,VWS V14.01,2013-07-19 01:09:00,
2013-07-18 21:10:00,81.9,76.2,30.10,SW,222,1.0,2.0,83,0.00,,---,0.00,VWS V14.01,2013-07-19 01:10:00,
2013-07-18 21:11:00,81.9,76.2,30.10,SW,222,1.0,2.0,83,0.00,,---,0.00,VWS V14.01,2013-07-19 01:11:00,
2013-07-18 21:12:00,81.9,76.2,30.10,SW,222,0.0,1.0,83,0.00,,---,0.00,VWS V14.01,2013-07-19 01:12:00,
2013-07-18 21:13:00,81.9,76.2,30.10,SSW,213,1.0,1.0,83,0.00,,---,0.00,VWS V14.01,2013-07-19 01:13:00,
2013-07-18 21:14:00,81.9,76.2,30.10,SSW,207,1.0,1.0,83,0.00,,---,0.00,VWS V14.01,2013-07-19 01:14:00,
2013-07-18 21:15:00,81.9,76.2,30.10,SSW,207,1.0,1.0,83,0.00,,---,0.00,VWS V14.01,2013-07-19 01:15:00,
2013-07-18 21:16:00,81.9,76.2,30.10,SSW,207,0.0,1.0,83,0.00,,---,0.00,VWS V14.01,2013-07-19 01:16:00,
2013-07-18 21:17:00,81.9,75.9,30.10,West,271,0.0,1.0,82,0.00,,---,0.00,VWS V14.01,2013-07-19 01:17:00,
2013-07-18 21:18:00,81.9,75.9,30.10,WSW,255,1.0,2.0,82,0.00,,---,0.00,VWS V14.01,2013-07-19 01:18:00,
2013-07-18 21:19:00,81.9,75.9,30.10,WSW,256,1.0,1.0,82,0.00,,---,0.00,VWS V14.01,2013-07-19 01:19:00,
2013-07-18 21:20:00,81.9,75.9,30.10,WSW,254,0.0,0.0,82,0.00,,---,0.00,VWS V14.01,2013-07-19 01:20:00,
2013-07-18 21:21:00,81.9,75.9,30.10,WSW,254,0.0,0.0,82,0.00,,---,0.00,VWS V14.01,2013-07-19 01:21:00,
2013-07-18 21:22:00,81.9,75.9,30.10,WSW,254,1.0,1.0,82,0.00,,---,0.00,VWS V14.01,2013-07-19 01:22:00,
2013-07-18 21:23:00,81.9,75.9,30.10,SW,233,0.0,1.0,82,0.00,,---,0.00,VWS V14.01,2013-07-19 01:23:00,
2013-07-18 21:24:00,81.9,75.9,30.10,SW,233,0.0,1.0,82,0.00,,---,0.00,VWS V14.01,2013-07-19 01:24:00,
2013-07-18 21:25:00,81.9,75.9,30.10,SW,224,1.0,1.0,82,0.00,,---,0.00,VWS V14.01,2013-07-19 01:25:00,
2013-07-18 21:26:00,81.9,75.9,30.10,SW,225,0.0,1.0,82,0.00,,---,0.00,VWS V14.01,2013-07-19 01:26:00,
2013-07-18 21:27:00,81.9,75.9,30.10,WSW,252,1.0,1.0,82,0.00,,---,0.00,VWS V14.01,2013-07-19 01:27:00,
2013-07-18 21:28:00,81.9,75.9,30.10,WSW,252,1.0,1.0,82,0.00,,---,0.00,VWS V14.01,2013-07-19 01:28:00,
2013-07-18 21:29:00,81.9,75.9,30.10,SW,229,1.0,1.0,82,0.00,,---,0.00,VWS V14.01,2013-07-19 01:29:00,
2013-07-18 21:30:00,81.8,75.8,30.10,SW,229,0.0,0.0,82,0.00,,---,0.00,VWS V14.01,2013-07-19 01:30:00,
2013-07-18 21:31:00,81.8,75.8,30.10,SW,221,1.0,1.0,82,0.00,,---,0.00,VWS V14.01,2013-07-19 01:31:00,
2013-07-18 21:32:00,81.8,75.8,30.10,West,263,1.0,1.0,82,0.00,,---,0.00,VWS V14.01,2013-07-19 01:32:00,
2013-07-18 21:33:00,81.8,75.8,30.10,SW,221,1.0,1.0,82,0.00,,---,0.00,VWS V14.01,2013-07-19 01:33:00,
2013-07-18 21:34:00,81.8,75.8,30.10,SW,220,0.0,1.0,82,0.00,,---,0.00,VWS V14.01,2013-07-19 01:34:00,
2013-07-18 21:35:00,81.7,76.0,30.10,SW,226,1.0,1.0,83,0.00,,---,0.00,VWS V14.01,2013-07-19 01:35:00,
2013-07-18 21:36:00,81.7,76.0,30.10,SSW,198,1.0,1.0,83,0.00,,---,0.00,VWS V14.01,2013-07-19 01:36:00,
2013-07-18 21:37:00,81.7,75.7,30.10,SW,233,1.0,1.0,82,0.00,,---,0.00,VWS V14.01,2013-07-19 01:37:00,
2013-07-18 21:38:00,81.7,75.7,30.10,SW,233,0.0,1.0,82,0.00,,---,0.00,VWS V14.01,2013-07-19 01:38:00,
2013-07-18 21:39:00,81.6,75.9,30.10,SW,223,0.0,1.0,83,0.00,,---,0.00,VWS V14.01,2013-07-19 01:39:00,
2013-07-18 21:40:00,81.6,75.6,30.10,South,190,1.0,2.0,82,0.00,,---,0.00,VWS V14.01,2013-07-19 01:40:00,
2013-07-18 21:41:00,81.6,75.6,30.10,South,190,0.0,2.0,82,0.00,,---,0.00,VWS V14.01,2013-07-19 01:41:00,
2013-07-18 21:42:00,81.6,75.9,30.10,SW,233,0.0,1.0,83,0.00,,---,0.00,VWS V14.01,2013-07-19 01:42:00,
2013-07-18 21:43:00,81.6,75.9,30.10,SSW,206,1.0,1.0,83,0.00,,---,0.00,VWS V14.01,2013-07-19 01:43:00,
2013-07-18 21:44:00,81.6,75.9,30.10,SW,219,1.0,2.0,83,0.00,,---,0.00,VWS V14.01,2013-07-19 01:44:00,
2013-07-18 21:45:00,81.5,75.8,30.11,SW,224,0.0,1.0,83,0.00,,---,0.00,VWS V14.01,2013-07-19 01:45:00,
2013-07-18 21:46:00,81.5,75.8,30.11,SW,225,0.0,1.0,83,0.00,,---,0.00,VWS V14.01,2013-07-19 01:46:00,
2013-07-18 21:47:00,81.5,75.8,30.11,SSW,202,1.0,1.0,83,0.00,,---,0.00,VWS V14.01,2013-07-19 01:47:00,
2013-07-18 21:48:00,81.5,75.8,30.11,SSW,203,0.0,1.0,83,0.00,,---,0.00,VWS V14.01,2013-07-19 01:48:00,
2013-07-18 21:50:00,81.4,75.7,30.11,SSW,202,0.0,0.0,83,0.00,,---,0.00,VWS V14.01,2013-07-19 01:50:00,
2013-07-18 21:52:00,81.4,75.7,30.11,West,261,2.0,2.0,83,0.00,,---,0.00,VWS V14.01,2013-07-19 01:52:00,
2013-07-18 21:53:00,81.4,75.7,30.11,WSW,258,0.0,2.0,83,0.00,,---,0.00,VWS V14.01,2013-07-19 01:53:00,
2013-07-18 21:54:00,81.4,75.7,30.11,West,259,0.0,0.0,83,0.00,,---,0.00,VWS V14.01,2013-07-19 01:54:00,
2013-07-18 21:55:00,81.4,75.7,30.11,WSW,240,1.0,1.0,83,0.00,,---,0.00,VWS V14.01,2013-07-19 01:55:00,
2013-07-18 21:56:00,81.4,75.7,30.11,WSW,241,1.0,1.0,83,0.00,,---,0.00,VWS V14.01,2013-07-19 01:56:00,
2013-07-18 21:57:00,81.4,75.7,30.11,WSW,252,1.0,2.0,83,0.00,,---,0.00,VWS V14.01,2013-07-19 01:57:00,
2013-07-18 21:58:00,81.4,75.7,30.11,WSW,254,1.0,1.0,83,0.00,,---,0.00,VWS V14.01,2013-07-19 01:58:00,
2013-07-18 21:59:00,81.4,75.7,30.11,WSW,253,1.0,1.0,83,0.00,,---,0.00,VWS V14.01,2013-07-19 01:59:00,
2013-07-18 22:00:00,81.4,75.7,30.11,WSW,238,1.0,1.0,83,0.00,,---,0.00,VWS V14.01,2013-07-19 02:00:00,
2013-07-18 22:01:00,81.4,75.7,30.11,WSW,238,1.0,1.0,83,0.00,,---,0.00,VWS V14.01,2013-07-19 02:01:00,
2013-07-18 22:02:00,81.3,75.7,30.11,WSW,238,0.0,1.0,83,0.00,,---,0.00,VWS V14.01,2013-07-19 02:02:00,
2013-07-18 22:03:00,81.3,75.7,30.11,WSW,238,1.0,1.0,83,0.00,,---,0.00,VWS V14.01,2013-07-19 02:03:00,
2013-07-18 22:04:00,81.3,75.7,30.12,WSW,238,0.0,1.0,83,0.00,,---,0.00,VWS V14.01,2013-07-19 02:04:00,
2013-07-18 22:05:00,81.3,75.7,30.11,WSW,238,0.0,1.0,83,0.00,,---,0.00,VWS V14.01,2013-07-19 02:05:00,
2013-07-18 22:06:00,81.3,76.0,30.11,WSW,238,0.0,1.0,84,0.00,,---,0.00,VWS V14.01,2013-07-19 02:06:00,
2013-07-18 22:07:00,81.3,76.0,30.12,WSW,254,1.0,1.0,84,0.00,,---,0.00,VWS V14.01,2013-07-19 02:07:00,
2013-07-18 22:08:00,81.2,75.9,30.12,WSW,254,1.0,1.0,84,0.00,,---,0.00,VWS V14.01,2013-07-19 02:08:00,
2013-07-18 22:09:00,81.2,75.9,30.12,WSW,246,0.0,1.0,84,0.00,,---,0.00,VWS V14.01,2013-07-19 02:09:00,
2013-07-18 22:10:00,81.2,75.9,30.12,WSW,246,0.0,1.0,84,0.00,,---,0.00,VWS V14.01,2013-07-19 02:10:00,
2013-07-18 22:11:00,81.2,75.9,30.12,WSW,246,0.0,1.0,84,0.00,,---,0.00,VWS V14.01,2013-07-19 02:11:00,
2013-07-18 22:12:00,81.2,75.9,30.12,WSW,246,0.0,0.0,84,0.00,,---,0.00,VWS V14.01,2013-07-19 02:12:00,
2013-07-18 22:13:00,81.2,75.9,30.12,WSW,242,1.0,1.0,84,0.00,,---,0.00,VWS V14.01,2013-07-19 02:13:00,
2013-07-18 22:14:00,81.1,75.8,30.12,SW,217,1.0,2.0,84,0.00,,---,0.00,VWS V14.01,2013-07-19 02:14:00,
2013-07-18 22:15:00,81.1,75.8,30.12,SW,217,0.0,0.0,84,0.00,,---,0.00,VWS V14.01,2013-07-19 02:15:00,
2013-07-18 22:16:00,81.1,75.8,30.12,SW,217,0.0,0.0,84,0.00,,---,0.00,VWS V14.01,2013-07-19 02:16:00,
2013-07-18 22:17:00,81.1,75.8,30.12,SW,217,1.0,1.0,84,0.00,,---,0.00,VWS V14.01,2013-07-19 02:17:00,
2013-07-18 22:18:00,81.0,75.7,30.12,SW,217,0.0,1.0,84,0.00,,---,0.00,VWS V14.01,2013-07-19 02:18:00,
2013-07-18 22:19:00,81.0,75.7,30.12,SW,215,0.0,1.0,84,0.00,,---,0.00,VWS V14.01,2013-07-19 02:19:00,
2013-07-18 22:20:00,81.0,75.7,30.12,SW,215,0.0,0.0,84,0.00,,---,0.00,VWS V14.01,2013-07-19 02:20:00,
2013-07-18 22:21:00,80.9,75.6,30.12,SW,215,0.0,0.0,84,0.00,,---,0.00,VWS V14.01,2013-07-19 02:21:00,
2013-07-18 22:22:00,80.9,76.0,30.12,SW,215,0.0,0.0,85,0.00,,---,0.00,VWS V14.01,2013-07-19 02:22:00,
2013-07-18 22:23:00,80.8,75.9,30.12,SE,128,0.0,0.0,85,0.00,,---,0.00,VWS V14.01,2013-07-19 02:23:00,
2013-07-18 22:24:00,80.8,75.9,30.12,SE,128,0.0,0.0,85,0.00,,---,0.00,VWS V14.01,2013-07-19 02:24:00,
2013-07-18 22:25:00,80.7,75.8,30.12,ESE,119,0.0,0.0,85,0.00,,---,0.00,VWS V14.01,2013-07-19 02:25:00,
2013-07-18 22:26:00,80.6,75.7,30.12,ESE,119,0.0,0.0,85,0.00,,---,0.00,VWS V14.01,2013-07-19 02:26:00,
2013-07-18 22:27:00,80.6,75.7,30.12,ESE,117,0.0,0.0,85,0.00,,---,0.00,VWS V14.01,2013-07-19 02:27:00,
2013-07-18 22:28:00,80.5,75.9,30.12,ESE,122,1.0,2.0,86,0.00,,---,0.00,VWS V14.01,2013-07-19 02:28:00,
2013-07-18 22:29:00,80.4,75.8,30.12,ESE,122,1.0,1.0,86,0.00,,---,0.00,VWS V14.01,2013-07-19 02:29:00,
2013-07-18 22:30:00,80.3,75.7,30.12,ESE,122,0.0,1.0,86,0.00,,---,0.00,VWS V14.01,2013-07-19 02:30:00,
2013-07-18 22:31:00,80.3,75.7,30.12,ESE,123,0.0,1.0,86,0.00,,---,0.00,VWS V14.01,2013-07-19 02:31:00,
2013-07-18 22:32:00,80.2,75.6,30.12,ESE,123,0.0,0.0,86,0.00,,---,0.00,VWS V14.01,2013-07-19 02:32:00,
2013-07-18 22:33:00,80.2,75.6,30.12,ESE,123,1.0,1.0,86,0.00,,---,0.00,VWS V14.01,2013-07-19 02:33:00,
2013-07-18 22:34:00,80.1,75.5,30.12,ESE,123,1.0,1.0,86,0.00,,---,0.00,VWS V14.01,2013-07-19 02:34:00,
2013-07-18 22:35:00,80.0,75.8,30.12,ESE,122,1.0,1.0,87,0.00,,---,0.00,VWS V14.01,2013-07-19 02:35:00,
2013-07-18 22:36:00,80.0,75.8,30.12,ESE,123,1.0,1.0,87,0.00,,---,0.00,VWS V14.01,2013-07-19 02:36:00,
2013-07-18 22:37:00,79.9,75.7,30.12,ESE,122,0.0,1.0,87,0.00,,---,0.00,VWS V14.01,2013-07-19 02:37:00,
2013-07-18 22:38:00,79.9,75.7,30.12,ESE,123,0.0,1.0,87,0.00,,---,0.00,VWS V14.01,2013-07-19 02:38:00,
2013-07-18 22:39:00,79.9,75.7,30.12,ESE,122,0.0,0.0,87,0.00,,---,0.00,VWS V14.01,2013-07-19 02:39:00,
2013-07-18 22:40:00,79.8,75.6,30.12,ESE,123,0.0,0.0,87,0.00,,---,0.00,VWS V14.01,2013-07-19 02:40:00,
2013-07-18 22:41:00,79.8,75.6,30.12,ESE,122,0.0,0.0,87,0.00,,---,0.00,VWS V14.01,2013-07-19 02:41:00,
2013-07-18 22:42:00,79.8,75.6,30.12,ESE,123,0.0,0.0,87,0.00,,---,0.00,VWS V14.01,2013-07-19 02:42:00,
2013-07-18 22:43:00,79.7,75.5,30.12,ESE,123,0.0,0.0,87,0.00,,---,0.00,VWS V14.01,2013-07-19 02:43:00,
2013-07-18 22:44:00,79.7,75.8,30.12,ESE,123,0.0,0.0,88,0.00,,---,0.00,VWS V14.01,2013-07-19 02:44:00,
2013-07-18 22:45:00,79.6,75.7,30.12,ESE,122,0.0,0.0,88,0.00,,---,0.00,VWS V14.01,2013-07-19 02:45:00,
2013-07-18 22:46:00,79.6,75.7,30.12,ESE,123,0.0,0.0,88,0.00,,---,0.00,VWS V14.01,2013-07-19 02:46:00,
2013-07-18 22:47:00,79.6,75.7,30.12,ESE,122,0.0,0.0,88,0.00,,---,0.00,VWS V14.01,2013-07-19 02:47:00,
2013-07-18 22:48:00,79.6,75.7,30.12,ESE,123,0.0,0.0,88,0.00,,---,0.00,VWS V14.01,2013-07-19 02:48:00,
2013-07-18 22:49:00,79.6,75.7,30.12,ESE,122,0.0,0.0,88,0.00,,---,0.00,VWS V14.01,2013-07-19 02:49:00,
2013-07-18 22:50:00,79.5,75.6,30.12,ESE,123,0.0,0.0,88,0.00,,---,0.00,VWS V14.01,2013-07-19 02:50:00,
2013-07-18 22:51:00,79.5,75.6,30.12,ESE,122,0.0,0.0,88,0.00,,---,0.00,VWS V14.01,2013-07-19 02:51:00,
2013-07-18 22:52:00,79.5,75.6,30.12,ESE,123,0.0,0.0,88,0.00,,---,0.00,VWS V14.01,2013-07-19 02:52:00,
2013-07-18 22:53:00,79.5,75.6,30.12,ESE,123,0.0,0.0,88,0.00,,---,0.00,VWS V14.01,2013-07-19 02:53:00,
2013-07-18 22:54:00,79.5,76.0,30.12,ESE,122,0.0,0.0,89,0.00,,---,0.00,VWS V14.01,2013-07-19 02:54:00,
2013-07-18 22:55:00,79.5,76.0,30.12,ESE,123,0.0,0.0,89,0.00,,---,0.00,VWS V14.01,2013-07-19 02:55:00,
2013-07-18 22:56:00,79.5,76.0,30.12,ESE,122,0.0,0.0,89,0.00,,---,0.00,VWS V14.01,2013-07-19 02:56:00,
2013-07-18 22:57:00,79.5,75.6,30.12,ESE,123,0.0,0.0,88,0.00,,---,0.00,VWS V14.01,2013-07-19 02:57:00,
2013-07-18 22:58:00,79.4,75.5,30.12,ESE,123,0.0,0.0,88,0.00,,---,0.00,VWS V14.01,2013-07-19 02:58:00,
2013-07-18 22:59:00,79.4,75.5,30.12,ESE,122,0.0,0.0,88,0.00,,---,0.00,VWS V14.01,2013-07-19 02:59:00,
2013-07-18 23:00:00,79.4,75.9,30.12,ESE,122,0.0,0.0,89,0.00,,---,0.00,VWS V14.01,2013-07-19 03:00:00,
2013-07-18 23:01:00,79.4,75.9,30.12,ESE,123,0.0,0.0,89,0.00,,---,0.00,VWS V14.01,2013-07-19 03:01:00,
2013-07-18 23:02:00,79.4,75.9,30.12,ESE,123,0.0,0.0,89,0.00,,---,0.00,VWS V14.01,2013-07-19 03:02:00,
2013-07-18 23:03:00,79.4,75.9,30.12,ESE,122,0.0,0.0,89,0.00,,---,0.00,VWS V14.01,2013-07-19 03:03:00,
2013-07-18 23:04:00,79.4,75.9,30.12,ESE,122,0.0,0.0,89,0.00,,---,0.00,VWS V14.01,2013-07-19 03:04:00,
2013-07-18 23:05:00,79.4,75.9,30.12,ESE,123,0.0,0.0,89,0.00,,---,0.00,VWS V14.01,2013-07-19 03:05:00,
2013-07-18 23:06:00,79.4,75.9,30.12,ESE,123,0.0,0.0,89,0.00,,---,0.00,VWS V14.01,2013-07-19 03:06:00,
2013-07-18 23:07:00,79.4,75.9,30.12,SSE,162,0.0,0.0,89,0.00,,---,0.00,VWS V14.01,2013-07-19 03:07:00,
2013-07-18 23:08:00,79.4,75.9,30.12,SSE,162,0.0,0.0,89,0.00,,---,0.00,VWS V14.01,2013-07-19 03:08:00,
2013-07-18 23:09:00,79.4,75.9,30.12,SSE,161,0.0,0.0,89,0.00,,---,0.00,VWS V14.01,2013-07-19 03:09:00,
2013-07-18 23:10:00,79.4,75.9,30.12,SSW,205,0.0,1.0,89,0.00,,---,0.00,VWS V14.01,2013-07-19 03:10:00,
2013-07-18 23:11:00,79.4,75.9,30.12,SSW,206,0.0,1.0,89,0.00,,---,0.00,VWS V14.01,2013-07-19 03:11:00,
2013-07-18 23:12:00,79.5,76.0,30.12,SSW,206,0.0,0.0,89,0.00,,---,0.00,VWS V14.01,2013-07-19 03:12:00,
2013-07-18 23:13:00,79.5,76.0,30.12,SSW,206,0.0,0.0,89,0.00,,---,0.00,VWS V14.01,2013-07-19 03:13:00,
2013-07-18 23:14:00,79.5,76.0,30.12,SSW,206,0.0,0.0,89,0.00,,---,0.00,VWS V14.01,2013-07-19 03:14:00,
2013-07-18 23:15:00,79.5,76.0,30.12,SSW,205,0.0,0.0,89,0.00,,---,0.00,VWS V14.01,2013-07-19 03:15:00,
2013-07-18 23:16:00,79.5,76.0,30.12,SSW,205,0.0,0.0,89,0.00,,---,0.00,VWS V14.01,2013-07-19 03:16:00,
2013-07-18 23:17:00,79.5,76.0,30.12,SSW,206,0.0,1.0,89,0.00,,---,0.00,VWS V14.01,2013-07-19 03:17:00,
2013-07-18 23:18:00,79.5,76.0,30.12,SSW,206,0.0,1.0,89,0.00,,---,0.00,VWS V14.01,2013-07-19 03:18:00,
2013-07-18 23:19:00,79.5,76.3,30.12,SSW,206,0.0,0.0,90,0.00,,---,0.00,VWS V14.01,2013-07-19 03:19:00,
2013-07-18 23:20:00,79.5,76.3,30.12,SSW,206,0.0,0.0,90,0.00,,---,0.00,VWS V14.01,2013-07-19 03:20:00,
2013-07-18 23:21:00,79.5,76.3,30.12,SSW,206,0.0,0.0,90,0.00,,---,0.00,VWS V14.01,2013-07-19 03:21:00,
2013-07-18 23:22:00,79.5,76.3,30.12,SSW,206,0.0,0.0,90,0.00,,---,0.00,VWS V14.01,2013-07-19 03:22:00,
2013-07-18 23:23:00,79.5,76.3,30.12,SSW,206,0.0,0.0,90,0.00,,---,0.00,VWS V14.01,2013-07-19 03:23:00,
2013-07-18 23:24:00,79.5,76.3,30.12,SSW,205,1.0,1.0,90,0.00,,---,0.00,VWS V14.01,2013-07-19 03:24:00,
2013-07-18 23:25:00,79.5,76.3,30.12,SSW,206,0.0,0.0,90,0.00,,---,0.00,VWS V14.01,2013-07-19 03:25:00,
2013-07-18 23:26:00,79.5,76.3,30.12,SSW,205,0.0,0.0,90,0.00,,---,0.00,VWS V14.01,2013-07-19 03:26:00,
2013-07-18 23:27:00,79.4,76.2,30.12,WSW,242,1.0,1.0,90,0.00,,---,0.00,VWS V14.01,2013-07-19 03:27:00,
2013-07-18 23:28:00,79.4,76.2,30.12,WSW,242,0.0,2.0,90,0.00,,---,0.00,VWS V14.01,2013-07-19 03:28:00,
2013-07-18 23:29:00,79.4,76.2,30.12,WSW,243,0.0,0.0,90,0.00,,---,0.00,VWS V14.01,2013-07-19 03:29:00,
2013-07-18 23:30:00,79.4,76.2,30.12,WSW,242,0.0,0.0,90,0.00,,---,0.00,VWS V14.01,2013-07-19 03:30:00,
2013-07-18 23:31:00,79.4,76.2,30.12,WSW,242,0.0,0.0,90,0.00,,---,0.00,VWS V14.01,2013-07-19 03:31:00,
2013-07-18 23:32:00,79.4,76.2,30.12,WSW,242,0.0,0.0,90,0.00,,---,0.00,VWS V14.01,2013-07-19 03:32:00,
2013-07-18 23:33:00,79.5,76.3,30.12,WSW,242,0.0,1.0,90,0.00,,---,0.00,VWS V14.01,2013-07-19 03:33:00,
2013-07-18 23:34:00,79.5,76.3,30.12,WSW,242,0.0,0.0,90,0.00,,---,0.00,VWS V14.01,2013-07-19 03:34:00,
2013-07-18 23:35:00,79.5,76.3,30.12,WSW,242,0.0,0.0,90,0.00,,---,0.00,VWS V14.01,2013-07-19 03:35:00,
2013-07-18 23:36:00,79.5,76.3,30.12,WSW,242,0.0,0.0,90,0.00,,---,0.00,VWS V14.01,2013-07-19 03:36:00,
2013-07-18 23:37:00,79.5,76.3,30.12,WSW,242,0.0,0.0,90,0.00,,---,0.00,VWS V14.01,2013-07-19 03:37:00,
2013-07-18 23:38:00,79.5,76.3,30.12,WSW,242,0.0,1.0,90,0.00,,---,0.00,VWS V14.01,2013-07-19 03:38:00,
2013-07-18 23:39:00,79.5,76.3,30.12,WSW,242,0.0,0.0,90,0.00,,---,0.00,VWS V14.01,2013-07-19 03:39:00,
2013-07-18 23:40:00,79.5,76.3,30.12,WSW,242,0.0,0.0,90,0.00,,---,0.00,VWS V14.01,2013-07-19 03:40:00,
2013-07-18 23:41:00,79.5,76.3,30.12,SSW,209,0.0,0.0,90,0.00,,---,0.00,VWS V14.01,2013-07-19 03:41:00,
2013-07-18 23:42:00,79.5,76.3,30.12,SSW,209,0.0,0.0,90,0.00,,---,0.00,VWS V14.01,2013-07-19 03:42:00,
2013-07-18 23:43:00,79.5,76.3,30.12,SSW,209,0.0,0.0,90,0.00,,---,0.00,VWS V14.01,2013-07-19 03:43:00,
2013-07-18 23:44:00,79.5,76.3,30.12,SW,233,1.0,1.0,90,0.00,,---,0.00,VWS V14.01,2013-07-19 03:44:00,
2013-07-18 23:45:00,79.4,76.2,30.13,SW,225,0.0,0.0,90,0.00,,---,0.00,VWS V14.01,2013-07-19 03:45:00,
2013-07-18 23:46:00,79.5,76.3,30.13,SW,225,0.0,0.0,90,0.00,,---,0.00,VWS V14.01,2013-07-19 03:46:00,
2013-07-18 23:47:00,79.5,76.3,30.13,SW,225,0.0,0.0,90,0.00,,---,0.00,VWS V14.01,2013-07-19 03:47:00,
2013-07-18 23:50:00,79.5,76.7,30.13,WSW,242,0.0,0.0,91,0.00,,---,0.00,VWS V14.01,2013-07-19 03:50:00,
2013-07-18 23:51:00,79.5,76.7,30.13,West,259,1.0,1.0,91,0.00,,---,0.00,VWS V14.01,2013-07-19 03:51:00,
2013-07-18 23:52:00,79.5,76.7,30.13,South,191,2.0,3.0,91,0.00,,---,0.00,VWS V14.01,2013-07-19 03:52:00,
2013-07-18 23:54:00,79.5,76.7,30.13,WSW,241,4.0,4.0,91,0.00,,---,0.00,VWS V14.01,2013-07-19 03:54:00,
2013-07-18 23:55:00,79.5,76.7,30.13,SW,229,2.0,2.0,91,0.00,,---,0.00,VWS V14.01,2013-07-19 03:55:00,
2013-07-18 23:56:00,79.5,76.7,30.13,SSW,205,2.0,2.0,91,0.00,,---,0.00,VWS V14.01,2013-07-19 03:56:00,
2013-07-18 23:57:00,79.5,76.7,30.13,WSW,242,3.0,3.0,91,0.00,,---,0.00,VWS V14.01,2013-07-19 03:57:00,
2013-07-18 23:59:00,79.5,76.7,30.13,WSW,244,2.0,3.0,91,0.00,,---,0.00,VWS V14.01,2013-07-19 03:59:00,